<?xml version='1.0' encoding='UTF-8'?><gpx version="1.1" creator="JPX - https://github.com/jenetics/jpx" xmlns="http://www.topografix.com/GPX/1/1"><trk><trkseg><trkpt lat="45.549933133130814" lon="10.420102532816967"><ele>190.0</ele><time>2026-04-03T07:38:01Z</time></trkpt><trkpt lat="45.54987103737529" lon="10.420182441648612"><ele>190.0</ele><time>2026-04-03T07:38:03Z</time></trkpt><trkpt lat="45.54980656272379" lon="10.420254907745548"><ele>190.0</ele><time>2026-04-03T07:38:05Z</time></trkpt><trkpt lat="45.54973862757479" lon="10.420345587242725"><ele>190.0</ele><time>2026-04-03T07:38:07Z</time></trkpt><trkpt lat="45.54968639125979" lon="10.420412099870157"><ele>190.0</ele><time>2026-04-03T07:38:09Z</time></trkpt><trkpt lat="45.54965686318348" lon="10.420494273710235"><ele>190.0</ele><time>2026-04-03T07:38:12Z</time></trkpt><trkpt lat="45.54969611582137" lon="10.420595466453772"><ele>190.2</ele><time>2026-04-03T07:38:14Z</time></trkpt><trkpt lat="45.549759957451" lon="10.420714012104302"><ele>190.4</ele><time>2026-04-03T07:38:16Z</time></trkpt><trkpt lat="45.54976633872761" lon="10.42084521197683"><ele>190.60000000000002</ele><time>2026-04-03T07:38:18Z</time></trkpt><trkpt lat="45.54969676561201" lon="10.420931892797734"><ele>190.8</ele><time>2026-04-03T07:38:20Z</time></trkpt><trkpt lat="45.54961089936062" lon="10.42101819888066"><ele>191.0</ele><time>2026-04-03T07:38:22Z</time></trkpt><trkpt lat="45.54952218987531" lon="10.421127791025011"><ele>191.0</ele><time>2026-04-03T07:38:24Z</time></trkpt><trkpt lat="45.549429279322624" lon="10.42122821901387"><ele>191.0</ele><time>2026-04-03T07:38:26Z</time></trkpt><trkpt lat="45.54938224960111" lon="10.421289254086558"><ele>191.0</ele><time>2026-04-03T07:38:27.001Z</time></trkpt><trkpt lat="45.54929370779472" lon="10.421404754108707"><ele>191.0</ele><time>2026-04-03T07:38:29.001Z</time></trkpt><trkpt lat="45.549209811755276" lon="10.421513336334266"><ele>191.0</ele><time>2026-04-03T07:38:31.001Z</time></trkpt><trkpt lat="45.54912757623601" lon="10.42161771795404"><ele>191.20000000000002</ele><time>2026-04-03T07:38:33.001Z</time></trkpt><trkpt lat="45.54907879473043" lon="10.421679636463631"><ele>191.4</ele><time>2026-04-03T07:38:34.001Z</time></trkpt><trkpt lat="45.54902755462445" lon="10.421744675586092"><ele>191.6</ele><time>2026-04-03T07:38:35.001Z</time></trkpt><trkpt lat="45.54894901289679" lon="10.421845058583672"><ele>191.8</ele><time>2026-04-03T07:38:37.001Z</time></trkpt><trkpt lat="45.54885714311436" lon="10.421968962083877"><ele>192.0</ele><time>2026-04-03T07:38:39.001Z</time></trkpt><trkpt lat="45.54876776127135" lon="10.422092369390974"><ele>192.0</ele><time>2026-04-03T07:38:41.001Z</time></trkpt><trkpt lat="45.548685543628956" lon="10.4222022147061"><ele>192.0</ele><time>2026-04-03T07:38:43.001Z</time></trkpt><trkpt lat="45.54859472321639" lon="10.422323214683418"><ele>192.0</ele><time>2026-04-03T07:38:45.001Z</time></trkpt><trkpt lat="45.54853400701499" lon="10.422468358838927"><ele>192.0</ele><time>2026-04-03T07:38:47.001Z</time></trkpt><trkpt lat="45.548444477562434" lon="10.422586613923452"><ele>192.0</ele><time>2026-04-03T07:38:49.001Z</time></trkpt><trkpt lat="45.548359227090344" lon="10.422693356764565"><ele>192.0</ele><time>2026-04-03T07:38:51.001Z</time></trkpt><trkpt lat="45.54829800823717" lon="10.422725427557067"><ele>192.0</ele><time>2026-04-03T07:38:52.001Z</time></trkpt><trkpt lat="45.54821263529239" lon="10.422842410041735"><ele>192.0</ele><time>2026-04-03T07:38:54.001Z</time></trkpt><trkpt lat="45.54813209690015" lon="10.422953218134161"><ele>192.0</ele><time>2026-04-03T07:38:56.001Z</time></trkpt><trkpt lat="45.548058159128715" lon="10.423086861134033"><ele>192.16666666666666</ele><time>2026-04-03T07:38:58.001Z</time></trkpt><trkpt lat="45.54800813591521" lon="10.423146074095769"><ele>192.33333333333331</ele><time>2026-04-03T07:38:59.001Z</time></trkpt><trkpt lat="45.54792780793346" lon="10.423235111506104"><ele>192.5</ele><time>2026-04-03T07:39:01.001Z</time></trkpt><trkpt lat="45.547844490703625" lon="10.423353188010903"><ele>192.66666666666666</ele><time>2026-04-03T07:39:03.001Z</time></trkpt><trkpt lat="45.54777575956045" lon="10.423454773202472"><ele>192.83333333333331</ele><time>2026-04-03T07:39:05.001Z</time></trkpt><trkpt lat="45.54773501632883" lon="10.423527696273855"><ele>193.0</ele><time>2026-04-03T07:39:06.001Z</time></trkpt><trkpt lat="45.547673048247475" lon="10.423677790589657"><ele>193.2</ele><time>2026-04-03T07:39:08.001Z</time></trkpt><trkpt lat="45.547623296102515" lon="10.423801586991912"><ele>193.4</ele><time>2026-04-03T07:39:10.001Z</time></trkpt><trkpt lat="45.547564307176636" lon="10.4239451375533"><ele>193.6</ele><time>2026-04-03T07:39:12.001Z</time></trkpt><trkpt lat="45.54750281630716" lon="10.424091048005485"><ele>193.79999999999998</ele><time>2026-04-03T07:39:14.001Z</time></trkpt><trkpt lat="45.54745367721483" lon="10.424205812554048"><ele>194.0</ele><time>2026-04-03T07:39:16.001Z</time></trkpt><trkpt lat="45.547408920172664" lon="10.424308124671951"><ele>194.0</ele><time>2026-04-03T07:39:18.001Z</time></trkpt><trkpt lat="45.54736264852442" lon="10.424407154173139"><ele>194.0</ele><time>2026-04-03T07:39:20.001Z</time></trkpt><trkpt lat="45.54731007523574" lon="10.424517914027136"><ele>194.0</ele><time>2026-04-03T07:39:22.001Z</time></trkpt><trkpt lat="45.5472491449952" lon="10.424652013022435"><ele>194.0</ele><time>2026-04-03T07:39:24.001Z</time></trkpt><trkpt lat="45.54719115050804" lon="10.424819438933044"><ele>194.0</ele><time>2026-04-03T07:39:26.001Z</time></trkpt><trkpt lat="45.54717209619225" lon="10.424915777916725"><ele>194.00000000000003</ele><time>2026-04-03T07:39:27.001Z</time></trkpt><trkpt lat="45.5471838595852" lon="10.425030800189994"><ele>194.0</ele><time>2026-04-03T07:39:28.001Z</time></trkpt><trkpt lat="45.547231090846154" lon="10.42514416308475"><ele>194.0</ele><time>2026-04-03T07:39:29.001Z</time></trkpt><trkpt lat="45.54725312422585" lon="10.42522997116316"><ele>194.0</ele><time>2026-04-03T07:39:30.001Z</time></trkpt><trkpt lat="45.547279041806846" lon="10.42531640103357"><ele>194.00000000000003</ele><time>2026-04-03T07:39:31.001Z</time></trkpt><trkpt lat="45.5472929923447" lon="10.42541601832023"><ele>194.0</ele><time>2026-04-03T07:39:32.001Z</time></trkpt><trkpt lat="45.54720968261535" lon="10.425537659875468"><ele>193.39999999999998</ele><time>2026-04-03T07:39:34.001Z</time></trkpt><trkpt lat="45.547145974055354" lon="10.425689785164577"><ele>192.8</ele><time>2026-04-03T07:39:36.001Z</time></trkpt><trkpt lat="45.54708541426606" lon="10.425831493788285"><ele>192.2</ele><time>2026-04-03T07:39:38Z</time></trkpt><trkpt lat="45.54703037756874" lon="10.425960278787112"><ele>191.60000000000002</ele><time>2026-04-03T07:39:40Z</time></trkpt><trkpt lat="45.54698037786492" lon="10.42608093204808"><ele>191.0</ele><time>2026-04-03T07:39:42Z</time></trkpt><trkpt lat="45.54694474974243" lon="10.426202527026172"><ele>191.0</ele><time>2026-04-03T07:39:44Z</time></trkpt><trkpt lat="45.546899194863244" lon="10.426305129131803"><ele>191.0</ele><time>2026-04-03T07:39:46Z</time></trkpt><trkpt lat="45.54686082264304" lon="10.426406357672668"><ele>191.0</ele><time>2026-04-03T07:39:48Z</time></trkpt><trkpt lat="45.546848831992435" lon="10.426539912270863"><ele>191.0</ele><time>2026-04-03T07:39:50Z</time></trkpt><trkpt lat="45.54689494442853" lon="10.42665576344875"><ele>191.0</ele><time>2026-04-03T07:39:52Z</time></trkpt><trkpt lat="45.54684357619232" lon="10.426783647253792"><ele>190.66666666666666</ele><time>2026-04-03T07:39:54Z</time></trkpt><trkpt lat="45.54681931477959" lon="10.426869408761572"><ele>190.33333333333331</ele><time>2026-04-03T07:39:56Z</time></trkpt><trkpt lat="45.54687678209794" lon="10.426934886631853"><ele>190.0</ele><time>2026-04-03T07:39:59Z</time></trkpt><trkpt lat="45.54680212062958" lon="10.42688751986791"><ele>189.66666666666666</ele><time>2026-04-03T07:40:39Z</time></trkpt><trkpt lat="45.54672091507802" lon="10.426817833570032"><ele>189.33333333333334</ele><time>2026-04-03T07:40:42Z</time></trkpt><trkpt lat="45.54663425854911" lon="10.426763814762458"><ele>189.0</ele><time>2026-04-03T07:40:44Z</time></trkpt><trkpt lat="45.54657308394361" lon="10.426724418187945"><ele>189.0</ele><time>2026-04-03T07:40:45Z</time></trkpt><trkpt lat="45.54647441737234" lon="10.426648990210454"><ele>189.0</ele><time>2026-04-03T07:40:47Z</time></trkpt><trkpt lat="45.54638443773368" lon="10.426596421636708"><ele>189.0</ele><time>2026-04-03T07:40:49Z</time></trkpt><trkpt lat="45.54629203280792" lon="10.426492575319024"><ele>189.0</ele><time>2026-04-03T07:40:51Z</time></trkpt><trkpt lat="45.5461784903367" lon="10.426411319573573"><ele>189.0</ele><time>2026-04-03T07:40:53Z</time></trkpt><trkpt lat="45.54613095843233" lon="10.426338456829194"><ele>189.0</ele><time>2026-04-03T07:40:54Z</time></trkpt><trkpt lat="45.546070516547374" lon="10.426309680442584"><ele>189.0</ele><time>2026-04-03T07:40:55Z</time></trkpt><trkpt lat="45.546007887091776" lon="10.426265020370629"><ele>189.0</ele><time>2026-04-03T07:40:56Z</time></trkpt><trkpt lat="45.54594635690006" lon="10.426227277070222"><ele>189.0</ele><time>2026-04-03T07:40:57Z</time></trkpt><trkpt lat="45.54588227358848" lon="10.426183142369785"><ele>189.0</ele><time>2026-04-03T07:40:58Z</time></trkpt><trkpt lat="45.5458237338144" lon="10.426133260560368"><ele>189.0</ele><time>2026-04-03T07:40:59Z</time></trkpt><trkpt lat="45.54576714503858" lon="10.426088428949736"><ele>189.0</ele><time>2026-04-03T07:41:00Z</time></trkpt><trkpt lat="45.545657252972084" lon="10.426003738539544"><ele>189.0</ele><time>2026-04-03T07:41:02Z</time></trkpt><trkpt lat="45.545595603617286" lon="10.4259582219436"><ele>189.0</ele><time>2026-04-03T07:41:03Z</time></trkpt><trkpt lat="45.54554180396931" lon="10.425898283865989"><ele>189.0</ele><time>2026-04-03T07:41:04Z</time></trkpt><trkpt lat="45.54548648288637" lon="10.425844683162637"><ele>189.0</ele><time>2026-04-03T07:41:05Z</time></trkpt><trkpt lat="45.545420634983586" lon="10.42580075830433"><ele>189.0</ele><time>2026-04-03T07:41:06Z</time></trkpt><trkpt lat="45.54529932123828" lon="10.425713870932354"><ele>188.0</ele><time>2026-04-03T07:41:08Z</time></trkpt><trkpt lat="45.5451913944498" lon="10.425636772452291"><ele>187.0</ele><time>2026-04-03T07:41:10Z</time></trkpt><trkpt lat="45.54508921021454" lon="10.425543213708373"><ele>186.0</ele><time>2026-04-03T07:41:12Z</time></trkpt><trkpt lat="45.5449861379696" lon="10.425456419062474"><ele>185.0</ele><time>2026-04-03T07:41:14Z</time></trkpt><trkpt lat="45.54480947561115" lon="10.425477911149132"><ele>185.0</ele><time>2026-04-03T07:41:16Z</time></trkpt><trkpt lat="45.54470856365856" lon="10.425361059800307"><ele>185.0</ele><time>2026-04-03T07:41:18Z</time></trkpt><trkpt lat="45.54465430845648" lon="10.42530003980212"><ele>185.0</ele><time>2026-04-03T07:41:19Z</time></trkpt><trkpt lat="45.544603259751064" lon="10.425242628395361"><ele>185.0</ele><time>2026-04-03T07:41:20Z</time></trkpt><trkpt lat="45.544551382452354" lon="10.425184286415675"><ele>185.0</ele><time>2026-04-03T07:41:21Z</time></trkpt><trkpt lat="45.54449496694946" lon="10.425120840706333"><ele>185.0</ele><time>2026-04-03T07:41:22Z</time></trkpt><trkpt lat="45.544445071490635" lon="10.42506472753027"><ele>184.99999999999997</ele><time>2026-04-03T07:41:23Z</time></trkpt><trkpt lat="45.54440945647171" lon="10.424988382219512"><ele>185.0</ele><time>2026-04-03T07:41:24Z</time></trkpt><trkpt lat="45.544345065631504" lon="10.424933864462478"><ele>185.0</ele><time>2026-04-03T07:41:25Z</time></trkpt><trkpt lat="45.54428120982222" lon="10.424879267550121"><ele>185.0</ele><time>2026-04-03T07:41:26Z</time></trkpt><trkpt lat="45.544221620382025" lon="10.424823592045337"><ele>185.0</ele><time>2026-04-03T07:41:27Z</time></trkpt><trkpt lat="45.54415756706599" lon="10.424784959766665"><ele>184.99999999999997</ele><time>2026-04-03T07:41:28Z</time></trkpt><trkpt lat="45.54409434176503" lon="10.42473298811677"><ele>185.0</ele><time>2026-04-03T07:41:29Z</time></trkpt><trkpt lat="45.54403145229683" lon="10.424683961396441"><ele>184.83333333333331</ele><time>2026-04-03T07:41:30Z</time></trkpt><trkpt lat="45.54397174899424" lon="10.424635298926132"><ele>184.66666666666666</ele><time>2026-04-03T07:41:31Z</time></trkpt><trkpt lat="45.54391039751197" lon="10.424584920021035"><ele>184.5</ele><time>2026-04-03T07:41:32Z</time></trkpt><trkpt lat="45.54385299075466" lon="10.424536054882802"><ele>184.33333333333334</ele><time>2026-04-03T07:41:33Z</time></trkpt><trkpt lat="45.54370668154333" lon="10.424622806754307"><ele>184.16666666666669</ele><time>2026-04-03T07:41:34Z</time></trkpt><trkpt lat="45.54365102552205" lon="10.424558098001393"><ele>184.0</ele><time>2026-04-03T07:41:35Z</time></trkpt><trkpt lat="45.54359826826963" lon="10.424496759746097"><ele>183.71428571428572</ele><time>2026-04-03T07:41:36Z</time></trkpt><trkpt lat="45.54354489211204" lon="10.424434701660893"><ele>183.42857142857142</ele><time>2026-04-03T07:41:37Z</time></trkpt><trkpt lat="45.543491832490936" lon="10.424373011770882"><ele>183.14285714285714</ele><time>2026-04-03T07:41:38Z</time></trkpt><trkpt lat="45.543439080193124" lon="10.424311679040255"><ele>182.85714285714286</ele><time>2026-04-03T07:41:39Z</time></trkpt><trkpt lat="45.543388103730386" lon="10.424252411165304"><ele>182.57142857142856</ele><time>2026-04-03T07:41:40Z</time></trkpt><trkpt lat="45.54333782139389" lon="10.424193950267817"><ele>182.28571428571428</ele><time>2026-04-03T07:41:41Z</time></trkpt><trkpt lat="45.54328347757233" lon="10.424130430916748"><ele>182.0</ele><time>2026-04-03T07:41:42Z</time></trkpt><trkpt lat="45.54322863064683" lon="10.424066216159014"><ele>182.0</ele><time>2026-04-03T07:41:43Z</time></trkpt><trkpt lat="45.54317704649379" lon="10.424005821409045"><ele>182.0</ele><time>2026-04-03T07:41:44Z</time></trkpt><trkpt lat="45.54312439709005" lon="10.42394417953296"><ele>182.0</ele><time>2026-04-03T07:41:45Z</time></trkpt><trkpt lat="45.543070328846355" lon="10.423880876259242"><ele>182.0</ele><time>2026-04-03T07:41:46Z</time></trkpt><trkpt lat="45.54301717159044" lon="10.423818639856455"><ele>182.0</ele><time>2026-04-03T07:41:47Z</time></trkpt><trkpt lat="45.542962144646765" lon="10.423754214386971"><ele>182.0</ele><time>2026-04-03T07:41:48Z</time></trkpt><trkpt lat="45.54291244007914" lon="10.423696020181104"><ele>182.0</ele><time>2026-04-03T07:41:49Z</time></trkpt><trkpt lat="45.54286019858169" lon="10.423634855985297"><ele>182.28571428571428</ele><time>2026-04-03T07:41:50Z</time></trkpt><trkpt lat="45.54280518900697" lon="10.423570450706434"><ele>182.57142857142856</ele><time>2026-04-03T07:41:51Z</time></trkpt><trkpt lat="45.54275094528647" lon="10.423506942126584"><ele>182.85714285714286</ele><time>2026-04-03T07:41:52Z</time></trkpt><trkpt lat="45.542697915089946" lon="10.42344485440046"><ele>183.14285714285714</ele><time>2026-04-03T07:41:53Z</time></trkpt><trkpt lat="45.54264091635703" lon="10.42337812029821"><ele>183.42857142857142</ele><time>2026-04-03T07:41:54Z</time></trkpt><trkpt lat="45.54258899153949" lon="10.4233173267054"><ele>183.71428571428572</ele><time>2026-04-03T07:41:55Z</time></trkpt><trkpt lat="45.54253346777138" lon="10.423252319405954"><ele>184.0</ele><time>2026-04-03T07:41:56Z</time></trkpt><trkpt lat="45.54247752678047" lon="10.423186007328232"><ele>184.0</ele><time>2026-04-03T07:41:57Z</time></trkpt><trkpt lat="45.54242565529135" lon="10.42312441524241"><ele>184.0</ele><time>2026-04-03T07:41:58Z</time></trkpt><trkpt lat="45.54237060446397" lon="10.423059047809117"><ele>184.0</ele><time>2026-04-03T07:41:59Z</time></trkpt><trkpt lat="45.54231567459254" lon="10.422992777970304"><ele>184.0</ele><time>2026-04-03T07:42:00Z</time></trkpt><trkpt lat="45.542260806601554" lon="10.422925565856685"><ele>184.0</ele><time>2026-04-03T07:42:01Z</time></trkpt><trkpt lat="45.54220706494599" lon="10.422859733507243"><ele>184.0</ele><time>2026-04-03T07:42:02Z</time></trkpt><trkpt lat="45.54215357736908" lon="10.422794365002854"><ele>184.0</ele><time>2026-04-03T07:42:03Z</time></trkpt><trkpt lat="45.542098528299476" lon="10.422727265364845"><ele>183.85714285714286</ele><time>2026-04-03T07:42:04Z</time></trkpt><trkpt lat="45.542045443554294" lon="10.42266256010533"><ele>183.7142857142857</ele><time>2026-04-03T07:42:05Z</time></trkpt><trkpt lat="45.54199083062794" lon="10.42259599218736"><ele>183.57142857142856</ele><time>2026-04-03T07:42:06Z</time></trkpt><trkpt lat="45.5419365846754" lon="10.42252987149651"><ele>183.42857142857144</ele><time>2026-04-03T07:42:07Z</time></trkpt><trkpt lat="45.541883716769696" lon="10.422465430553313"><ele>183.28571428571428</ele><time>2026-04-03T07:42:08Z</time></trkpt><trkpt lat="45.541828888492724" lon="10.422398600071068"><ele>183.14285714285714</ele><time>2026-04-03T07:42:09Z</time></trkpt><trkpt lat="45.541774040422766" lon="10.422331745371999"><ele>183.0</ele><time>2026-04-03T07:42:10Z</time></trkpt><trkpt lat="45.54171907678523" lon="10.422264750137535"><ele>183.0</ele><time>2026-04-03T07:42:11Z</time></trkpt><trkpt lat="45.541664735127014" lon="10.422198512742764"><ele>183.0</ele><time>2026-04-03T07:42:12Z</time></trkpt><trkpt lat="45.541610233007944" lon="10.422132079845019"><ele>183.0</ele><time>2026-04-03T07:42:13Z</time></trkpt><trkpt lat="45.541555791882345" lon="10.422065721235942"><ele>183.0</ele><time>2026-04-03T07:42:14Z</time></trkpt><trkpt lat="45.54150351987032" lon="10.422002006697891"><ele>183.0</ele><time>2026-04-03T07:42:15Z</time></trkpt><trkpt lat="45.54145178382141" lon="10.421938945337592"><ele>183.0</ele><time>2026-04-03T07:42:16Z</time></trkpt><trkpt lat="45.54136212977868" lon="10.421798877017315"><ele>183.0</ele><time>2026-04-03T07:42:18Z</time></trkpt><trkpt lat="45.541307180027026" lon="10.421735927997807"><ele>183.0</ele><time>2026-04-03T07:42:19Z</time></trkpt><trkpt lat="45.541243294384266" lon="10.421684328915934"><ele>183.0</ele><time>2026-04-03T07:42:20Z</time></trkpt><trkpt lat="45.541198261194374" lon="10.421603702645253"><ele>183.0</ele><time>2026-04-03T07:42:21Z</time></trkpt><trkpt lat="45.54114466162476" lon="10.421538453132793"><ele>183.0</ele><time>2026-04-03T07:42:22Z</time></trkpt><trkpt lat="45.54109030486115" lon="10.421478587176702"><ele>183.0</ele><time>2026-04-03T07:42:23Z</time></trkpt><trkpt lat="45.54104205778324" lon="10.421411220739666"><ele>183.0</ele><time>2026-04-03T07:42:24Z</time></trkpt><trkpt lat="45.540986188556964" lon="10.421345453296714"><ele>183.14285714285714</ele><time>2026-04-03T07:42:25Z</time></trkpt><trkpt lat="45.54093101957154" lon="10.421280670650084"><ele>183.28571428571428</ele><time>2026-04-03T07:42:26Z</time></trkpt><trkpt lat="45.540875689209145" lon="10.42121596463611"><ele>183.42857142857144</ele><time>2026-04-03T07:42:27Z</time></trkpt><trkpt lat="45.54082392489994" lon="10.42114911135298"><ele>183.57142857142856</ele><time>2026-04-03T07:42:28Z</time></trkpt><trkpt lat="45.54077016039519" lon="10.421087835700439"><ele>183.7142857142857</ele><time>2026-04-03T07:42:29Z</time></trkpt><trkpt lat="45.540718511361646" lon="10.42101921706641"><ele>183.85714285714286</ele><time>2026-04-03T07:42:30Z</time></trkpt><trkpt lat="45.54066567765358" lon="10.420959756157618"><ele>184.0</ele><time>2026-04-03T07:42:31Z</time></trkpt><trkpt lat="45.54061106827843" lon="10.420894947491247"><ele>184.0</ele><time>2026-04-03T07:42:32Z</time></trkpt><trkpt lat="45.54056189393824" lon="10.42083009244384"><ele>184.0</ele><time>2026-04-03T07:42:33Z</time></trkpt><trkpt lat="45.54051307165044" lon="10.420765886508843"><ele>184.0</ele><time>2026-04-03T07:42:34Z</time></trkpt><trkpt lat="45.5404599560943" lon="10.420709430381962"><ele>184.0</ele><time>2026-04-03T07:42:35Z</time></trkpt><trkpt lat="45.54041046594652" lon="10.420653082678706"><ele>184.0</ele><time>2026-04-03T07:42:36Z</time></trkpt><trkpt lat="45.54035623156733" lon="10.420584663078428"><ele>184.0</ele><time>2026-04-03T07:42:37Z</time></trkpt><trkpt lat="45.540303864590875" lon="10.420521081485214"><ele>184.0</ele><time>2026-04-03T07:42:38Z</time></trkpt><trkpt lat="45.54025194887487" lon="10.420455485288906"><ele>183.71428571428572</ele><time>2026-04-03T07:42:39Z</time></trkpt><trkpt lat="45.540199305349" lon="10.420400121045615"><ele>183.42857142857142</ele><time>2026-04-03T07:42:40Z</time></trkpt><trkpt lat="45.540144604462014" lon="10.420341657439243"><ele>183.14285714285714</ele><time>2026-04-03T07:42:41Z</time></trkpt><trkpt lat="45.540093933690365" lon="10.42027971833745"><ele>182.85714285714286</ele><time>2026-04-03T07:42:42Z</time></trkpt><trkpt lat="45.54003948448968" lon="10.420216297821785"><ele>182.57142857142856</ele><time>2026-04-03T07:42:43Z</time></trkpt><trkpt lat="45.53999121585315" lon="10.420153221758474"><ele>182.28571428571428</ele><time>2026-04-03T07:42:44Z</time></trkpt><trkpt lat="45.539949094525376" lon="10.420080993409993"><ele>182.0</ele><time>2026-04-03T07:42:45Z</time></trkpt><trkpt lat="45.539897732534286" lon="10.420012735801144"><ele>182.0</ele><time>2026-04-03T07:42:46Z</time></trkpt><trkpt lat="45.539839686817395" lon="10.419947012769725"><ele>182.0</ele><time>2026-04-03T07:42:47Z</time></trkpt><trkpt lat="45.53978638241677" lon="10.419888177402033"><ele>182.0</ele><time>2026-04-03T07:42:48Z</time></trkpt><trkpt lat="45.53973214613545" lon="10.419826389974034"><ele>182.0</ele><time>2026-04-03T07:42:49Z</time></trkpt><trkpt lat="45.53967921677721" lon="10.419766748226273"><ele>182.0</ele><time>2026-04-03T07:42:50Z</time></trkpt><trkpt lat="45.53962710014788" lon="10.419702589543904"><ele>182.0</ele><time>2026-04-03T07:42:51Z</time></trkpt><trkpt lat="45.53957439529901" lon="10.419640983044998"><ele>182.0</ele><time>2026-04-03T07:42:52Z</time></trkpt><trkpt lat="45.53952325456029" lon="10.419570990932547"><ele>182.28571428571428</ele><time>2026-04-03T07:42:53Z</time></trkpt><trkpt lat="45.53946892143815" lon="10.419502341134681"><ele>182.57142857142856</ele><time>2026-04-03T07:42:54Z</time></trkpt><trkpt lat="45.53941921396895" lon="10.419432268768116"><ele>182.85714285714286</ele><time>2026-04-03T07:42:55Z</time></trkpt><trkpt lat="45.53937156274174" lon="10.419360046637497"><ele>183.14285714285714</ele><time>2026-04-03T07:42:56Z</time></trkpt><trkpt lat="45.53932116596763" lon="10.419283648335496"><ele>183.42857142857142</ele><time>2026-04-03T07:42:57Z</time></trkpt><trkpt lat="45.53927367872119" lon="10.419210130517996"><ele>183.71428571428572</ele><time>2026-04-03T07:42:58Z</time></trkpt><trkpt lat="45.53923488548771" lon="10.419128616167685"><ele>184.0</ele><time>2026-04-03T07:42:59Z</time></trkpt><trkpt lat="45.53919968761331" lon="10.419040601028232"><ele>184.0</ele><time>2026-04-03T07:43:00Z</time></trkpt><trkpt lat="45.53914170029423" lon="10.418984851263488"><ele>184.0</ele><time>2026-04-03T07:43:01Z</time></trkpt><trkpt lat="45.539094808524666" lon="10.418914556194837"><ele>184.0</ele><time>2026-04-03T07:43:02Z</time></trkpt><trkpt lat="45.539046500139" lon="10.418842137901242"><ele>184.0</ele><time>2026-04-03T07:43:03Z</time></trkpt><trkpt lat="45.53900102397648" lon="10.418773809557637"><ele>184.0</ele><time>2026-04-03T07:43:04Z</time></trkpt><trkpt lat="45.53895570976395" lon="10.418705593319533"><ele>184.0</ele><time>2026-04-03T07:43:05Z</time></trkpt><trkpt lat="45.53891137933248" lon="10.418638858164174"><ele>184.0</ele><time>2026-04-03T07:43:06Z</time></trkpt><trkpt lat="45.53886024982108" lon="10.41856110381466"><ele>183.71428571428572</ele><time>2026-04-03T07:43:07Z</time></trkpt><trkpt lat="45.538817042457666" lon="10.418494834920226"><ele>183.42857142857142</ele><time>2026-04-03T07:43:08Z</time></trkpt><trkpt lat="45.53876739233006" lon="10.418418684616626"><ele>183.14285714285714</ele><time>2026-04-03T07:43:09Z</time></trkpt><trkpt lat="45.5387225189264" lon="10.41834986052584"><ele>182.85714285714286</ele><time>2026-04-03T07:43:10Z</time></trkpt><trkpt lat="45.53867604559452" lon="10.418278582478546"><ele>182.57142857142856</ele><time>2026-04-03T07:43:11Z</time></trkpt><trkpt lat="45.53863205385467" lon="10.41821111063456"><ele>182.28571428571428</ele><time>2026-04-03T07:43:12Z</time></trkpt><trkpt lat="45.5385857082415" lon="10.418140028470756"><ele>182.0</ele><time>2026-04-03T07:43:13Z</time></trkpt><trkpt lat="45.538496916868965" lon="10.41800384563057"><ele>181.83333333333331</ele><time>2026-04-03T07:43:15Z</time></trkpt><trkpt lat="45.53840917729578" lon="10.417869276034187"><ele>181.66666666666666</ele><time>2026-04-03T07:43:17Z</time></trkpt><trkpt lat="45.53836513539974" lon="10.417801727163752"><ele>181.5</ele><time>2026-04-03T07:43:18Z</time></trkpt><trkpt lat="45.53831892349962" lon="10.417730850296877"><ele>181.33333333333334</ele><time>2026-04-03T07:43:19Z</time></trkpt><trkpt lat="45.53827493273977" lon="10.417663379722395"><ele>181.16666666666669</ele><time>2026-04-03T07:43:20Z</time></trkpt><trkpt lat="45.53822708205631" lon="10.417589989247686"><ele>181.0</ele><time>2026-04-03T07:43:21Z</time></trkpt><trkpt lat="45.53818054835753" lon="10.417518583941456"><ele>181.0</ele><time>2026-04-03T07:43:22Z</time></trkpt><trkpt lat="45.53813467399426" lon="10.417448160203271"><ele>181.0</ele><time>2026-04-03T07:43:23Z</time></trkpt><trkpt lat="45.538087517539225" lon="10.417375768232262"><ele>181.0</ele><time>2026-04-03T07:43:24Z</time></trkpt><trkpt lat="45.53799807477908" lon="10.417238460774076"><ele>181.0</ele><time>2026-04-03T07:43:26Z</time></trkpt><trkpt lat="45.5379452308801" lon="10.417157386652079"><ele>181.0</ele><time>2026-04-03T07:43:27Z</time></trkpt><trkpt lat="45.5379011214513" lon="10.417088415011767"><ele>181.0</ele><time>2026-04-03T07:43:28Z</time></trkpt><trkpt lat="45.53781392885382" lon="10.41695207672459"><ele>181.4</ele><time>2026-04-03T07:43:30Z</time></trkpt><trkpt lat="45.53776227212865" lon="10.416869293667784"><ele>181.8</ele><time>2026-04-03T07:43:31Z</time></trkpt><trkpt lat="45.53771800241402" lon="10.416796464176814"><ele>182.20000000000002</ele><time>2026-04-03T07:43:32Z</time></trkpt><trkpt lat="45.53763236534708" lon="10.416654242846413"><ele>182.60000000000002</ele><time>2026-04-03T07:43:34Z</time></trkpt><trkpt lat="45.53758625188957" lon="10.416572917558186"><ele>183.0</ele><time>2026-04-03T07:43:35Z</time></trkpt><trkpt lat="45.53750627589385" lon="10.41641611209871"><ele>182.8</ele><time>2026-04-03T07:43:37Z</time></trkpt><trkpt lat="45.53744106141157" lon="10.416273153159972"><ele>182.60000000000002</ele><time>2026-04-03T07:43:39Z</time></trkpt><trkpt lat="45.537398736563766" lon="10.416175139131827"><ele>182.39999999999998</ele><time>2026-04-03T07:43:40Z</time></trkpt><trkpt lat="45.53736206040844" lon="10.416079672567305"><ele>182.2</ele><time>2026-04-03T07:43:41Z</time></trkpt><trkpt lat="45.537313364823525" lon="10.415935274151042"><ele>182.0</ele><time>2026-04-03T07:43:43Z</time></trkpt><trkpt lat="45.53726964262141" lon="10.415791666639837"><ele>182.0</ele><time>2026-04-03T07:43:45Z</time></trkpt><trkpt lat="45.53722726992928" lon="10.415645478547972"><ele>182.0</ele><time>2026-04-03T07:43:47Z</time></trkpt><trkpt lat="45.53720392783171" lon="10.415561499648083"><ele>182.0</ele><time>2026-04-03T07:43:48Z</time></trkpt><trkpt lat="45.53717314441771" lon="10.415443651594584"><ele>182.0</ele><time>2026-04-03T07:43:49Z</time></trkpt><trkpt lat="45.537149185716004" lon="10.415332469134997"><ele>182.0</ele><time>2026-04-03T07:43:50Z</time></trkpt><trkpt lat="45.53713021004049" lon="10.41522339983899"><ele>182.0</ele><time>2026-04-03T07:43:51Z</time></trkpt><trkpt lat="45.53711548022151" lon="10.415129152376485"><ele>181.75</ele><time>2026-04-03T07:43:52Z</time></trkpt><trkpt lat="45.53708993628572" lon="10.41495298208731"><ele>181.5</ele><time>2026-04-03T07:43:54Z</time></trkpt><trkpt lat="45.53707095142814" lon="10.414784132265739"><ele>181.25</ele><time>2026-04-03T07:43:56Z</time></trkpt><trkpt lat="45.537054665618136" lon="10.41462442991444"><ele>181.0</ele><time>2026-04-03T07:43:58Z</time></trkpt><trkpt lat="45.53703730409349" lon="10.414454077423105"><ele>181.0</ele><time>2026-04-03T07:44:00Z</time></trkpt><trkpt lat="45.53702048455036" lon="10.414289042706887"><ele>181.0</ele><time>2026-04-03T07:44:02Z</time></trkpt><trkpt lat="45.53700289529434" lon="10.414116455773886"><ele>181.0</ele><time>2026-04-03T07:44:04Z</time></trkpt><trkpt lat="45.536993740300375" lon="10.414026626355863"><ele>181.0</ele><time>2026-04-03T07:44:05Z</time></trkpt><trkpt lat="45.53697630832823" lon="10.413855582517625"><ele>181.0</ele><time>2026-04-03T07:44:07Z</time></trkpt><trkpt lat="45.53695890641409" lon="10.413684539182528"><ele>181.0</ele><time>2026-04-03T07:44:09Z</time></trkpt><trkpt lat="45.536949732741256" lon="10.413592171990723"><ele>181.0</ele><time>2026-04-03T07:44:10Z</time></trkpt><trkpt lat="45.53694087533994" lon="10.413502989104613"><ele>181.0</ele><time>2026-04-03T07:44:11Z</time></trkpt><trkpt lat="45.53693201853888" lon="10.413413812374142"><ele>181.0</ele><time>2026-04-03T07:44:12Z</time></trkpt><trkpt lat="45.536915031524565" lon="10.413242774506097"><ele>181.0</ele><time>2026-04-03T07:44:14Z</time></trkpt><trkpt lat="45.5368976950616" lon="10.413075118297835"><ele>181.0</ele><time>2026-04-03T07:44:16Z</time></trkpt><trkpt lat="45.53687926208596" lon="10.412905731586605"><ele>180.8</ele><time>2026-04-03T07:44:18Z</time></trkpt><trkpt lat="45.53685930312984" lon="10.41273349997533"><ele>180.60000000000002</ele><time>2026-04-03T07:44:20Z</time></trkpt><trkpt lat="45.536847629221896" lon="10.412632762606838"><ele>180.4</ele><time>2026-04-03T07:44:21Z</time></trkpt><trkpt lat="45.536828658278935" lon="10.412480806612816"><ele>180.2</ele><time>2026-04-03T07:44:23Z</time></trkpt><trkpt lat="45.536816467834306" lon="10.412389146473483"><ele>180.0</ele><time>2026-04-03T07:44:24Z</time></trkpt><trkpt lat="45.53679024809675" lon="10.412204898168904"><ele>179.66666666666666</ele><time>2026-04-03T07:44:26Z</time></trkpt><trkpt lat="45.53677563501086" lon="10.412115486879312"><ele>179.33333333333334</ele><time>2026-04-03T07:44:27Z</time></trkpt><trkpt lat="45.536745321762304" lon="10.411946785572317"><ele>179.0</ele><time>2026-04-03T07:44:29Z</time></trkpt><trkpt lat="45.53672708766212" lon="10.411854491255989"><ele>178.66666666666669</ele><time>2026-04-03T07:44:30Z</time></trkpt><trkpt lat="45.53670413571352" lon="10.411749148154332"><ele>178.33333333333334</ele><time>2026-04-03T07:44:31Z</time></trkpt><trkpt lat="45.53668130683117" lon="10.41164692937768"><ele>178.0</ele><time>2026-04-03T07:44:32Z</time></trkpt><trkpt lat="45.53665915976178" lon="10.411553491231999"><ele>178.0</ele><time>2026-04-03T07:44:33Z</time></trkpt><trkpt lat="45.53663883129374" lon="10.41146792633533"><ele>178.0</ele><time>2026-04-03T07:44:34Z</time></trkpt><trkpt lat="45.53659661308247" lon="10.411300125033344"><ele>178.0</ele><time>2026-04-03T07:44:36Z</time></trkpt><trkpt lat="45.53657172342857" lon="10.411207652953994"><ele>178.0</ele><time>2026-04-03T07:44:37Z</time></trkpt><trkpt lat="45.53654867927734" lon="10.411122714332384"><ele>178.0</ele><time>2026-04-03T07:44:38Z</time></trkpt><trkpt lat="45.5365210070855" lon="10.4110229698521"><ele>178.0</ele><time>2026-04-03T07:44:39Z</time></trkpt><trkpt lat="45.5364972588657" lon="10.410938209601705"><ele>178.0</ele><time>2026-04-03T07:44:40Z</time></trkpt><trkpt lat="45.53645043413267" lon="10.410780916992023"><ele>178.0</ele><time>2026-04-03T07:44:42Z</time></trkpt><trkpt lat="45.536417911747826" lon="10.410684991176185"><ele>178.0</ele><time>2026-04-03T07:44:43Z</time></trkpt><trkpt lat="45.53637128921907" lon="10.410504457107395"><ele>178.0</ele><time>2026-04-03T07:44:45Z</time></trkpt><trkpt lat="45.536308971909406" lon="10.41037225100934"><ele>178.0</ele><time>2026-04-03T07:44:47Z</time></trkpt><trkpt lat="45.536274480310084" lon="10.41027629233483"><ele>178.0</ele><time>2026-04-03T07:44:48Z</time></trkpt><trkpt lat="45.53624227794378" lon="10.410197346985102"><ele>178.0</ele><time>2026-04-03T07:44:49Z</time></trkpt><trkpt lat="45.53620668112585" lon="10.410108755735054"><ele>178.0</ele><time>2026-04-03T07:44:50Z</time></trkpt><trkpt lat="45.5361660018275" lon="10.410011698768324"><ele>178.0</ele><time>2026-04-03T07:44:51Z</time></trkpt><trkpt lat="45.53614431789345" lon="10.409917745830615"><ele>178.0</ele><time>2026-04-03T07:44:52Z</time></trkpt><trkpt lat="45.53608855696816" lon="10.409833858286143"><ele>178.0</ele><time>2026-04-03T07:44:53Z</time></trkpt><trkpt lat="45.53602339434021" lon="10.409683397326601"><ele>178.0</ele><time>2026-04-03T07:44:55Z</time></trkpt><trkpt lat="45.53597604663979" lon="10.409613123233697"><ele>178.0</ele><time>2026-04-03T07:44:56Z</time></trkpt><trkpt lat="45.535910920210235" lon="10.4094270224965"><ele>178.0</ele><time>2026-04-03T07:44:58Z</time></trkpt><trkpt lat="45.53588595338926" lon="10.409331655739596"><ele>178.0</ele><time>2026-04-03T07:44:59Z</time></trkpt><trkpt lat="45.53583588162149" lon="10.409261917018961"><ele>178.0</ele><time>2026-04-03T07:45:00Z</time></trkpt><trkpt lat="45.53576789447135" lon="10.409108989570303"><ele>178.0</ele><time>2026-04-03T07:45:02Z</time></trkpt><trkpt lat="45.535728610950876" lon="10.409020626969648"><ele>178.0</ele><time>2026-04-03T07:45:03Z</time></trkpt><trkpt lat="45.53565796227065" lon="10.408861712868832"><ele>178.0</ele><time>2026-04-03T07:45:05Z</time></trkpt><trkpt lat="45.53562172384958" lon="10.408780199669536"><ele>178.0</ele><time>2026-04-03T07:45:06Z</time></trkpt><trkpt lat="45.53557874838147" lon="10.408683573735702"><ele>178.0</ele><time>2026-04-03T07:45:07Z</time></trkpt><trkpt lat="45.535541489542204" lon="10.408599936323998"><ele>178.0</ele><time>2026-04-03T07:45:08Z</time></trkpt><trkpt lat="45.53550149171351" lon="10.408510150406206"><ele>177.99999999999997</ele><time>2026-04-03T07:45:09Z</time></trkpt><trkpt lat="45.535463506538434" lon="10.408424882242503"><ele>178.0</ele><time>2026-04-03T07:45:10Z</time></trkpt><trkpt lat="45.535423990038026" lon="10.408336177347747"><ele>178.0</ele><time>2026-04-03T07:45:11Z</time></trkpt><trkpt lat="45.53538728153065" lon="10.408253774855728"><ele>178.0</ele><time>2026-04-03T07:45:12Z</time></trkpt><trkpt lat="45.535348203729406" lon="10.408166053753854"><ele>178.0</ele><time>2026-04-03T07:45:13Z</time></trkpt><trkpt lat="45.53531103342047" lon="10.408082615289276"><ele>177.99999999999997</ele><time>2026-04-03T07:45:14Z</time></trkpt><trkpt lat="45.53527244454391" lon="10.407994342557668"><ele>178.0</ele><time>2026-04-03T07:45:15Z</time></trkpt><trkpt lat="45.535240296470874" lon="10.40790710680676"><ele>177.83333333333334</ele><time>2026-04-03T07:45:16Z</time></trkpt><trkpt lat="45.53518461576957" lon="10.407836964641971"><ele>177.66666666666669</ele><time>2026-04-03T07:45:17Z</time></trkpt><trkpt lat="45.53513103930615" lon="10.40776970711923"><ele>177.5</ele><time>2026-04-03T07:45:18Z</time></trkpt><trkpt lat="45.53508817568896" lon="10.407702893320362"><ele>177.33333333333334</ele><time>2026-04-03T07:45:19Z</time></trkpt><trkpt lat="45.53505200373821" lon="10.40762520317126"><ele>177.16666666666666</ele><time>2026-04-03T07:45:20Z</time></trkpt><trkpt lat="45.53498957075458" lon="10.407470155690849"><ele>177.0</ele><time>2026-04-03T07:45:22Z</time></trkpt><trkpt lat="45.53495407133969" lon="10.40739078205261"><ele>177.0</ele><time>2026-04-03T07:45:23Z</time></trkpt><trkpt lat="45.53492380265333" lon="10.407303344333492"><ele>177.0</ele><time>2026-04-03T07:45:24Z</time></trkpt><trkpt lat="45.53489231714521" lon="10.407216445039568"><ele>177.0</ele><time>2026-04-03T07:45:25Z</time></trkpt><trkpt lat="45.53485991492207" lon="10.407135334942007"><ele>177.0</ele><time>2026-04-03T07:45:26Z</time></trkpt><trkpt lat="45.53482946294721" lon="10.4070524949396"><ele>177.0</ele><time>2026-04-03T07:45:27Z</time></trkpt><trkpt lat="45.53480284571184" lon="10.406957688880663"><ele>177.0</ele><time>2026-04-03T07:45:28Z</time></trkpt><trkpt lat="45.53478087069816" lon="10.40686742416155"><ele>177.0</ele><time>2026-04-03T07:45:29Z</time></trkpt><trkpt lat="45.53475439063759" lon="10.406776875660126"><ele>177.0</ele><time>2026-04-03T07:45:30Z</time></trkpt><trkpt lat="45.53472281329324" lon="10.406695187868236"><ele>177.0</ele><time>2026-04-03T07:45:31Z</time></trkpt><trkpt lat="45.53468114376388" lon="10.406609235197802"><ele>177.0</ele><time>2026-04-03T07:45:32Z</time></trkpt><trkpt lat="45.534643752968684" lon="10.406520095558738"><ele>177.0</ele><time>2026-04-03T07:45:33Z</time></trkpt><trkpt lat="45.53460603249857" lon="10.40642910201925"><ele>177.0</ele><time>2026-04-03T07:45:34Z</time></trkpt><trkpt lat="45.53456942189457" lon="10.406332321291005"><ele>177.0</ele><time>2026-04-03T07:45:35Z</time></trkpt><trkpt lat="45.53453271383797" lon="10.4062397507"><ele>177.0</ele><time>2026-04-03T07:45:36Z</time></trkpt><trkpt lat="45.534494456982095" lon="10.406144433039751"><ele>176.85714285714286</ele><time>2026-04-03T07:45:37Z</time></trkpt><trkpt lat="45.534458476333164" lon="10.406049207082493"><ele>176.7142857142857</ele><time>2026-04-03T07:45:38Z</time></trkpt><trkpt lat="45.534426911477574" lon="10.405952300682852"><ele>176.57142857142856</ele><time>2026-04-03T07:45:39Z</time></trkpt><trkpt lat="45.53439380373418" lon="10.405855551125399"><ele>176.42857142857144</ele><time>2026-04-03T07:45:40Z</time></trkpt><trkpt lat="45.534363120488386" lon="10.405763388685694"><ele>176.28571428571428</ele><time>2026-04-03T07:45:41Z</time></trkpt><trkpt lat="45.534326101920435" lon="10.405676013468872"><ele>176.14285714285714</ele><time>2026-04-03T07:45:42Z</time></trkpt><trkpt lat="45.5342898830024" lon="10.4055802845796"><ele>176.0</ele><time>2026-04-03T07:45:43Z</time></trkpt><trkpt lat="45.53426353385347" lon="10.4054826880471"><ele>176.0</ele><time>2026-04-03T07:45:44Z</time></trkpt><trkpt lat="45.53422870815436" lon="10.405389816689038"><ele>176.0</ele><time>2026-04-03T07:45:45Z</time></trkpt><trkpt lat="45.534203621461835" lon="10.40528938010434"><ele>176.0</ele><time>2026-04-03T07:45:46Z</time></trkpt><trkpt lat="45.53418452777004" lon="10.405191937250255"><ele>176.0</ele><time>2026-04-03T07:45:47Z</time></trkpt><trkpt lat="45.53414750547311" lon="10.40510246232295"><ele>176.0</ele><time>2026-04-03T07:45:48Z</time></trkpt><trkpt lat="45.53411612168881" lon="10.40501700108531"><ele>176.0</ele><time>2026-04-03T07:45:49Z</time></trkpt><trkpt lat="45.53408102374012" lon="10.40492142594469"><ele>176.0</ele><time>2026-04-03T07:45:50Z</time></trkpt><trkpt lat="45.53404702964528" lon="10.404828856771427"><ele>176.0</ele><time>2026-04-03T07:45:51Z</time></trkpt><trkpt lat="45.53401525702222" lon="10.404743677536505"><ele>176.0</ele><time>2026-04-03T07:45:52Z</time></trkpt><trkpt lat="45.53398217146383" lon="10.404654959414861"><ele>176.0</ele><time>2026-04-03T07:45:53Z</time></trkpt><trkpt lat="45.53394692651348" lon="10.404560451256419"><ele>176.0</ele><time>2026-04-03T07:45:54Z</time></trkpt><trkpt lat="45.53391255030724" lon="10.404468272444772"><ele>176.0</ele><time>2026-04-03T07:45:55Z</time></trkpt><trkpt lat="45.53387930966272" lon="10.404379138628064"><ele>176.0</ele><time>2026-04-03T07:45:56Z</time></trkpt><trkpt lat="45.533844144673594" lon="10.40428484479075"><ele>176.0</ele><time>2026-04-03T07:45:57Z</time></trkpt><trkpt lat="45.533812200096165" lon="10.404199186312292"><ele>175.85714285714286</ele><time>2026-04-03T07:45:58Z</time></trkpt><trkpt lat="45.533778431143546" lon="10.404108635916824"><ele>175.71428571428572</ele><time>2026-04-03T07:45:59Z</time></trkpt><trkpt lat="45.533746905701236" lon="10.404024101355965"><ele>175.57142857142856</ele><time>2026-04-03T07:46:00Z</time></trkpt><trkpt lat="45.53371321381175" lon="10.4039335858737"><ele>175.42857142857144</ele><time>2026-04-03T07:46:01Z</time></trkpt><trkpt lat="45.53368093539633" lon="10.403846715928138"><ele>175.28571428571428</ele><time>2026-04-03T07:46:02Z</time></trkpt><trkpt lat="45.53364879264029" lon="10.403760210880378"><ele>175.14285714285714</ele><time>2026-04-03T07:46:03Z</time></trkpt><trkpt lat="45.53361590588079" lon="10.403671703681981"><ele>175.0</ele><time>2026-04-03T07:46:04Z</time></trkpt><trkpt lat="45.53358415479441" lon="10.403586252792675"><ele>175.0</ele><time>2026-04-03T07:46:05Z</time></trkpt><trkpt lat="45.53354794788111" lon="10.40348881010332"><ele>175.0</ele><time>2026-04-03T07:46:06Z</time></trkpt><trkpt lat="45.53351446904177" lon="10.403398709241708"><ele>175.0</ele><time>2026-04-03T07:46:07Z</time></trkpt><trkpt lat="45.533483706681544" lon="10.403315919345227"><ele>175.0</ele><time>2026-04-03T07:46:08Z</time></trkpt><trkpt lat="45.53345228053366" lon="10.403231342951322"><ele>175.0</ele><time>2026-04-03T07:46:09Z</time></trkpt><trkpt lat="45.53341803569283" lon="10.403139180619025"><ele>175.0</ele><time>2026-04-03T07:46:10Z</time></trkpt><trkpt lat="45.533384959370146" lon="10.4030501631519"><ele>175.0</ele><time>2026-04-03T07:46:11Z</time></trkpt><trkpt lat="45.533350799566854" lon="10.402958229785874"><ele>174.85714285714286</ele><time>2026-04-03T07:46:12Z</time></trkpt><trkpt lat="45.53331868243308" lon="10.402871793721665"><ele>174.71428571428572</ele><time>2026-04-03T07:46:13Z</time></trkpt><trkpt lat="45.53328568176657" lon="10.402782979762211"><ele>174.57142857142856</ele><time>2026-04-03T07:46:14Z</time></trkpt><trkpt lat="45.53325453726957" lon="10.402699161445657"><ele>174.42857142857144</ele><time>2026-04-03T07:46:15Z</time></trkpt><trkpt lat="45.53323664588253" lon="10.402602520123938"><ele>174.28571428571428</ele><time>2026-04-03T07:46:16Z</time></trkpt><trkpt lat="45.53318876518478" lon="10.40253055548988"><ele>174.14285714285714</ele><time>2026-04-03T07:46:17Z</time></trkpt><trkpt lat="45.5331514141145" lon="10.402450462292892"><ele>174.0</ele><time>2026-04-03T07:46:18Z</time></trkpt><trkpt lat="45.53310593153584" lon="10.402373543330533"><ele>174.0</ele><time>2026-04-03T07:46:19Z</time></trkpt><trkpt lat="45.53307737140877" lon="10.402291246818384"><ele>174.0</ele><time>2026-04-03T07:46:20Z</time></trkpt><trkpt lat="45.533042588366754" lon="10.402207701954499"><ele>174.0</ele><time>2026-04-03T07:46:21Z</time></trkpt><trkpt lat="45.53300316164175" lon="10.402130739084496"><ele>174.0</ele><time>2026-04-03T07:46:22Z</time></trkpt><trkpt lat="45.532967449572126" lon="10.402046615360117"><ele>174.0</ele><time>2026-04-03T07:46:23Z</time></trkpt><trkpt lat="45.532934661305305" lon="10.401963253329656"><ele>174.0</ele><time>2026-04-03T07:46:24Z</time></trkpt><trkpt lat="45.532903356948076" lon="10.4018771714721"><ele>174.0</ele><time>2026-04-03T07:46:25Z</time></trkpt><trkpt lat="45.53288002902061" lon="10.401790274104567"><ele>174.14285714285714</ele><time>2026-04-03T07:46:26Z</time></trkpt><trkpt lat="45.532849459546675" lon="10.401705456556343"><ele>174.28571428571428</ele><time>2026-04-03T07:46:27Z</time></trkpt><trkpt lat="45.532829029850944" lon="10.401610629206933"><ele>174.42857142857144</ele><time>2026-04-03T07:46:28Z</time></trkpt><trkpt lat="45.532793510088744" lon="10.40152832931923"><ele>174.57142857142856</ele><time>2026-04-03T07:46:29Z</time></trkpt><trkpt lat="45.532760804446276" lon="10.401440641612638"><ele>174.71428571428572</ele><time>2026-04-03T07:46:30Z</time></trkpt><trkpt lat="45.532730654818515" lon="10.401349309492934"><ele>174.85714285714286</ele><time>2026-04-03T07:46:31Z</time></trkpt><trkpt lat="45.53270106025074" lon="10.401257955658357"><ele>175.0</ele><time>2026-04-03T07:46:32Z</time></trkpt><trkpt lat="45.53266993728484" lon="10.40116678989499"><ele>174.57142857142858</ele><time>2026-04-03T07:46:33Z</time></trkpt><trkpt lat="45.53263597831868" lon="10.40107447267629"><ele>174.14285714285714</ele><time>2026-04-03T07:46:34Z</time></trkpt><trkpt lat="45.532606651414326" lon="10.40098633653535"><ele>173.71428571428572</ele><time>2026-04-03T07:46:35Z</time></trkpt><trkpt lat="45.532574401921394" lon="10.400893241615533"><ele>173.28571428571428</ele><time>2026-04-03T07:46:36Z</time></trkpt><trkpt lat="45.532539349376464" lon="10.400804459818577"><ele>172.85714285714286</ele><time>2026-04-03T07:46:37Z</time></trkpt><trkpt lat="45.53250626382393" lon="10.400715628751778"><ele>172.42857142857144</ele><time>2026-04-03T07:46:38Z</time></trkpt><trkpt lat="45.53247546033304" lon="10.400627493745269"><ele>172.0</ele><time>2026-04-03T07:46:39Z</time></trkpt><trkpt lat="45.53244172938174" lon="10.40053964345104"><ele>171.71428571428572</ele><time>2026-04-03T07:46:40Z</time></trkpt><trkpt lat="45.53240737608393" lon="10.400446800968536"><ele>171.42857142857144</ele><time>2026-04-03T07:46:41Z</time></trkpt><trkpt lat="45.53237605900708" lon="10.400358326058807"><ele>171.14285714285717</ele><time>2026-04-03T07:46:42Z</time></trkpt><trkpt lat="45.53234531715864" lon="10.400267095143015"><ele>170.85714285714286</ele><time>2026-04-03T07:46:43Z</time></trkpt><trkpt lat="45.53231269465746" lon="10.400173881658947"><ele>170.57142857142856</ele><time>2026-04-03T07:46:44Z</time></trkpt><trkpt lat="45.53228289553295" lon="10.40008438683745"><ele>170.2857142857143</ele><time>2026-04-03T07:46:45Z</time></trkpt><trkpt lat="45.532249669327385" lon="10.399998350494522"><ele>170.0</ele><time>2026-04-03T07:46:46Z</time></trkpt><trkpt lat="45.53222433879509" lon="10.399902841641868"><ele>170.0</ele><time>2026-04-03T07:46:47Z</time></trkpt><trkpt lat="45.53219443567661" lon="10.399816832661003"><ele>170.0</ele><time>2026-04-03T07:46:48Z</time></trkpt><trkpt lat="45.53216977778434" lon="10.39972552693234"><ele>170.0</ele><time>2026-04-03T07:46:49Z</time></trkpt><trkpt lat="45.53213333624588" lon="10.3996360886515"><ele>170.0</ele><time>2026-04-03T07:46:50Z</time></trkpt><trkpt lat="45.53209935746548" lon="10.399551534719857"><ele>170.0</ele><time>2026-04-03T07:46:51Z</time></trkpt><trkpt lat="45.53206321416538" lon="10.399467097943747"><ele>170.0</ele><time>2026-04-03T07:46:52Z</time></trkpt><trkpt lat="45.53202618446801" lon="10.399381152077497"><ele>170.0</ele><time>2026-04-03T07:46:53Z</time></trkpt><trkpt lat="45.53200931265645" lon="10.399290292860657"><ele>170.42857142857144</ele><time>2026-04-03T07:46:54Z</time></trkpt><trkpt lat="45.53198492971325" lon="10.39919770138028"><ele>170.85714285714283</ele><time>2026-04-03T07:46:55Z</time></trkpt><trkpt lat="45.53195377182454" lon="10.399113995731824"><ele>171.28571428571428</ele><time>2026-04-03T07:46:56Z</time></trkpt><trkpt lat="45.53192356538321" lon="10.399025771491319"><ele>171.71428571428572</ele><time>2026-04-03T07:46:57Z</time></trkpt><trkpt lat="45.531890322806305" lon="10.398938340058752"><ele>172.14285714285717</ele><time>2026-04-03T07:46:58Z</time></trkpt><trkpt lat="45.53185980215783" lon="10.398856468748034"><ele>172.57142857142856</ele><time>2026-04-03T07:46:59Z</time></trkpt><trkpt lat="45.53183091925141" lon="10.39877061707739"><ele>173.0</ele><time>2026-04-03T07:47:00Z</time></trkpt><trkpt lat="45.53180622457047" lon="10.398681884503956"><ele>173.2</ele><time>2026-04-03T07:47:01Z</time></trkpt><trkpt lat="45.53178005309727" lon="10.398595773419924"><ele>173.4</ele><time>2026-04-03T07:47:02Z</time></trkpt><trkpt lat="45.53171199315079" lon="10.398449099351943"><ele>173.6</ele><time>2026-04-03T07:47:04Z</time></trkpt><trkpt lat="45.531689724921925" lon="10.398344117943266"><ele>173.79999999999998</ele><time>2026-04-03T07:47:05Z</time></trkpt><trkpt lat="45.53164847803911" lon="10.398268302577993"><ele>174.0</ele><time>2026-04-03T07:47:06Z</time></trkpt><trkpt lat="45.531591459131974" lon="10.398122493956539"><ele>173.66666666666666</ele><time>2026-04-03T07:47:08Z</time></trkpt><trkpt lat="45.53154952981298" lon="10.397993086067057"><ele>173.33333333333334</ele><time>2026-04-03T07:47:10Z</time></trkpt><trkpt lat="45.53152551181824" lon="10.397907593030991"><ele>173.0</ele><time>2026-04-03T07:47:11Z</time></trkpt><trkpt lat="45.531488458337584" lon="10.397820265773571"><ele>172.66666666666669</ele><time>2026-04-03T07:47:12Z</time></trkpt><trkpt lat="45.53145607744337" lon="10.397717225625486"><ele>172.33333333333334</ele><time>2026-04-03T07:47:13Z</time></trkpt><trkpt lat="45.53143145054352" lon="10.397614771056416"><ele>172.0</ele><time>2026-04-03T07:47:14Z</time></trkpt><trkpt lat="45.53138529778755" lon="10.397531578047388"><ele>172.00000000000003</ele><time>2026-04-03T07:47:15Z</time></trkpt><trkpt lat="45.531351277292" lon="10.397435975400459"><ele>172.0</ele><time>2026-04-03T07:47:16Z</time></trkpt><trkpt lat="45.531318825463174" lon="10.39734478093499"><ele>172.0</ele><time>2026-04-03T07:47:17Z</time></trkpt><trkpt lat="45.53128364849322" lon="10.397245928853339"><ele>172.0</ele><time>2026-04-03T07:47:18Z</time></trkpt><trkpt lat="45.53125182034389" lon="10.3971564868773"><ele>172.0</ele><time>2026-04-03T07:47:19Z</time></trkpt><trkpt lat="45.53122015800066" lon="10.397067511113919"><ele>172.00000000000003</ele><time>2026-04-03T07:47:20Z</time></trkpt><trkpt lat="45.53119077423681" lon="10.39698493843591"><ele>172.0</ele><time>2026-04-03T07:47:21Z</time></trkpt><trkpt lat="45.531162242712846" lon="10.396904760701617"><ele>172.0</ele><time>2026-04-03T07:47:22Z</time></trkpt><trkpt lat="45.53113176097861" lon="10.396819102571861"><ele>172.0</ele><time>2026-04-03T07:47:23Z</time></trkpt><trkpt lat="45.531103218354154" lon="10.396738893631866"><ele>172.0</ele><time>2026-04-03T07:47:24Z</time></trkpt><trkpt lat="45.53108406236997" lon="10.396641732672459"><ele>172.0</ele><time>2026-04-03T07:47:25Z</time></trkpt><trkpt lat="45.53102469523473" lon="10.396479442510872"><ele>172.0</ele><time>2026-04-03T07:47:27Z</time></trkpt><trkpt lat="45.53099289882689" lon="10.396401740730616"><ele>172.0</ele><time>2026-04-03T07:47:28Z</time></trkpt><trkpt lat="45.53091957168467" lon="10.39626669136427"><ele>172.0</ele><time>2026-04-03T07:47:30Z</time></trkpt><trkpt lat="45.53088351832816" lon="10.396121510307056"><ele>172.0</ele><time>2026-04-03T07:47:32Z</time></trkpt><trkpt lat="45.530831271308045" lon="10.395974688448817"><ele>172.0</ele><time>2026-04-03T07:47:34Z</time></trkpt><trkpt lat="45.53081777240823" lon="10.395885488826073"><ele>172.0</ele><time>2026-04-03T07:47:35Z</time></trkpt><trkpt lat="45.53077429433273" lon="10.395814574932984"><ele>172.0</ele><time>2026-04-03T07:47:36Z</time></trkpt><trkpt lat="45.53075919995783" lon="10.395720073098627"><ele>172.0</ele><time>2026-04-03T07:47:37Z</time></trkpt><trkpt lat="45.53072485785082" lon="10.39563528945821"><ele>172.0</ele><time>2026-04-03T07:47:38Z</time></trkpt><trkpt lat="45.53069645952528" lon="10.395551464944633"><ele>172.0</ele><time>2026-04-03T07:47:39Z</time></trkpt><trkpt lat="45.53065183306361" lon="10.39547044089862"><ele>172.0</ele><time>2026-04-03T07:47:40Z</time></trkpt><trkpt lat="45.53061984242127" lon="10.395380542600579"><ele>172.0</ele><time>2026-04-03T07:47:41Z</time></trkpt><trkpt lat="45.530559686967656" lon="10.395211496784977"><ele>172.0</ele><time>2026-04-03T07:47:43Z</time></trkpt><trkpt lat="45.53052958695032" lon="10.395126911453424"><ele>172.0</ele><time>2026-04-03T07:47:44Z</time></trkpt><trkpt lat="45.53049796814415" lon="10.39503805795794"><ele>172.16666666666669</ele><time>2026-04-03T07:47:45Z</time></trkpt><trkpt lat="45.530463336547655" lon="10.394940738037732"><ele>172.33333333333334</ele><time>2026-04-03T07:47:46Z</time></trkpt><trkpt lat="45.530431159441974" lon="10.394850315777367"><ele>172.5</ele><time>2026-04-03T07:47:47Z</time></trkpt><trkpt lat="45.53040075292383" lon="10.394764869050073"><ele>172.66666666666666</ele><time>2026-04-03T07:47:48Z</time></trkpt><trkpt lat="45.5303700120601" lon="10.394678482803542"><ele>172.83333333333331</ele><time>2026-04-03T07:47:49Z</time></trkpt><trkpt lat="45.53031403108125" lon="10.39452175635573"><ele>173.0</ele><time>2026-04-03T07:47:51Z</time></trkpt><trkpt lat="45.530279700692084" lon="10.394425829936724"><ele>172.7142857142857</ele><time>2026-04-03T07:47:52Z</time></trkpt><trkpt lat="45.530247623898646" lon="10.394336200164195"><ele>172.42857142857144</ele><time>2026-04-03T07:47:53Z</time></trkpt><trkpt lat="45.53021539835151" lon="10.394246154992285"><ele>172.14285714285714</ele><time>2026-04-03T07:47:54Z</time></trkpt><trkpt lat="45.530182356057885" lon="10.394153827592858"><ele>171.85714285714283</ele><time>2026-04-03T07:47:55Z</time></trkpt><trkpt lat="45.53015313867295" lon="10.394072187701246"><ele>171.57142857142856</ele><time>2026-04-03T07:47:56Z</time></trkpt><trkpt lat="45.53012064670378" lon="10.393981398118838"><ele>171.28571428571428</ele><time>2026-04-03T07:47:57Z</time></trkpt><trkpt lat="45.53008728325023" lon="10.393888173072588"><ele>171.0</ele><time>2026-04-03T07:47:58Z</time></trkpt><trkpt lat="45.53006839041944" lon="10.393787661658362"><ele>171.0</ele><time>2026-04-03T07:47:59Z</time></trkpt><trkpt lat="45.530026600276" lon="10.393718436209632"><ele>171.0</ele><time>2026-04-03T07:48:00Z</time></trkpt><trkpt lat="45.5299780029064" lon="10.39355855609885"><ele>171.0</ele><time>2026-04-03T07:48:02Z</time></trkpt><trkpt lat="45.5299417272013" lon="10.393467976643159"><ele>171.0</ele><time>2026-04-03T07:48:03Z</time></trkpt><trkpt lat="45.52990891633299" lon="10.393380797166383"><ele>171.0</ele><time>2026-04-03T07:48:04Z</time></trkpt><trkpt lat="45.52986633743268" lon="10.39328708495414"><ele>171.0</ele><time>2026-04-03T07:48:05Z</time></trkpt><trkpt lat="45.52981474678048" lon="10.393126745213904"><ele>170.99999999999997</ele><time>2026-04-03T07:48:07Z</time></trkpt><trkpt lat="45.52978055482653" lon="10.393038932762584"><ele>171.0</ele><time>2026-04-03T07:48:08Z</time></trkpt><trkpt lat="45.52975397205245" lon="10.392957021959498"><ele>171.0</ele><time>2026-04-03T07:48:09Z</time></trkpt><trkpt lat="45.52972271234162" lon="10.39286218995337"><ele>171.0</ele><time>2026-04-03T07:48:10Z</time></trkpt><trkpt lat="45.52969636386884" lon="10.392773643518908"><ele>171.0</ele><time>2026-04-03T07:48:11Z</time></trkpt><trkpt lat="45.529674845992" lon="10.392681189472416"><ele>170.99999999999997</ele><time>2026-04-03T07:48:12Z</time></trkpt><trkpt lat="45.52964357390043" lon="10.39259402588196"><ele>171.0</ele><time>2026-04-03T07:48:13Z</time></trkpt><trkpt lat="45.52960916179566" lon="10.392505012193427"><ele>170.85714285714283</ele><time>2026-04-03T07:48:14Z</time></trkpt><trkpt lat="45.52957819237695" lon="10.392418516780122"><ele>170.71428571428572</ele><time>2026-04-03T07:48:15Z</time></trkpt><trkpt lat="45.52954792917234" lon="10.392337234992706"><ele>170.57142857142856</ele><time>2026-04-03T07:48:16Z</time></trkpt><trkpt lat="45.52952107210372" lon="10.392252797525332"><ele>170.42857142857142</ele><time>2026-04-03T07:48:17Z</time></trkpt><trkpt lat="45.52949336733408" lon="10.392171699940809"><ele>170.28571428571428</ele><time>2026-04-03T07:48:18Z</time></trkpt><trkpt lat="45.529460742809036" lon="10.392094060279014"><ele>170.14285714285714</ele><time>2026-04-03T07:48:19Z</time></trkpt><trkpt lat="45.52942633339075" lon="10.392004622810287"><ele>170.0</ele><time>2026-04-03T07:48:20Z</time></trkpt><trkpt lat="45.52939817198374" lon="10.391919327395634"><ele>170.0</ele><time>2026-04-03T07:48:21Z</time></trkpt><trkpt lat="45.529367978847816" lon="10.391831598011484"><ele>170.0</ele><time>2026-04-03T07:48:22Z</time></trkpt><trkpt lat="45.52933913368702" lon="10.391740336086974"><ele>170.0</ele><time>2026-04-03T07:48:23Z</time></trkpt><trkpt lat="45.52931721307799" lon="10.391649305116436"><ele>170.0</ele><time>2026-04-03T07:48:24Z</time></trkpt><trkpt lat="45.52928434443247" lon="10.391560290372878"><ele>170.0</ele><time>2026-04-03T07:48:25Z</time></trkpt><trkpt lat="45.529251350831345" lon="10.391467776805749"><ele>170.0</ele><time>2026-04-03T07:48:26Z</time></trkpt><trkpt lat="45.52921384735381" lon="10.391379535903095"><ele>170.0</ele><time>2026-04-03T07:48:27Z</time></trkpt><trkpt lat="45.52918120187084" lon="10.39128905464645"><ele>169.57142857142858</ele><time>2026-04-03T07:48:28Z</time></trkpt><trkpt lat="45.5291496549776" lon="10.391198821363005"><ele>169.14285714285714</ele><time>2026-04-03T07:48:29Z</time></trkpt><trkpt lat="45.52912607484357" lon="10.391107206700694"><ele>168.71428571428572</ele><time>2026-04-03T07:48:30Z</time></trkpt><trkpt lat="45.52909628112443" lon="10.391012168387755"><ele>168.28571428571428</ele><time>2026-04-03T07:48:31Z</time></trkpt><trkpt lat="45.52906936230698" lon="10.390914651441449"><ele>167.85714285714286</ele><time>2026-04-03T07:48:32Z</time></trkpt><trkpt lat="45.52903445497321" lon="10.390820280689914"><ele>167.42857142857142</ele><time>2026-04-03T07:48:33Z</time></trkpt><trkpt lat="45.52900400050356" lon="10.390735374515236"><ele>167.0</ele><time>2026-04-03T07:48:34Z</time></trkpt><trkpt lat="45.528971604487126" lon="10.390651125499408"><ele>167.0</ele><time>2026-04-03T07:48:35Z</time></trkpt><trkpt lat="45.528944400099256" lon="10.390561945268821"><ele>167.0</ele><time>2026-04-03T07:48:36Z</time></trkpt><trkpt lat="45.528915141019205" lon="10.390474602381017"><ele>167.0</ele><time>2026-04-03T07:48:37Z</time></trkpt><trkpt lat="45.52888302824422" lon="10.39038829123314"><ele>167.0</ele><time>2026-04-03T07:48:38Z</time></trkpt><trkpt lat="45.5288510870753" lon="10.390301436846283"><ele>167.0</ele><time>2026-04-03T07:48:39Z</time></trkpt><trkpt lat="45.52878991233663" lon="10.390140482772196"><ele>167.0</ele><time>2026-04-03T07:48:41Z</time></trkpt><trkpt lat="45.528735456261934" lon="10.389982306811055"><ele>167.16666666666666</ele><time>2026-04-03T07:48:43Z</time></trkpt><trkpt lat="45.528675205906154" lon="10.389826086627448"><ele>167.33333333333331</ele><time>2026-04-03T07:48:45Z</time></trkpt><trkpt lat="45.528639827270254" lon="10.389744044948511"><ele>167.5</ele><time>2026-04-03T07:48:46Z</time></trkpt><trkpt lat="45.52860320817797" lon="10.389661169189703"><ele>167.66666666666666</ele><time>2026-04-03T07:48:47Z</time></trkpt><trkpt lat="45.528574821446476" lon="10.389576971528404"><ele>167.83333333333334</ele><time>2026-04-03T07:48:48Z</time></trkpt><trkpt lat="45.52854192208975" lon="10.389495971701244"><ele>168.0</ele><time>2026-04-03T07:48:49Z</time></trkpt><trkpt lat="45.52850809070348" lon="10.389416810771374"><ele>168.0</ele><time>2026-04-03T07:48:50Z</time></trkpt><trkpt lat="45.528480368480004" lon="10.389335993479893"><ele>168.0</ele><time>2026-04-03T07:48:51Z</time></trkpt><trkpt lat="45.52845494932241" lon="10.389247684975286"><ele>168.0</ele><time>2026-04-03T07:48:52Z</time></trkpt><trkpt lat="45.52838979689645" lon="10.389093948656559"><ele>168.0</ele><time>2026-04-03T07:48:54Z</time></trkpt><trkpt lat="45.52834601580492" lon="10.3889200394499"><ele>168.0</ele><time>2026-04-03T07:48:56Z</time></trkpt><trkpt lat="45.5283263958101" lon="10.388833775368402"><ele>168.0</ele><time>2026-04-03T07:48:57Z</time></trkpt><trkpt lat="45.52829695276917" lon="10.388746375978611"><ele>167.75</ele><time>2026-04-03T07:48:58Z</time></trkpt><trkpt lat="45.528255307367026" lon="10.388582531466124"><ele>167.5</ele><time>2026-04-03T07:49:00Z</time></trkpt><trkpt lat="45.52821008106091" lon="10.388426149293926"><ele>167.25</ele><time>2026-04-03T07:49:02Z</time></trkpt><trkpt lat="45.528178795149884" lon="10.388261849988572"><ele>167.0</ele><time>2026-04-03T07:49:04Z</time></trkpt><trkpt lat="45.52812962248521" lon="10.38811200446143"><ele>166.75</ele><time>2026-04-03T07:49:06Z</time></trkpt><trkpt lat="45.52808232443088" lon="10.387956850788036"><ele>166.5</ele><time>2026-04-03T07:49:08Z</time></trkpt><trkpt lat="45.52803357507104" lon="10.387796667064437"><ele>166.25</ele><time>2026-04-03T07:49:10Z</time></trkpt><trkpt lat="45.527984920760005" lon="10.387635401269081"><ele>166.0</ele><time>2026-04-03T07:49:12Z</time></trkpt><trkpt lat="45.5279370296918" lon="10.387479629956854"><ele>165.8</ele><time>2026-04-03T07:49:14Z</time></trkpt><trkpt lat="45.52789079201372" lon="10.387339579535714"><ele>165.60000000000002</ele><time>2026-04-03T07:49:16Z</time></trkpt><trkpt lat="45.527835232145435" lon="10.387177399153801"><ele>165.4</ele><time>2026-04-03T07:49:18Z</time></trkpt><trkpt lat="45.52780747493926" lon="10.38708664080681"><ele>165.2</ele><time>2026-04-03T07:49:19Z</time></trkpt><trkpt lat="45.527757702904786" lon="10.386939087235197"><ele>165.0</ele><time>2026-04-03T07:49:21Z</time></trkpt><trkpt lat="45.52770667306597" lon="10.386782954418237"><ele>165.0</ele><time>2026-04-03T07:49:23Z</time></trkpt><trkpt lat="45.527653788365306" lon="10.386617528593195"><ele>165.0</ele><time>2026-04-03T07:49:25Z</time></trkpt><trkpt lat="45.5276291553298" lon="10.38653078626371"><ele>165.0</ele><time>2026-04-03T07:49:26Z</time></trkpt><trkpt lat="45.52758633897759" lon="10.386376044818924"><ele>165.0</ele><time>2026-04-03T07:49:28Z</time></trkpt><trkpt lat="45.527532130467904" lon="10.386217058122234"><ele>165.0</ele><time>2026-04-03T07:49:30Z</time></trkpt><trkpt lat="45.52749384198698" lon="10.386050534002564"><ele>165.0</ele><time>2026-04-03T07:49:32Z</time></trkpt><trkpt lat="45.52743541571934" lon="10.385892855000199"><ele>165.0</ele><time>2026-04-03T07:49:34Z</time></trkpt><trkpt lat="45.5273854652189" lon="10.385746312996728"><ele>165.0</ele><time>2026-04-03T07:49:36Z</time></trkpt><trkpt lat="45.527332247152984" lon="10.385589398856924"><ele>165.0</ele><time>2026-04-03T07:49:38Z</time></trkpt><trkpt lat="45.52727760148824" lon="10.385422144116346"><ele>165.4</ele><time>2026-04-03T07:49:40Z</time></trkpt><trkpt lat="45.52722797276719" lon="10.38525862245487"><ele>165.8</ele><time>2026-04-03T07:49:42Z</time></trkpt><trkpt lat="45.52717616678222" lon="10.3850996898352"><ele>166.2</ele><time>2026-04-03T07:49:44Z</time></trkpt><trkpt lat="45.527138502969805" lon="10.385012778683874"><ele>166.6</ele><time>2026-04-03T07:49:45Z</time></trkpt><trkpt lat="45.52711137184919" lon="10.384925776167748"><ele>167.0</ele><time>2026-04-03T07:49:46Z</time></trkpt><trkpt lat="45.52709274632763" lon="10.384836355311174"><ele>167.14285714285714</ele><time>2026-04-03T07:49:47Z</time></trkpt><trkpt lat="45.52705057337991" lon="10.384760871231595"><ele>167.28571428571428</ele><time>2026-04-03T07:49:48Z</time></trkpt><trkpt lat="45.527030064955554" lon="10.384673273519223"><ele>167.42857142857144</ele><time>2026-04-03T07:49:49Z</time></trkpt><trkpt lat="45.52700162470565" lon="10.384588146096636"><ele>167.57142857142856</ele><time>2026-04-03T07:49:50Z</time></trkpt><trkpt lat="45.52697413437939" lon="10.384500783424437"><ele>167.71428571428572</ele><time>2026-04-03T07:49:51Z</time></trkpt><trkpt lat="45.52695116383957" lon="10.384406846343982"><ele>167.85714285714286</ele><time>2026-04-03T07:49:52Z</time></trkpt><trkpt lat="45.52692982629794" lon="10.384319113056803"><ele>168.0</ele><time>2026-04-03T07:49:53Z</time></trkpt><trkpt lat="45.52688433782653" lon="10.384149411059207"><ele>168.0</ele><time>2026-04-03T07:49:55Z</time></trkpt><trkpt lat="45.52684888340643" lon="10.38406378914302"><ele>168.0</ele><time>2026-04-03T07:49:56Z</time></trkpt><trkpt lat="45.526824626018694" lon="10.383974789155939"><ele>168.0</ele><time>2026-04-03T07:49:57Z</time></trkpt><trkpt lat="45.52680090270622" lon="10.383885437858337"><ele>168.0</ele><time>2026-04-03T07:49:58Z</time></trkpt><trkpt lat="45.526775651949016" lon="10.383799931145118"><ele>168.0</ele><time>2026-04-03T07:49:59Z</time></trkpt><trkpt lat="45.52673825945601" lon="10.383709695115876"><ele>168.0</ele><time>2026-04-03T07:50:00Z</time></trkpt><trkpt lat="45.52672189342543" lon="10.383621987644505"><ele>168.0</ele><time>2026-04-03T07:50:01Z</time></trkpt><trkpt lat="45.526690736275576" lon="10.383539254426108"><ele>167.66666666666666</ele><time>2026-04-03T07:50:02Z</time></trkpt><trkpt lat="45.526661749012575" lon="10.383452889197473"><ele>167.33333333333334</ele><time>2026-04-03T07:50:03Z</time></trkpt><trkpt lat="45.526636121704186" lon="10.383364831058296"><ele>167.0</ele><time>2026-04-03T07:50:04Z</time></trkpt><trkpt lat="45.52662518542142" lon="10.383186367457787"><ele>166.66666666666669</ele><time>2026-04-03T07:50:06Z</time></trkpt><trkpt lat="45.52658563755301" lon="10.383099789458887"><ele>166.33333333333334</ele><time>2026-04-03T07:50:07Z</time></trkpt><trkpt lat="45.52652472012937" lon="10.38295811227904"><ele>166.0</ele><time>2026-04-03T07:50:09Z</time></trkpt><trkpt lat="45.526483454755805" lon="10.382805366162945"><ele>166.0</ele><time>2026-04-03T07:50:11Z</time></trkpt><trkpt lat="45.52643327906301" lon="10.3826531453118"><ele>166.0</ele><time>2026-04-03T07:50:13Z</time></trkpt><trkpt lat="45.526398581560166" lon="10.382514793057815"><ele>166.0</ele><time>2026-04-03T07:50:15Z</time></trkpt><trkpt lat="45.52634368878587" lon="10.382460027266463"><ele>166.0</ele><time>2026-04-03T07:50:16Z</time></trkpt><trkpt lat="45.52628722072774" lon="10.382353025628328"><ele>166.0</ele><time>2026-04-03T07:50:17Z</time></trkpt><trkpt lat="45.52623222600209" lon="10.38222045547989"><ele>165.83333333333334</ele><time>2026-04-03T07:50:19Z</time></trkpt><trkpt lat="45.52616696043525" lon="10.38207484808362"><ele>165.66666666666669</ele><time>2026-04-03T07:50:21Z</time></trkpt><trkpt lat="45.5261328415602" lon="10.381990281178833"><ele>165.5</ele><time>2026-04-03T07:50:22Z</time></trkpt><trkpt lat="45.52609781471487" lon="10.381912199928504"><ele>165.33333333333334</ele><time>2026-04-03T07:50:23Z</time></trkpt><trkpt lat="45.526030027942625" lon="10.3817619707101"><ele>165.16666666666666</ele><time>2026-04-03T07:50:25Z</time></trkpt><trkpt lat="45.525996597443964" lon="10.381678368516152"><ele>165.0</ele><time>2026-04-03T07:50:26Z</time></trkpt><trkpt lat="45.525957233523414" lon="10.38160635791873"><ele>165.00000000000003</ele><time>2026-04-03T07:50:27Z</time></trkpt><trkpt lat="45.525916091199605" lon="10.381530443474851"><ele>165.0</ele><time>2026-04-03T07:50:28Z</time></trkpt><trkpt lat="45.525883494691556" lon="10.381448141791788"><ele>165.0</ele><time>2026-04-03T07:50:29Z</time></trkpt><trkpt lat="45.52585001285288" lon="10.38136388070642"><ele>165.0</ele><time>2026-04-03T07:50:30Z</time></trkpt><trkpt lat="45.52581257224096" lon="10.381283284149777"><ele>165.0</ele><time>2026-04-03T07:50:31Z</time></trkpt><trkpt lat="45.5257748883092" lon="10.381204256031939"><ele>165.00000000000003</ele><time>2026-04-03T07:50:32Z</time></trkpt><trkpt lat="45.525737525324445" lon="10.38112202888389"><ele>165.0</ele><time>2026-04-03T07:50:33Z</time></trkpt><trkpt lat="45.525701357294565" lon="10.381036201033819"><ele>164.83333333333334</ele><time>2026-04-03T07:50:34Z</time></trkpt><trkpt lat="45.52566231730554" lon="10.380953683718074"><ele>164.66666666666666</ele><time>2026-04-03T07:50:35Z</time></trkpt><trkpt lat="45.525622160090144" lon="10.380870194589587"><ele>164.5</ele><time>2026-04-03T07:50:36Z</time></trkpt><trkpt lat="45.52558946868613" lon="10.380788629826077"><ele>164.33333333333331</ele><time>2026-04-03T07:50:37Z</time></trkpt><trkpt lat="45.52555454307114" lon="10.380710620486493"><ele>164.16666666666666</ele><time>2026-04-03T07:50:38Z</time></trkpt><trkpt lat="45.52551758478758" lon="10.380628865291586"><ele>164.0</ele><time>2026-04-03T07:50:39Z</time></trkpt><trkpt lat="45.525451712926134" lon="10.380474505298553"><ele>163.7142857142857</ele><time>2026-04-03T07:50:41Z</time></trkpt><trkpt lat="45.525410873744576" lon="10.380395467038294"><ele>163.42857142857142</ele><time>2026-04-03T07:50:42Z</time></trkpt><trkpt lat="45.525377397333386" lon="10.38031417750569"><ele>163.14285714285714</ele><time>2026-04-03T07:50:43Z</time></trkpt><trkpt lat="45.52534059416927" lon="10.380233613475697"><ele>162.85714285714283</ele><time>2026-04-03T07:50:44Z</time></trkpt><trkpt lat="45.52531282252754" lon="10.380140666749922"><ele>162.57142857142856</ele><time>2026-04-03T07:50:45Z</time></trkpt><trkpt lat="45.52527854834062" lon="10.380060936732674"><ele>162.28571428571428</ele><time>2026-04-03T07:50:46Z</time></trkpt><trkpt lat="45.5252362220621" lon="10.379982507807117"><ele>162.0</ele><time>2026-04-03T07:50:47Z</time></trkpt><trkpt lat="45.525194736661255" lon="10.379907540975179"><ele>162.0</ele><time>2026-04-03T07:50:48Z</time></trkpt><trkpt lat="45.525157179731174" lon="10.379833018607453"><ele>162.0</ele><time>2026-04-03T07:50:49Z</time></trkpt><trkpt lat="45.52512287976974" lon="10.379744560111973"><ele>162.0</ele><time>2026-04-03T07:50:50Z</time></trkpt><trkpt lat="45.525078287125844" lon="10.379667585840675"><ele>162.0</ele><time>2026-04-03T07:50:51Z</time></trkpt><trkpt lat="45.525038385947" lon="10.379587522834441"><ele>162.0</ele><time>2026-04-03T07:50:52Z</time></trkpt><trkpt lat="45.52500650542643" lon="10.37949953052991"><ele>162.0</ele><time>2026-04-03T07:50:53Z</time></trkpt><trkpt lat="45.52498581238478" lon="10.37941016129101"><ele>162.0</ele><time>2026-04-03T07:50:54Z</time></trkpt><trkpt lat="45.52494948690968" lon="10.37932781791675"><ele>162.14285714285714</ele><time>2026-04-03T07:50:55Z</time></trkpt><trkpt lat="45.524905233939485" lon="10.379253841685694"><ele>162.28571428571428</ele><time>2026-04-03T07:50:56Z</time></trkpt><trkpt lat="45.524868027613216" lon="10.379169068471812"><ele>162.42857142857144</ele><time>2026-04-03T07:50:57Z</time></trkpt><trkpt lat="45.52482771412202" lon="10.379088586506757"><ele>162.57142857142856</ele><time>2026-04-03T07:50:58Z</time></trkpt><trkpt lat="45.52478956293354" lon="10.379011298247098"><ele>162.7142857142857</ele><time>2026-04-03T07:50:59Z</time></trkpt><trkpt lat="45.5247513859174" lon="10.378931657706202"><ele>162.85714285714286</ele><time>2026-04-03T07:51:00Z</time></trkpt><trkpt lat="45.524717956832355" lon="10.37885435270711"><ele>163.0</ele><time>2026-04-03T07:51:01Z</time></trkpt><trkpt lat="45.524651029472636" lon="10.378722025604885"><ele>163.0</ele><time>2026-04-03T07:51:03Z</time></trkpt><trkpt lat="45.52459656570899" lon="10.378578215468306"><ele>163.0</ele><time>2026-04-03T07:51:05Z</time></trkpt><trkpt lat="45.5245255376405" lon="10.378432838125986"><ele>163.0</ele><time>2026-04-03T07:51:07Z</time></trkpt><trkpt lat="45.52448856427001" lon="10.378352540316676"><ele>163.0</ele><time>2026-04-03T07:51:08Z</time></trkpt><trkpt lat="45.524452830146345" lon="10.378272034260956"><ele>163.0</ele><time>2026-04-03T07:51:09Z</time></trkpt><trkpt lat="45.52441801628964" lon="10.378193544268036"><ele>163.0</ele><time>2026-04-03T07:51:10Z</time></trkpt><trkpt lat="45.52438522995079" lon="10.3781121144623"><ele>162.66666666666669</ele><time>2026-04-03T07:51:11Z</time></trkpt><trkpt lat="45.524354515810444" lon="10.378030876189468"><ele>162.33333333333334</ele><time>2026-04-03T07:51:12Z</time></trkpt><trkpt lat="45.52428999161695" lon="10.377890177450647"><ele>162.0</ele><time>2026-04-03T07:51:14Z</time></trkpt><trkpt lat="45.524255689612374" lon="10.37780838001304"><ele>161.66666666666666</ele><time>2026-04-03T07:51:15Z</time></trkpt><trkpt lat="45.52422254178562" lon="10.377726474717877"><ele>161.33333333333331</ele><time>2026-04-03T07:51:16Z</time></trkpt><trkpt lat="45.524182864106685" lon="10.377641574142734"><ele>161.0</ele><time>2026-04-03T07:51:17Z</time></trkpt><trkpt lat="45.52411564377316" lon="10.37749230025805"><ele>161.0</ele><time>2026-04-03T07:51:19Z</time></trkpt><trkpt lat="45.52405237910846" lon="10.37734321582938"><ele>161.0</ele><time>2026-04-03T07:51:21Z</time></trkpt><trkpt lat="45.52398680287984" lon="10.377201517417417"><ele>161.0</ele><time>2026-04-03T07:51:23Z</time></trkpt><trkpt lat="45.52395296302662" lon="10.377125464894213"><ele>161.0</ele><time>2026-04-03T07:51:24Z</time></trkpt><trkpt lat="45.5238818323328" lon="10.376979209934277"><ele>161.0</ele><time>2026-04-03T07:51:26Z</time></trkpt><trkpt lat="45.52382403904935" lon="10.376839500076066"><ele>161.0</ele><time>2026-04-03T07:51:28Z</time></trkpt><trkpt lat="45.523767382188566" lon="10.376704155112222"><ele>161.0</ele><time>2026-04-03T07:51:30Z</time></trkpt><trkpt lat="45.52371065006205" lon="10.376557385030235"><ele>161.0</ele><time>2026-04-03T07:51:32Z</time></trkpt><trkpt lat="45.52365536936922" lon="10.3763986790771"><ele>161.0</ele><time>2026-04-03T07:51:34Z</time></trkpt><trkpt lat="45.52358363844785" lon="10.376276184878643"><ele>161.4</ele><time>2026-04-03T07:51:36Z</time></trkpt><trkpt lat="45.52355016858385" lon="10.376198720597978"><ele>161.8</ele><time>2026-04-03T07:51:37Z</time></trkpt><trkpt lat="45.523493978271915" lon="10.376040833162069"><ele>162.20000000000002</ele><time>2026-04-03T07:51:39Z</time></trkpt><trkpt lat="45.523430436167075" lon="10.375912235098825"><ele>162.60000000000002</ele><time>2026-04-03T07:51:41Z</time></trkpt><trkpt lat="45.52339268712645" lon="10.375835775368559"><ele>163.0</ele><time>2026-04-03T07:51:42Z</time></trkpt><trkpt lat="45.52332023984939" lon="10.375696835405757"><ele>163.0</ele><time>2026-04-03T07:51:44Z</time></trkpt><trkpt lat="45.52326366175726" lon="10.375548070765673"><ele>163.0</ele><time>2026-04-03T07:51:46Z</time></trkpt><trkpt lat="45.52320225642486" lon="10.375406885771568"><ele>163.0</ele><time>2026-04-03T07:51:48Z</time></trkpt><trkpt lat="45.52313847959015" lon="10.375256427394286"><ele>163.0</ele><time>2026-04-03T07:51:50Z</time></trkpt><trkpt lat="45.52307099540745" lon="10.375100583056343"><ele>162.75</ele><time>2026-04-03T07:51:52Z</time></trkpt><trkpt lat="45.52301626160081" lon="10.374945464346768"><ele>162.5</ele><time>2026-04-03T07:51:54Z</time></trkpt><trkpt lat="45.522954838656126" lon="10.374799368249416"><ele>162.25</ele><time>2026-04-03T07:51:56Z</time></trkpt><trkpt lat="45.522889328184014" lon="10.374661865383837"><ele>162.0</ele><time>2026-04-03T07:51:58Z</time></trkpt><trkpt lat="45.52282959380085" lon="10.374521048295039"><ele>161.8</ele><time>2026-04-03T07:52:00Z</time></trkpt><trkpt lat="45.52274847184781" lon="10.374400502955003"><ele>161.6</ele><time>2026-04-03T07:52:02Z</time></trkpt><trkpt lat="45.522733395806014" lon="10.374291718832803"><ele>161.4</ele><time>2026-04-03T07:52:04Z</time></trkpt><trkpt lat="45.52281695408498" lon="10.374165942289947"><ele>161.20000000000002</ele><time>2026-04-03T07:52:07Z</time></trkpt><trkpt lat="45.522823550604954" lon="10.374059212171126"><ele>161.0</ele><time>2026-04-03T07:52:09Z</time></trkpt><trkpt lat="45.522788771769584" lon="10.373947719692744"><ele>161.0</ele><time>2026-04-03T07:52:11Z</time></trkpt><trkpt lat="45.52278223517494" lon="10.373857407980994"><ele>161.0</ele><time>2026-04-03T07:52:12Z</time></trkpt><trkpt lat="45.52277095010474" lon="10.373765870005922"><ele>161.0</ele><time>2026-04-03T07:52:13Z</time></trkpt><trkpt lat="45.522772447924766" lon="10.373620606098246"><ele>161.0</ele><time>2026-04-03T07:52:15Z</time></trkpt><trkpt lat="45.52276955023982" lon="10.373491621934988"><ele>161.0</ele><time>2026-04-03T07:52:17Z</time></trkpt><trkpt lat="45.52273440839818" lon="10.373364073797458"><ele>161.0</ele><time>2026-04-03T07:52:19Z</time></trkpt><trkpt lat="45.52274220389429" lon="10.373222158967419"><ele>161.20000000000002</ele><time>2026-04-03T07:52:21Z</time></trkpt><trkpt lat="45.52275841113509" lon="10.373054342546334"><ele>161.4</ele><time>2026-04-03T07:52:24Z</time></trkpt><trkpt lat="45.52275097006189" lon="10.372962272956672"><ele>161.6</ele><time>2026-04-03T07:52:25Z</time></trkpt><trkpt lat="45.522743438821834" lon="10.37280577665056"><ele>161.8</ele><time>2026-04-03T07:52:27Z</time></trkpt><trkpt lat="45.52272291178775" lon="10.372705399592867"><ele>162.0</ele><time>2026-04-03T07:52:29Z</time></trkpt><trkpt lat="45.52263600904426" lon="10.3727070024214"><ele>161.66666666666666</ele><time>2026-04-03T07:52:31Z</time></trkpt><trkpt lat="45.52256508206651" lon="10.372713032827331"><ele>161.33333333333334</ele><time>2026-04-03T07:52:33Z</time></trkpt><trkpt lat="45.52251877988713" lon="10.372776399292595"><ele>161.0</ele><time>2026-04-03T07:52:34Z</time></trkpt><trkpt lat="45.52244345992308" lon="10.37277241753501"><ele>160.66666666666669</ele><time>2026-04-03T07:52:36Z</time></trkpt><trkpt lat="45.52234857201213" lon="10.372767401428208"><ele>160.33333333333334</ele><time>2026-04-03T07:52:38Z</time></trkpt><trkpt lat="45.52226910297193" lon="10.372773789600695"><ele>160.0</ele><time>2026-04-03T07:52:40Z</time></trkpt><trkpt lat="45.52217298682186" lon="10.372800729922622"><ele>160.0</ele><time>2026-04-03T07:52:42Z</time></trkpt><trkpt lat="45.52208127188773" lon="10.372825957261043"><ele>160.0</ele><time>2026-04-03T07:52:44Z</time></trkpt><trkpt lat="45.52197998024091" lon="10.372832568172688"><ele>160.0</ele><time>2026-04-03T07:52:46Z</time></trkpt><trkpt lat="45.521857957118605" lon="10.37280342180124"><ele>160.0</ele><time>2026-04-03T07:52:49Z</time></trkpt><trkpt lat="45.52179644845232" lon="10.372767516529906"><ele>160.0</ele><time>2026-04-03T07:52:50Z</time></trkpt><trkpt lat="45.52169749598755" lon="10.372677879704957"><ele>159.8</ele><time>2026-04-03T07:52:52Z</time></trkpt><trkpt lat="45.5215916826943" lon="10.372581236687816"><ele>159.6</ele><time>2026-04-03T07:52:54Z</time></trkpt><trkpt lat="45.52153509259877" lon="10.372376753202506"><ele>159.4</ele><time>2026-04-03T07:52:56Z</time></trkpt><trkpt lat="45.521486352890896" lon="10.372310475890895"><ele>159.2</ele><time>2026-04-03T07:52:57Z</time></trkpt><trkpt lat="45.52144823812773" lon="10.37223627432471"><ele>159.0</ele><time>2026-04-03T07:52:58Z</time></trkpt><trkpt lat="45.52140604319632" lon="10.372160229240917"><ele>159.25</ele><time>2026-04-03T07:52:59Z</time></trkpt><trkpt lat="45.521330615519965" lon="10.372034059781804"><ele>159.5</ele><time>2026-04-03T07:53:01Z</time></trkpt><trkpt lat="45.52124655492257" lon="10.371898362805485"><ele>159.75</ele><time>2026-04-03T07:53:03Z</time></trkpt><trkpt lat="45.52116786297152" lon="10.37177301805065"><ele>160.0</ele><time>2026-04-03T07:53:05Z</time></trkpt><trkpt lat="45.5210897855215" lon="10.371640584035369"><ele>160.0</ele><time>2026-04-03T07:53:07Z</time></trkpt><trkpt lat="45.52101198295523" lon="10.371510207849981"><ele>160.0</ele><time>2026-04-03T07:53:09Z</time></trkpt><trkpt lat="45.520933538548384" lon="10.371374539014594"><ele>160.0</ele><time>2026-04-03T07:53:11Z</time></trkpt><trkpt lat="45.52086402305662" lon="10.371279896881617"><ele>160.0</ele><time>2026-04-03T07:53:13Z</time></trkpt><trkpt lat="45.52080000196887" lon="10.37115880720596"><ele>160.0</ele><time>2026-04-03T07:53:15Z</time></trkpt><trkpt lat="45.52074347130547" lon="10.371064001391144"><ele>159.75</ele><time>2026-04-03T07:53:17Z</time></trkpt><trkpt lat="45.52065663283334" lon="10.37095117191812"><ele>159.5</ele><time>2026-04-03T07:53:19Z</time></trkpt><trkpt lat="45.52057835258026" lon="10.37081491701916"><ele>159.25</ele><time>2026-04-03T07:53:21Z</time></trkpt><trkpt lat="45.520503733163814" lon="10.370687675393807"><ele>159.0</ele><time>2026-04-03T07:53:23Z</time></trkpt><trkpt lat="45.52041976033796" lon="10.37056774835211"><ele>159.25</ele><time>2026-04-03T07:53:25Z</time></trkpt><trkpt lat="45.52033714067141" lon="10.37045301051558"><ele>159.5</ele><time>2026-04-03T07:53:27Z</time></trkpt><trkpt lat="45.520262257316524" lon="10.370331695545705"><ele>159.75</ele><time>2026-04-03T07:53:29Z</time></trkpt><trkpt lat="45.520182742934175" lon="10.370205883598521"><ele>160.0</ele><time>2026-04-03T07:53:31Z</time></trkpt><trkpt lat="45.52009996062232" lon="10.370106170030414"><ele>160.0</ele><time>2026-04-03T07:53:33Z</time></trkpt><trkpt lat="45.52005021100119" lon="10.370045721447049"><ele>160.0</ele><time>2026-04-03T07:53:34Z</time></trkpt><trkpt lat="45.5200117613775" lon="10.369973715165807"><ele>160.0</ele><time>2026-04-03T07:53:35Z</time></trkpt><trkpt lat="45.519975584219104" lon="10.369897994241299"><ele>160.0</ele><time>2026-04-03T07:53:36Z</time></trkpt><trkpt lat="45.519878800904515" lon="10.369786275656878"><ele>160.0</ele><time>2026-04-03T07:53:38Z</time></trkpt><trkpt lat="45.51979798564093" lon="10.36965277012255"><ele>160.0</ele><time>2026-04-03T07:53:40Z</time></trkpt><trkpt lat="45.51972020114164" lon="10.369508478386479"><ele>159.83333333333334</ele><time>2026-04-03T07:53:42Z</time></trkpt><trkpt lat="45.51967328632728" lon="10.369441784102806"><ele>159.66666666666669</ele><time>2026-04-03T07:53:43Z</time></trkpt><trkpt lat="45.51963695980399" lon="10.369367896361958"><ele>159.5</ele><time>2026-04-03T07:53:44Z</time></trkpt><trkpt lat="45.51955179244922" lon="10.369246985963443"><ele>159.33333333333334</ele><time>2026-04-03T07:53:46Z</time></trkpt><trkpt lat="45.519487159513375" lon="10.369123203981134"><ele>159.16666666666666</ele><time>2026-04-03T07:53:48Z</time></trkpt><trkpt lat="45.51943450273126" lon="10.369058871129996"><ele>159.0</ele><time>2026-04-03T07:53:49Z</time></trkpt><trkpt lat="45.51938976435273" lon="10.368995316414917"><ele>159.0</ele><time>2026-04-03T07:53:50Z</time></trkpt><trkpt lat="45.51934061572473" lon="10.368934065080259"><ele>159.0</ele><time>2026-04-03T07:53:51Z</time></trkpt><trkpt lat="45.519299397723564" lon="10.368863226593092"><ele>159.0</ele><time>2026-04-03T07:53:52Z</time></trkpt><trkpt lat="45.51925768758805" lon="10.368790124846937"><ele>159.0</ele><time>2026-04-03T07:53:53Z</time></trkpt><trkpt lat="45.51916923468468" lon="10.368654980058732"><ele>159.0</ele><time>2026-04-03T07:53:55Z</time></trkpt><trkpt lat="45.519119415906054" lon="10.368585214981573"><ele>159.0</ele><time>2026-04-03T07:53:56Z</time></trkpt><trkpt lat="45.51906991589699" lon="10.368518497517812"><ele>158.85714285714286</ele><time>2026-04-03T07:53:57Z</time></trkpt><trkpt lat="45.519023838273505" lon="10.36844985666957"><ele>158.71428571428572</ele><time>2026-04-03T07:53:58Z</time></trkpt><trkpt lat="45.51897264928578" lon="10.36839234476638"><ele>158.57142857142858</ele><time>2026-04-03T07:53:59Z</time></trkpt><trkpt lat="45.51892935596404" lon="10.368321241691312"><ele>158.42857142857144</ele><time>2026-04-03T07:54:00Z</time></trkpt><trkpt lat="45.518887591759395" lon="10.36824641956898"><ele>158.28571428571428</ele><time>2026-04-03T07:54:01Z</time></trkpt><trkpt lat="45.518839377522205" lon="10.368176431209772"><ele>158.14285714285717</ele><time>2026-04-03T07:54:02Z</time></trkpt><trkpt lat="45.51879557018559" lon="10.36810072031285"><ele>158.0</ele><time>2026-04-03T07:54:03Z</time></trkpt><trkpt lat="45.5187457281871" lon="10.368039626923714"><ele>157.8</ele><time>2026-04-03T07:54:04Z</time></trkpt><trkpt lat="45.518697975112374" lon="10.367976461543092"><ele>157.60000000000002</ele><time>2026-04-03T07:54:05Z</time></trkpt><trkpt lat="45.518618849360216" lon="10.367849064583751"><ele>157.39999999999998</ele><time>2026-04-03T07:54:07Z</time></trkpt><trkpt lat="45.51852771303789" lon="10.367752939413181"><ele>157.2</ele><time>2026-04-03T07:54:09Z</time></trkpt><trkpt lat="45.51844460811947" lon="10.36765031380493"><ele>157.0</ele><time>2026-04-03T07:54:11Z</time></trkpt><trkpt lat="45.518391397002766" lon="10.36758509350328"><ele>157.0</ele><time>2026-04-03T07:54:12Z</time></trkpt><trkpt lat="45.51834056363362" lon="10.367525381208313"><ele>157.0</ele><time>2026-04-03T07:54:13Z</time></trkpt><trkpt lat="45.518241344143" lon="10.367392177609789"><ele>157.0</ele><time>2026-04-03T07:54:15Z</time></trkpt><trkpt lat="45.51815158490491" lon="10.367312430561213"><ele>157.0</ele><time>2026-04-03T07:54:17Z</time></trkpt><trkpt lat="45.51806040379558" lon="10.367215904256861"><ele>157.0</ele><time>2026-04-03T07:54:19Z</time></trkpt><trkpt lat="45.51797046954095" lon="10.367121028260266"><ele>157.0</ele><time>2026-04-03T07:54:21Z</time></trkpt><trkpt lat="45.51788466638525" lon="10.367032279911399"><ele>157.0</ele><time>2026-04-03T07:54:23Z</time></trkpt><trkpt lat="45.517787543686055" lon="10.366931823637694"><ele>157.0</ele><time>2026-04-03T07:54:25Z</time></trkpt><trkpt lat="45.51769646647607" lon="10.366837922635044"><ele>157.0</ele><time>2026-04-03T07:54:27Z</time></trkpt><trkpt lat="45.51760193105791" lon="10.366741822304196"><ele>157.0</ele><time>2026-04-03T07:54:29Z</time></trkpt><trkpt lat="45.51750982027044" lon="10.366648186407485"><ele>157.0</ele><time>2026-04-03T07:54:31Z</time></trkpt><trkpt lat="45.517422013763245" lon="10.366558926344185"><ele>157.0</ele><time>2026-04-03T07:54:33Z</time></trkpt><trkpt lat="45.51733048462973" lon="10.366466533890955"><ele>157.0</ele><time>2026-04-03T07:54:35Z</time></trkpt><trkpt lat="45.51724104639921" lon="10.366376885348535"><ele>157.0</ele><time>2026-04-03T07:54:37Z</time></trkpt><trkpt lat="45.517142875093946" lon="10.366278483273499"><ele>157.0</ele><time>2026-04-03T07:54:39Z</time></trkpt><trkpt lat="45.51704954464087" lon="10.366184933430986"><ele>157.0</ele><time>2026-04-03T07:54:41Z</time></trkpt><trkpt lat="45.516956130847255" lon="10.36609129990748"><ele>157.0</ele><time>2026-04-03T07:54:43Z</time></trkpt><trkpt lat="45.51686219467057" lon="10.365997153424651"><ele>157.0</ele><time>2026-04-03T07:54:45Z</time></trkpt><trkpt lat="45.51676760866217" lon="10.365902345100395"><ele>157.0</ele><time>2026-04-03T07:54:47Z</time></trkpt><trkpt lat="45.51667551044886" lon="10.365810030179757"><ele>157.0</ele><time>2026-04-03T07:54:49Z</time></trkpt><trkpt lat="45.51657878188013" lon="10.365713074403393"><ele>157.0</ele><time>2026-04-03T07:54:51Z</time></trkpt><trkpt lat="45.516478102833624" lon="10.365612158586373"><ele>157.0</ele><time>2026-04-03T07:54:53Z</time></trkpt><trkpt lat="45.516380445732445" lon="10.365514383715043"><ele>157.0</ele><time>2026-04-03T07:54:55Z</time></trkpt><trkpt lat="45.51628064220925" lon="10.36541201073261"><ele>157.0</ele><time>2026-04-03T07:54:57Z</time></trkpt><trkpt lat="45.516183319561144" lon="10.365312182167742"><ele>157.0</ele><time>2026-04-03T07:54:59Z</time></trkpt><trkpt lat="45.516131277416854" lon="10.365258800161822"><ele>157.0</ele><time>2026-04-03T07:55:00Z</time></trkpt><trkpt lat="45.51603438954019" lon="10.36515953282858"><ele>157.0</ele><time>2026-04-03T07:55:02Z</time></trkpt><trkpt lat="45.515930556328016" lon="10.365054143084647"><ele>157.0</ele><time>2026-04-03T07:55:04Z</time></trkpt><trkpt lat="45.5158455782738" lon="10.364967890974278"><ele>157.0</ele><time>2026-04-03T07:55:06Z</time></trkpt><trkpt lat="45.51579397706669" lon="10.364915516527997"><ele>157.0</ele><time>2026-04-03T07:55:07Z</time></trkpt><trkpt lat="45.51570878015032" lon="10.364829042358911"><ele>157.0</ele><time>2026-04-03T07:55:09Z</time></trkpt><trkpt lat="45.515656724195125" lon="10.364776104457453"><ele>157.0</ele><time>2026-04-03T07:55:10Z</time></trkpt><trkpt lat="45.51555779687198" lon="10.364677364993945"><ele>156.75</ele><time>2026-04-03T07:55:12Z</time></trkpt><trkpt lat="45.515458702610665" lon="10.36457903050892"><ele>156.5</ele><time>2026-04-03T07:55:14Z</time></trkpt><trkpt lat="45.51536318057416" lon="10.364485121303133"><ele>156.25</ele><time>2026-04-03T07:55:16Z</time></trkpt><trkpt lat="45.51526451952964" lon="10.364388126243812"><ele>156.0</ele><time>2026-04-03T07:55:18Z</time></trkpt><trkpt lat="45.51516623199519" lon="10.364288558436042"><ele>156.0</ele><time>2026-04-03T07:55:20Z</time></trkpt><trkpt lat="45.51507355672448" lon="10.36418977723913"><ele>156.0</ele><time>2026-04-03T07:55:22Z</time></trkpt><trkpt lat="45.51498651472271" lon="10.364095326571716"><ele>156.0</ele><time>2026-04-03T07:55:24Z</time></trkpt><trkpt lat="45.51489910551166" lon="10.364003423526327"><ele>156.0</ele><time>2026-04-03T07:55:26Z</time></trkpt><trkpt lat="45.51480822427178" lon="10.363894257487592"><ele>155.75</ele><time>2026-04-03T07:55:28Z</time></trkpt><trkpt lat="45.51472327786006" lon="10.363772946468835"><ele>155.5</ele><time>2026-04-03T07:55:30Z</time></trkpt><trkpt lat="45.514625220490785" lon="10.36366892822982"><ele>155.25</ele><time>2026-04-03T07:55:32Z</time></trkpt><trkpt lat="45.514539292480485" lon="10.363555766906662"><ele>155.0</ele><time>2026-04-03T07:55:34Z</time></trkpt><trkpt lat="45.51446019721575" lon="10.363412083305269"><ele>155.0</ele><time>2026-04-03T07:55:36Z</time></trkpt><trkpt lat="45.51441526988414" lon="10.363347980442478"><ele>155.0</ele><time>2026-04-03T07:55:37Z</time></trkpt><trkpt lat="45.51438203250621" lon="10.363270198958153"><ele>155.0</ele><time>2026-04-03T07:55:38Z</time></trkpt><trkpt lat="45.51435683744496" lon="10.363182345373756"><ele>155.0</ele><time>2026-04-03T07:55:39Z</time></trkpt><trkpt lat="45.51429350611115" lon="10.363056173840981"><ele>155.0</ele><time>2026-04-03T07:55:41Z</time></trkpt><trkpt lat="45.51423709633311" lon="10.362924942110109"><ele>155.0</ele><time>2026-04-03T07:55:43Z</time></trkpt><trkpt lat="45.51418665032849" lon="10.36280192024551"><ele>155.5</ele><time>2026-04-03T07:55:45Z</time></trkpt><trkpt lat="45.51414416824328" lon="10.362676020926859"><ele>156.0</ele><time>2026-04-03T07:55:47Z</time></trkpt><trkpt lat="45.514110586523806" lon="10.362531386290721"><ele>156.5</ele><time>2026-04-03T07:55:49Z</time></trkpt><trkpt lat="45.514065362514984" lon="10.362387116114851"><ele>157.0</ele><time>2026-04-03T07:55:51Z</time></trkpt><trkpt lat="45.51439938142113" lon="10.362103073444077"><ele>157.25</ele><time>2026-04-03T07:55:52Z</time></trkpt><trkpt lat="45.51441869107742" lon="10.361936344602535"><ele>157.5</ele><time>2026-04-03T07:55:54Z</time></trkpt><trkpt lat="45.51442506019941" lon="10.361763813368892"><ele>157.75</ele><time>2026-04-03T07:55:56Z</time></trkpt><trkpt lat="45.51445287435222" lon="10.361605374042126"><ele>158.0</ele><time>2026-04-03T07:55:58Z</time></trkpt><trkpt lat="45.51443528090563" lon="10.361435954951618"><ele>157.6</ele><time>2026-04-03T07:56:00Z</time></trkpt><trkpt lat="45.514436236652685" lon="10.361290705286715"><ele>157.20000000000002</ele><time>2026-04-03T07:56:02Z</time></trkpt><trkpt lat="45.51443416948855" lon="10.361143426312013"><ele>156.8</ele><time>2026-04-03T07:56:04Z</time></trkpt><trkpt lat="45.51442210999908" lon="10.360987554340474"><ele>156.4</ele><time>2026-04-03T07:56:06Z</time></trkpt><trkpt lat="45.5144174710535" lon="10.36084102495143"><ele>156.0</ele><time>2026-04-03T07:56:08Z</time></trkpt><trkpt lat="45.514430064178114" lon="10.360704097706067"><ele>156.0</ele><time>2026-04-03T07:56:10Z</time></trkpt><trkpt lat="45.51443221274885" lon="10.36056576276129"><ele>156.0</ele><time>2026-04-03T07:56:12Z</time></trkpt><trkpt lat="45.514444757927805" lon="10.360421690859498"><ele>156.0</ele><time>2026-04-03T07:56:14Z</time></trkpt><trkpt lat="45.514455901527434" lon="10.360258678547572"><ele>156.0</ele><time>2026-04-03T07:56:16Z</time></trkpt><trkpt lat="45.51446105434911" lon="10.36011763490427"><ele>156.0</ele><time>2026-04-03T07:56:18Z</time></trkpt><trkpt lat="45.5144603113769" lon="10.359966007692586"><ele>155.8</ele><time>2026-04-03T07:56:20Z</time></trkpt><trkpt lat="45.51446360712789" lon="10.359807285922816"><ele>155.6</ele><time>2026-04-03T07:56:22Z</time></trkpt><trkpt lat="45.51445707085063" lon="10.3596675282579"><ele>155.4</ele><time>2026-04-03T07:56:24Z</time></trkpt><trkpt lat="45.514455318571464" lon="10.359535773417878"><ele>155.2</ele><time>2026-04-03T07:56:26Z</time></trkpt><trkpt lat="45.514454495051766" lon="10.359411678713572"><ele>155.0</ele><time>2026-04-03T07:56:28Z</time></trkpt><trkpt lat="45.51446091802561" lon="10.359269758134014"><ele>155.0</ele><time>2026-04-03T07:56:30Z</time></trkpt><trkpt lat="45.51447364135882" lon="10.359113442909234"><ele>155.0</ele><time>2026-04-03T07:56:32Z</time></trkpt><trkpt lat="45.51447461569195" lon="10.358963073432541"><ele>155.0</ele><time>2026-04-03T07:56:34Z</time></trkpt><trkpt lat="45.514469768751646" lon="10.358860688319165"><ele>155.0</ele><time>2026-04-03T07:56:36Z</time></trkpt><trkpt lat="45.51447831698683" lon="10.358693716711853"><ele>155.0</ele><time>2026-04-03T07:56:38Z</time></trkpt><trkpt lat="45.51447202025828" lon="10.358528202643667"><ele>154.8</ele><time>2026-04-03T07:56:40Z</time></trkpt><trkpt lat="45.51448281733187" lon="10.358364238758547"><ele>154.6</ele><time>2026-04-03T07:56:42Z</time></trkpt><trkpt lat="45.51448304632596" lon="10.358203978551494"><ele>154.4</ele><time>2026-04-03T07:56:44Z</time></trkpt><trkpt lat="45.51448150713847" lon="10.358053953668268"><ele>154.2</ele><time>2026-04-03T07:56:46Z</time></trkpt><trkpt lat="45.514482693683384" lon="10.357897349474804"><ele>154.0</ele><time>2026-04-03T07:56:48Z</time></trkpt><trkpt lat="45.514477069455026" lon="10.357760864095518"><ele>154.0</ele><time>2026-04-03T07:56:50Z</time></trkpt><trkpt lat="45.51448167641038" lon="10.357620731713059"><ele>154.0</ele><time>2026-04-03T07:56:52Z</time></trkpt><trkpt lat="45.51448506538056" lon="10.35749738249835"><ele>154.0</ele><time>2026-04-03T07:56:54Z</time></trkpt><trkpt lat="45.514486711718064" lon="10.357359529067338"><ele>154.0</ele><time>2026-04-03T07:56:56Z</time></trkpt><trkpt lat="45.514493421952125" lon="10.357232490169054"><ele>154.0</ele><time>2026-04-03T07:56:58Z</time></trkpt><trkpt lat="45.514501795039514" lon="10.35708738821414"><ele>154.16666666666669</ele><time>2026-04-03T07:57:00Z</time></trkpt><trkpt lat="45.51450399904452" lon="10.356947495599265"><ele>154.33333333333334</ele><time>2026-04-03T07:57:02Z</time></trkpt><trkpt lat="45.514513400992556" lon="10.356824169137107"><ele>154.5</ele><time>2026-04-03T07:57:04Z</time></trkpt><trkpt lat="45.51450536073972" lon="10.356716157249764"><ele>154.66666666666666</ele><time>2026-04-03T07:57:06Z</time></trkpt><trkpt lat="45.514502693811394" lon="10.356617393483807"><ele>154.83333333333331</ele><time>2026-04-03T07:57:08Z</time></trkpt><trkpt lat="45.51449262641736" lon="10.356506018399992"><ele>155.0</ele><time>2026-04-03T07:57:13Z</time></trkpt><trkpt lat="45.51447542714154" lon="10.356393256980134"><ele>155.2</ele><time>2026-04-03T07:57:15Z</time></trkpt><trkpt lat="45.514471171019494" lon="10.356266873711126"><ele>155.4</ele><time>2026-04-03T07:57:17Z</time></trkpt><trkpt lat="45.51448580679134" lon="10.356135982736436"><ele>155.6</ele><time>2026-04-03T07:57:19Z</time></trkpt><trkpt lat="45.5144940977049" lon="10.356008220790027"><ele>155.8</ele><time>2026-04-03T07:57:21Z</time></trkpt><trkpt lat="45.514495466716944" lon="10.35586103737891"><ele>156.0</ele><time>2026-04-03T07:57:23Z</time></trkpt><trkpt lat="45.51450872798124" lon="10.355700265923755"><ele>156.0</ele><time>2026-04-03T07:57:25Z</time></trkpt><trkpt lat="45.51451353696148" lon="10.355538485058162"><ele>156.0</ele><time>2026-04-03T07:57:27Z</time></trkpt><trkpt lat="45.5145175382265" lon="10.35538498131067"><ele>156.0</ele><time>2026-04-03T07:57:29Z</time></trkpt><trkpt lat="45.51451665177939" lon="10.355222929119309"><ele>156.0</ele><time>2026-04-03T07:57:31Z</time></trkpt><trkpt lat="45.514522923619374" lon="10.355066499132485"><ele>156.0</ele><time>2026-04-03T07:57:33Z</time></trkpt><trkpt lat="45.51453644724445" lon="10.3548947133666"><ele>156.0</ele><time>2026-04-03T07:57:35Z</time></trkpt><trkpt lat="45.51454218662623" lon="10.354727015124041"><ele>156.0</ele><time>2026-04-03T07:57:37Z</time></trkpt><trkpt lat="45.51455066589026" lon="10.354564510725728"><ele>156.0</ele><time>2026-04-03T07:57:39Z</time></trkpt><trkpt lat="45.51455181084764" lon="10.354402369940416"><ele>156.0</ele><time>2026-04-03T07:57:41Z</time></trkpt><trkpt lat="45.51455545192347" lon="10.35424051710123"><ele>156.0</ele><time>2026-04-03T07:57:43Z</time></trkpt><trkpt lat="45.51456073872488" lon="10.354083797254502"><ele>156.0</ele><time>2026-04-03T07:57:45Z</time></trkpt><trkpt lat="45.514563173396276" lon="10.353927059414044"><ele>156.0</ele><time>2026-04-03T07:57:47Z</time></trkpt><trkpt lat="45.51456424627395" lon="10.353768064688046"><ele>156.0</ele><time>2026-04-03T07:57:49Z</time></trkpt><trkpt lat="45.514569837438124" lon="10.353614331456914"><ele>156.0</ele><time>2026-04-03T07:57:51Z</time></trkpt><trkpt lat="45.5145686851378" lon="10.353465783361099"><ele>155.8</ele><time>2026-04-03T07:57:53Z</time></trkpt><trkpt lat="45.514574338433604" lon="10.353316298603824"><ele>155.6</ele><time>2026-04-03T07:57:55Z</time></trkpt><trkpt lat="45.514575440746846" lon="10.353162622280166"><ele>155.4</ele><time>2026-04-03T07:57:57Z</time></trkpt><trkpt lat="45.5145775335591" lon="10.353041821831543"><ele>155.2</ele><time>2026-04-03T07:57:59Z</time></trkpt><trkpt lat="45.51458093651141" lon="10.352909061863107"><ele>155.0</ele><time>2026-04-03T07:58:01Z</time></trkpt><trkpt lat="45.51458206500144" lon="10.3527758837279"><ele>155.0</ele><time>2026-04-03T07:58:03Z</time></trkpt><trkpt lat="45.51459464020425" lon="10.352654171716633"><ele>155.0</ele><time>2026-04-03T07:58:05Z</time></trkpt><trkpt lat="45.51460478072059" lon="10.352503656984107"><ele>155.0</ele><time>2026-04-03T07:58:07Z</time></trkpt><trkpt lat="45.51455350870516" lon="10.352396343830945"><ele>155.0</ele><time>2026-04-03T07:58:09Z</time></trkpt><trkpt lat="45.51450792808731" lon="10.352308755018479"><ele>155.0</ele><time>2026-04-03T07:58:11Z</time></trkpt><trkpt lat="45.51447450363092" lon="10.352194743738382"><ele>155.0</ele><time>2026-04-03T07:58:13Z</time></trkpt><trkpt lat="45.5144299932778" lon="10.352117620966242"><ele>155.0</ele><time>2026-04-03T07:58:15Z</time></trkpt><trkpt lat="45.514380787594774" lon="10.352034299609594"><ele>155.0</ele><time>2026-04-03T07:58:17Z</time></trkpt><trkpt lat="45.514342569615756" lon="10.351945264286949"><ele>155.0</ele><time>2026-04-03T07:58:19Z</time></trkpt><trkpt lat="45.514495227061914" lon="10.351676745516766"><ele>155.0</ele><time>2026-04-03T07:58:20Z</time></trkpt><trkpt lat="45.51450926718007" lon="10.351519256354878"><ele>154.25</ele><time>2026-04-03T07:58:22Z</time></trkpt><trkpt lat="45.51451300871399" lon="10.351365334505791"><ele>153.5</ele><time>2026-04-03T07:58:24Z</time></trkpt><trkpt lat="45.514510116298766" lon="10.35120142368303"><ele>152.75</ele><time>2026-04-03T07:58:26Z</time></trkpt><trkpt lat="45.514514415377825" lon="10.351040235345934"><ele>152.0</ele><time>2026-04-03T07:58:28Z</time></trkpt><trkpt lat="45.51452090639254" lon="10.350872133484723"><ele>152.0</ele><time>2026-04-03T07:58:30Z</time></trkpt><trkpt lat="45.51451954579898" lon="10.350696742972602"><ele>152.0</ele><time>2026-04-03T07:58:32Z</time></trkpt><trkpt lat="45.51452456619302" lon="10.350606678653728"><ele>152.0</ele><time>2026-04-03T07:58:33Z</time></trkpt><trkpt lat="45.51452491798363" lon="10.350514847463089"><ele>152.0</ele><time>2026-04-03T07:58:34Z</time></trkpt><trkpt lat="45.514531658701095" lon="10.350346070319928"><ele>152.0</ele><time>2026-04-03T07:58:36Z</time></trkpt><trkpt lat="45.514528533190095" lon="10.350166467092684"><ele>152.0</ele><time>2026-04-03T07:58:38Z</time></trkpt><trkpt lat="45.514535041707944" lon="10.349991624378749"><ele>152.0</ele><time>2026-04-03T07:58:40Z</time></trkpt><trkpt lat="45.51453993281097" lon="10.349820903209274"><ele>152.0</ele><time>2026-04-03T07:58:42Z</time></trkpt><trkpt lat="45.514539188100954" lon="10.34964528406792"><ele>152.0</ele><time>2026-04-03T07:58:44Z</time></trkpt><trkpt lat="45.51454287777554" lon="10.34947870551542"><ele>152.0</ele><time>2026-04-03T07:58:46Z</time></trkpt><trkpt lat="45.514542798784305" lon="10.349319000049912"><ele>152.0</ele><time>2026-04-03T07:58:48Z</time></trkpt><trkpt lat="45.51453013894915" lon="10.349162021260433"><ele>152.0</ele><time>2026-04-03T07:58:50Z</time></trkpt><trkpt lat="45.51452889579527" lon="10.348994056448438"><ele>152.0</ele><time>2026-04-03T07:58:52Z</time></trkpt><trkpt lat="45.51452155951636" lon="10.348825249652354"><ele>151.79999999999998</ele><time>2026-04-03T07:58:54Z</time></trkpt><trkpt lat="45.51451453139604" lon="10.348657995397065"><ele>151.6</ele><time>2026-04-03T07:58:56Z</time></trkpt><trkpt lat="45.5145067784575" lon="10.348500307087892"><ele>151.39999999999998</ele><time>2026-04-03T07:58:58Z</time></trkpt><trkpt lat="45.514505964305044" lon="10.34840941417931"><ele>151.2</ele><time>2026-04-03T07:58:59Z</time></trkpt><trkpt lat="45.51450228963547" lon="10.348242687120214"><ele>151.0</ele><time>2026-04-03T07:59:01Z</time></trkpt><trkpt lat="45.514485750385084" lon="10.348097642937166"><ele>151.0</ele><time>2026-04-03T07:59:03Z</time></trkpt><trkpt lat="45.51447133722207" lon="10.347960104920046"><ele>151.0</ele><time>2026-04-03T07:59:05Z</time></trkpt><trkpt lat="45.514430426872636" lon="10.347839063906703"><ele>151.0</ele><time>2026-04-03T07:59:07Z</time></trkpt><trkpt lat="45.51436815478423" lon="10.347717676861679"><ele>151.0</ele><time>2026-04-03T07:59:09Z</time></trkpt><trkpt lat="45.51431349668687" lon="10.347587421954724"><ele>151.0</ele><time>2026-04-03T07:59:11Z</time></trkpt><trkpt lat="45.51426112296837" lon="10.347444242354848"><ele>151.0</ele><time>2026-04-03T07:59:13Z</time></trkpt><trkpt lat="45.5142045240348" lon="10.347288422701494"><ele>151.0</ele><time>2026-04-03T07:59:15Z</time></trkpt><trkpt lat="45.51417485138465" lon="10.347206014894038"><ele>151.0</ele><time>2026-04-03T07:59:16Z</time></trkpt><trkpt lat="45.514139187202794" lon="10.347118430732401"><ele>151.0</ele><time>2026-04-03T07:59:17Z</time></trkpt><trkpt lat="45.51410669310359" lon="10.347027781532676"><ele>151.0</ele><time>2026-04-03T07:59:18Z</time></trkpt><trkpt lat="45.51407136410061" lon="10.346946866330349"><ele>151.0</ele><time>2026-04-03T07:59:19Z</time></trkpt><trkpt lat="45.51403050550504" lon="10.346854042365198"><ele>151.5</ele><time>2026-04-03T07:59:21Z</time></trkpt><trkpt lat="45.513998820497726" lon="10.346720218656959"><ele>152.0</ele><time>2026-04-03T07:59:22Z</time></trkpt><trkpt lat="45.51396498077518" lon="10.34659047034393"><ele>152.5</ele><time>2026-04-03T07:59:24Z</time></trkpt><trkpt lat="45.51395045511919" lon="10.34647698312939"><ele>153.0</ele><time>2026-04-03T07:59:26Z</time></trkpt><trkpt lat="45.51392801956498" lon="10.34638039898686"><ele>153.5</ele><time>2026-04-03T07:59:28Z</time></trkpt><trkpt lat="45.51392907918338" lon="10.346275463850839"><ele>154.0</ele><time>2026-04-03T07:59:30Z</time></trkpt><trkpt lat="45.51389385929062" lon="10.346171647871559"><ele>154.4</ele><time>2026-04-03T07:59:32Z</time></trkpt><trkpt lat="45.51385120236389" lon="10.346065520116317"><ele>154.8</ele><time>2026-04-03T07:59:34Z</time></trkpt><trkpt lat="45.513809003783805" lon="10.345945695668883"><ele>155.2</ele><time>2026-04-03T07:59:36Z</time></trkpt><trkpt lat="45.513754883419004" lon="10.345812849418055"><ele>155.6</ele><time>2026-04-03T07:59:38Z</time></trkpt><trkpt lat="45.51369008253423" lon="10.345691028906927"><ele>156.0</ele><time>2026-04-03T07:59:40Z</time></trkpt><trkpt lat="45.513647677780625" lon="10.345563060038618"><ele>155.2</ele><time>2026-04-03T07:59:42Z</time></trkpt><trkpt lat="45.51359458057146" lon="10.345437014377826"><ele>154.39999999999998</ele><time>2026-04-03T07:59:44Z</time></trkpt><trkpt lat="45.51354478126916" lon="10.345306920723079"><ele>153.6</ele><time>2026-04-03T07:59:46Z</time></trkpt><trkpt lat="45.513489444921625" lon="10.345186953735181"><ele>152.79999999999998</ele><time>2026-04-03T07:59:48Z</time></trkpt><trkpt lat="45.513452859521166" lon="10.345051862488907"><ele>152.0</ele><time>2026-04-03T07:59:50Z</time></trkpt><trkpt lat="45.51339057049824" lon="10.344928211355942"><ele>152.0</ele><time>2026-04-03T07:59:52Z</time></trkpt><trkpt lat="45.5133263611301" lon="10.34479775694445"><ele>152.0</ele><time>2026-04-03T07:59:54Z</time></trkpt><trkpt lat="45.51325870837412" lon="10.344670332371862"><ele>152.0</ele><time>2026-04-03T07:59:56Z</time></trkpt><trkpt lat="45.51321795661865" lon="10.34452489277104"><ele>152.0</ele><time>2026-04-03T07:59:58Z</time></trkpt><trkpt lat="45.51315641721244" lon="10.34440167758946"><ele>152.0</ele><time>2026-04-03T08:00:00Z</time></trkpt><trkpt lat="45.513094707728065" lon="10.344269821952818"><ele>152.25</ele><time>2026-04-03T08:00:02Z</time></trkpt><trkpt lat="45.513031587826475" lon="10.344133291887442"><ele>152.5</ele><time>2026-04-03T08:00:04Z</time></trkpt><trkpt lat="45.51295815974344" lon="10.34400426597059"><ele>152.75</ele><time>2026-04-03T08:00:06Z</time></trkpt><trkpt lat="45.51289962803255" lon="10.34386724422644"><ele>153.0</ele><time>2026-04-03T08:00:08Z</time></trkpt><trkpt lat="45.512838993934174" lon="10.343738921846326"><ele>153.0</ele><time>2026-04-03T08:00:10Z</time></trkpt><trkpt lat="45.512777705883735" lon="10.343613711780701"><ele>153.0</ele><time>2026-04-03T08:00:12Z</time></trkpt><trkpt lat="45.51271364567044" lon="10.343487053198603"><ele>153.0</ele><time>2026-04-03T08:00:14Z</time></trkpt><trkpt lat="45.51264525776858" lon="10.343358636372034"><ele>153.0</ele><time>2026-04-03T08:00:16Z</time></trkpt><trkpt lat="45.51258044040532" lon="10.343226835341692"><ele>153.0</ele><time>2026-04-03T08:00:18Z</time></trkpt><trkpt lat="45.5125261620724" lon="10.343092337250292"><ele>153.0</ele><time>2026-04-03T08:00:20Z</time></trkpt><trkpt lat="45.51247354348665" lon="10.342959751980796"><ele>153.0</ele><time>2026-04-03T08:00:22Z</time></trkpt><trkpt lat="45.512394557097366" lon="10.342842936660794"><ele>153.0</ele><time>2026-04-03T08:00:24Z</time></trkpt><trkpt lat="45.51234216333199" lon="10.342723398283805"><ele>153.0</ele><time>2026-04-03T08:00:26Z</time></trkpt><trkpt lat="45.51229196999551" lon="10.34260012246059"><ele>153.0</ele><time>2026-04-03T08:00:28Z</time></trkpt><trkpt lat="45.51221642992548" lon="10.342472672191311"><ele>153.0</ele><time>2026-04-03T08:00:30Z</time></trkpt><trkpt lat="45.51218273922465" lon="10.342395354347454"><ele>153.0</ele><time>2026-04-03T08:00:31Z</time></trkpt><trkpt lat="45.51214118551204" lon="10.342297715267"><ele>153.0</ele><time>2026-04-03T08:00:32Z</time></trkpt><trkpt lat="45.512102280713556" lon="10.342187488678917"><ele>153.0</ele><time>2026-04-03T08:00:34Z</time></trkpt><trkpt lat="45.51204604073828" lon="10.342071535216439"><ele>153.0</ele><time>2026-04-03T08:00:36Z</time></trkpt><trkpt lat="45.51199910505333" lon="10.341989272276775"><ele>153.0</ele><time>2026-04-03T08:00:38Z</time></trkpt><trkpt lat="45.511959222241586" lon="10.34190951051677"><ele>152.20000000000002</ele><time>2026-04-03T08:00:40Z</time></trkpt><trkpt lat="45.51191446736516" lon="10.341808774855679"><ele>151.4</ele><time>2026-04-03T08:00:43Z</time></trkpt><trkpt lat="45.51189232948328" lon="10.341703727228042"><ele>150.60000000000002</ele><time>2026-04-03T08:00:45Z</time></trkpt><trkpt lat="45.511828584147096" lon="10.341581471501614"><ele>149.8</ele><time>2026-04-03T08:00:47Z</time></trkpt><trkpt lat="45.511777261908826" lon="10.341459277216902"><ele>149.0</ele><time>2026-04-03T08:00:49Z</time></trkpt><trkpt lat="45.51172423467708" lon="10.341332025159899"><ele>149.0</ele><time>2026-04-03T08:00:51Z</time></trkpt><trkpt lat="45.51166267655003" lon="10.341226469356434"><ele>149.0</ele><time>2026-04-03T08:00:53Z</time></trkpt><trkpt lat="45.51161628763174" lon="10.341123257035626"><ele>149.0</ele><time>2026-04-03T08:00:55Z</time></trkpt><trkpt lat="45.51156650775734" lon="10.341008602472682"><ele>149.0</ele><time>2026-04-03T08:00:57Z</time></trkpt><trkpt lat="45.511507006982384" lon="10.340913809743173"><ele>149.0</ele><time>2026-04-03T08:00:59Z</time></trkpt><trkpt lat="45.5114540502787" lon="10.340793887988891"><ele>149.0</ele><time>2026-04-03T08:01:01Z</time></trkpt><trkpt lat="45.51139496589952" lon="10.340703477393795"><ele>149.0</ele><time>2026-04-03T08:01:03Z</time></trkpt><trkpt lat="45.51134106555992" lon="10.340608607210092"><ele>149.0</ele><time>2026-04-03T08:01:05Z</time></trkpt><trkpt lat="45.51128924378063" lon="10.340481755166133"><ele>149.0</ele><time>2026-04-03T08:01:07Z</time></trkpt><trkpt lat="45.51123097363823" lon="10.340374455549908"><ele>149.0</ele><time>2026-04-03T08:01:09Z</time></trkpt><trkpt lat="45.5111801118788" lon="10.34025152164573"><ele>149.2</ele><time>2026-04-03T08:01:11Z</time></trkpt><trkpt lat="45.511126846316444" lon="10.340141557240951"><ele>149.4</ele><time>2026-04-03T08:01:13Z</time></trkpt><trkpt lat="45.511071634038075" lon="10.340030369564706"><ele>149.6</ele><time>2026-04-03T08:01:15Z</time></trkpt><trkpt lat="45.51102372643922" lon="10.339915138229248"><ele>149.8</ele><time>2026-04-03T08:01:17Z</time></trkpt><trkpt lat="45.51097312552072" lon="10.339796694501663"><ele>150.0</ele><time>2026-04-03T08:01:19Z</time></trkpt><trkpt lat="45.510934974740074" lon="10.339681533610117"><ele>150.0</ele><time>2026-04-03T08:01:21Z</time></trkpt><trkpt lat="45.51087845709196" lon="10.339556591565191"><ele>150.0</ele><time>2026-04-03T08:01:23Z</time></trkpt><trkpt lat="45.510816852476886" lon="10.339450676878519"><ele>150.0</ele><time>2026-04-03T08:01:25Z</time></trkpt><trkpt lat="45.51076876096073" lon="10.339336712095816"><ele>150.0</ele><time>2026-04-03T08:01:27Z</time></trkpt><trkpt lat="45.51073157557757" lon="10.339227335329639"><ele>150.0</ele><time>2026-04-03T08:01:29Z</time></trkpt><trkpt lat="45.51067707036201" lon="10.33913158767963"><ele>150.0</ele><time>2026-04-03T08:01:31Z</time></trkpt><trkpt lat="45.51060980635895" lon="10.339016502398751"><ele>150.0</ele><time>2026-04-03T08:01:33Z</time></trkpt><trkpt lat="45.510553289535444" lon="10.338888782457712"><ele>150.0</ele><time>2026-04-03T08:01:35Z</time></trkpt><trkpt lat="45.51050035012965" lon="10.338759282563684"><ele>150.0</ele><time>2026-04-03T08:01:37Z</time></trkpt><trkpt lat="45.51042776029917" lon="10.338624172171718"><ele>150.0</ele><time>2026-04-03T08:01:39Z</time></trkpt><trkpt lat="45.510361224768666" lon="10.338494111924277"><ele>150.0</ele><time>2026-04-03T08:01:41Z</time></trkpt><trkpt lat="45.510302476841474" lon="10.338345819961683"><ele>150.0</ele><time>2026-04-03T08:01:43Z</time></trkpt><trkpt lat="45.510262843988556" lon="10.338274746419962"><ele>150.0</ele><time>2026-04-03T08:01:44Z</time></trkpt><trkpt lat="45.510216472622986" lon="10.338139259090395"><ele>150.0</ele><time>2026-04-03T08:01:46Z</time></trkpt><trkpt lat="45.51014575041819" lon="10.338030150389093"><ele>150.0</ele><time>2026-04-03T08:01:48Z</time></trkpt><trkpt lat="45.510086408033736" lon="10.337881600362422"><ele>150.0</ele><time>2026-04-03T08:01:50Z</time></trkpt><trkpt lat="45.51004764641714" lon="10.33780286565791"><ele>150.0</ele><time>2026-04-03T08:01:51Z</time></trkpt><trkpt lat="45.50998914796419" lon="10.337671928846577"><ele>150.0</ele><time>2026-04-03T08:01:53Z</time></trkpt><trkpt lat="45.509923078813785" lon="10.337528199742456"><ele>150.0</ele><time>2026-04-03T08:01:55Z</time></trkpt><trkpt lat="45.50985105582648" lon="10.337398740718774"><ele>150.0</ele><time>2026-04-03T08:01:57Z</time></trkpt><trkpt lat="45.50978141336765" lon="10.337270076405474"><ele>150.0</ele><time>2026-04-03T08:01:59Z</time></trkpt><trkpt lat="45.50974768629143" lon="10.337187819144505"><ele>150.0</ele><time>2026-04-03T08:02:00Z</time></trkpt><trkpt lat="45.50967887675419" lon="10.337047653675302"><ele>150.0</ele><time>2026-04-03T08:02:02Z</time></trkpt><trkpt lat="45.50961534744855" lon="10.33692102365844"><ele>150.0</ele><time>2026-04-03T08:02:04Z</time></trkpt><trkpt lat="45.5095371253049" lon="10.33680029758168"><ele>150.0</ele><time>2026-04-03T08:02:06Z</time></trkpt><trkpt lat="45.50947081203367" lon="10.336659470583708"><ele>149.8</ele><time>2026-04-03T08:02:08Z</time></trkpt><trkpt lat="45.509404600863846" lon="10.336528594800727"><ele>149.6</ele><time>2026-04-03T08:02:10Z</time></trkpt><trkpt lat="45.509339122538215" lon="10.336392976855587"><ele>149.4</ele><time>2026-04-03T08:02:12Z</time></trkpt><trkpt lat="45.509275493488516" lon="10.336264602196767"><ele>149.2</ele><time>2026-04-03T08:02:14Z</time></trkpt><trkpt lat="45.509201624092434" lon="10.33615245220908"><ele>149.0</ele><time>2026-04-03T08:02:16Z</time></trkpt><trkpt lat="45.50912569659222" lon="10.33604292289377"><ele>149.0</ele><time>2026-04-03T08:02:18Z</time></trkpt><trkpt lat="45.50906707202148" lon="10.335948289671018"><ele>149.0</ele><time>2026-04-03T08:02:20Z</time></trkpt><trkpt lat="45.50900740771495" lon="10.335869557093561"><ele>149.0</ele><time>2026-04-03T08:02:22Z</time></trkpt><trkpt lat="45.50895034496923" lon="10.33578690849562"><ele>149.0</ele><time>2026-04-03T08:02:24Z</time></trkpt><trkpt lat="45.50888948960527" lon="10.335705090612075"><ele>149.0</ele><time>2026-04-03T08:02:26Z</time></trkpt><trkpt lat="45.508847406444566" lon="10.335614175931028"><ele>149.0</ele><time>2026-04-03T08:02:28Z</time></trkpt><trkpt lat="45.50881482966998" lon="10.335529442904543"><ele>149.0</ele><time>2026-04-03T08:02:30Z</time></trkpt><trkpt lat="45.50877735354099" lon="10.335411692984412"><ele>149.0</ele><time>2026-04-03T08:02:33Z</time></trkpt><trkpt lat="45.50879746002774" lon="10.335300930098244"><ele>149.0</ele><time>2026-04-03T08:02:35Z</time></trkpt><trkpt lat="45.5087959481176" lon="10.335164123211328"><ele>149.0</ele><time>2026-04-03T08:02:37Z</time></trkpt><trkpt lat="45.50872408159356" lon="10.335104708629101"><ele>149.0</ele><time>2026-04-03T08:02:39Z</time></trkpt><trkpt lat="45.508644375045215" lon="10.334991986357947"><ele>149.0</ele><time>2026-04-03T08:02:41Z</time></trkpt><trkpt lat="45.508550767725104" lon="10.334912437121414"><ele>149.0</ele><time>2026-04-03T08:02:43Z</time></trkpt><trkpt lat="45.50847553680832" lon="10.334837088797231"><ele>149.0</ele><time>2026-04-03T08:02:45Z</time></trkpt><trkpt lat="45.50836171904381" lon="10.334873041676003"><ele>149.0</ele><time>2026-04-03T08:02:47Z</time></trkpt><trkpt lat="45.50826604071112" lon="10.334818667454984"><ele>149.0</ele><time>2026-04-03T08:02:49Z</time></trkpt><trkpt lat="45.50816226380062" lon="10.334759687888027"><ele>149.2</ele><time>2026-04-03T08:02:51Z</time></trkpt><trkpt lat="45.5080743168316" lon="10.334709704789875"><ele>149.4</ele><time>2026-04-03T08:02:53Z</time></trkpt><trkpt lat="45.50800607850768" lon="10.33453956250719"><ele>149.6</ele><time>2026-04-03T08:02:55Z</time></trkpt><trkpt lat="45.5079130645083" lon="10.334493666753572"><ele>149.8</ele><time>2026-04-03T08:02:57Z</time></trkpt><trkpt lat="45.5078471934409" lon="10.334575945588925"><ele>150.0</ele><time>2026-04-03T08:02:58Z</time></trkpt><trkpt lat="45.50776503243107" lon="10.334537460896046"><ele>150.0</ele><time>2026-04-03T08:03:00Z</time></trkpt><trkpt lat="45.50767334265686" lon="10.334494512822205"><ele>150.0</ele><time>2026-04-03T08:03:02Z</time></trkpt><trkpt lat="45.507649305350895" lon="10.334245758901849"><ele>150.0</ele><time>2026-04-03T08:03:04Z</time></trkpt><trkpt lat="45.507584982543726" lon="10.33419589324252"><ele>150.0</ele><time>2026-04-03T08:03:06Z</time></trkpt><trkpt lat="45.507525111146805" lon="10.334282052727062"><ele>150.0</ele><time>2026-04-03T08:03:07Z</time></trkpt><trkpt lat="45.507445433174276" lon="10.334248674834956"><ele>150.0</ele><time>2026-04-03T08:03:09Z</time></trkpt><trkpt lat="45.50735839168371" lon="10.334212210356288"><ele>150.0</ele><time>2026-04-03T08:03:11Z</time></trkpt><trkpt lat="45.507356130425684" lon="10.334053516418086"><ele>150.0</ele><time>2026-04-03T08:03:12Z</time></trkpt><trkpt lat="45.507300547939415" lon="10.3339840286706"><ele>150.0</ele><time>2026-04-03T08:03:14Z</time></trkpt><trkpt lat="45.50721445982191" lon="10.333921246066067"><ele>150.0</ele><time>2026-04-03T08:03:17Z</time></trkpt><trkpt lat="45.5071420990123" lon="10.333862805009453"><ele>150.0</ele><time>2026-04-03T08:03:19Z</time></trkpt><trkpt lat="45.507092561580635" lon="10.333795229812033"><ele>150.0</ele><time>2026-04-03T08:03:23Z</time></trkpt><trkpt lat="45.507180312327215" lon="10.333833255058027"><ele>150.0</ele><time>2026-04-03T08:05:53Z</time></trkpt><trkpt lat="45.50724460280745" lon="10.333861786972129"><ele>150.0</ele><time>2026-04-03T08:05:55Z</time></trkpt><trkpt lat="45.50732620304269" lon="10.333901104230636"><ele>150.0</ele><time>2026-04-03T08:05:58Z</time></trkpt><trkpt lat="45.50738684952752" lon="10.333947193386175"><ele>150.0</ele><time>2026-04-03T08:06:00Z</time></trkpt><trkpt lat="45.5074946422577" lon="10.334014477017984"><ele>150.0</ele><time>2026-04-03T08:06:02Z</time></trkpt><trkpt lat="45.507574534136126" lon="10.334044866398022"><ele>150.0</ele><time>2026-04-03T08:06:04Z</time></trkpt><trkpt lat="45.50762914467772" lon="10.334099429227157"><ele>150.0</ele><time>2026-04-03T08:06:06Z</time></trkpt><trkpt lat="45.50775582278799" lon="10.334133191814434"><ele>150.0</ele><time>2026-04-03T08:06:08Z</time></trkpt><trkpt lat="45.50782871517028" lon="10.334174678221656"><ele>150.0</ele><time>2026-04-03T08:06:09Z</time></trkpt><trkpt lat="45.50791450630043" lon="10.334252269966827"><ele>150.0</ele><time>2026-04-03T08:06:11Z</time></trkpt><trkpt lat="45.50800714091488" lon="10.334328964923591"><ele>150.0</ele><time>2026-04-03T08:06:13Z</time></trkpt><trkpt lat="45.508085746307856" lon="10.334409558454826"><ele>150.0</ele><time>2026-04-03T08:06:15Z</time></trkpt><trkpt lat="45.508171956690845" lon="10.334478251843555"><ele>150.0</ele><time>2026-04-03T08:06:17Z</time></trkpt><trkpt lat="45.50824754770563" lon="10.334550152296563"><ele>150.0</ele><time>2026-04-03T08:06:19Z</time></trkpt><trkpt lat="45.50832757623167" lon="10.334624749221968"><ele>150.0</ele><time>2026-04-03T08:06:21Z</time></trkpt><trkpt lat="45.50840384934425" lon="10.334688798375563"><ele>150.0</ele><time>2026-04-03T08:06:23Z</time></trkpt><trkpt lat="45.50847909229412" lon="10.334740189457577"><ele>150.0</ele><time>2026-04-03T08:06:25Z</time></trkpt><trkpt lat="45.508570372276914" lon="10.33481757096463"><ele>150.0</ele><time>2026-04-03T08:06:27Z</time></trkpt><trkpt lat="45.50864324288366" lon="10.334899603813316"><ele>150.0</ele><time>2026-04-03T08:06:29Z</time></trkpt><trkpt lat="45.50871119043081" lon="10.334986016150227"><ele>149.83333333333334</ele><time>2026-04-03T08:06:31Z</time></trkpt><trkpt lat="45.50876137011007" lon="10.335083618107532"><ele>149.66666666666666</ele><time>2026-04-03T08:06:33Z</time></trkpt><trkpt lat="45.50882190155493" lon="10.335184458552591"><ele>149.5</ele><time>2026-04-03T08:06:35Z</time></trkpt><trkpt lat="45.50882194355091" lon="10.335296825751312"><ele>149.33333333333331</ele><time>2026-04-03T08:06:37Z</time></trkpt><trkpt lat="45.50881617342127" lon="10.3354186959058"><ele>149.16666666666666</ele><time>2026-04-03T08:06:40Z</time></trkpt><trkpt lat="45.50884938477124" lon="10.335517683652347"><ele>149.0</ele><time>2026-04-03T08:06:42Z</time></trkpt><trkpt lat="45.50889921101169" lon="10.335618777364802"><ele>149.0</ele><time>2026-04-03T08:06:44Z</time></trkpt><trkpt lat="45.50895717962949" lon="10.33571415381968"><ele>149.0</ele><time>2026-04-03T08:06:46Z</time></trkpt><trkpt lat="45.50902290245278" lon="10.335801456814783"><ele>149.0</ele><time>2026-04-03T08:06:48Z</time></trkpt><trkpt lat="45.50908392699726" lon="10.335887731189748"><ele>149.0</ele><time>2026-04-03T08:06:50Z</time></trkpt><trkpt lat="45.509147718944725" lon="10.335996226198503"><ele>149.0</ele><time>2026-04-03T08:06:52Z</time></trkpt><trkpt lat="45.5092121781476" lon="10.336088331316152"><ele>149.0</ele><time>2026-04-03T08:06:54Z</time></trkpt><trkpt lat="45.509275362466596" lon="10.336187876860995"><ele>149.0</ele><time>2026-04-03T08:06:56Z</time></trkpt><trkpt lat="45.5093252951092" lon="10.336305941842001"><ele>149.0</ele><time>2026-04-03T08:06:58Z</time></trkpt><trkpt lat="45.50938158925761" lon="10.33642678691773"><ele>149.0</ele><time>2026-04-03T08:07:00Z</time></trkpt><trkpt lat="45.50944675249513" lon="10.336546976060582"><ele>149.0</ele><time>2026-04-03T08:07:02Z</time></trkpt><trkpt lat="45.50950879552099" lon="10.336676399583263"><ele>148.8</ele><time>2026-04-03T08:07:04Z</time></trkpt><trkpt lat="45.50956956446176" lon="10.33680605365476"><ele>148.60000000000002</ele><time>2026-04-03T08:07:06Z</time></trkpt><trkpt lat="45.50963679840653" lon="10.336933365847518"><ele>148.4</ele><time>2026-04-03T08:07:08Z</time></trkpt><trkpt lat="45.50970098383078" lon="10.337063629407629"><ele>148.20000000000002</ele><time>2026-04-03T08:07:10Z</time></trkpt><trkpt lat="45.50976545348809" lon="10.3371967409262"><ele>148.0</ele><time>2026-04-03T08:07:12Z</time></trkpt><trkpt lat="45.5098246248248" lon="10.33733314616349"><ele>148.4</ele><time>2026-04-03T08:07:14Z</time></trkpt><trkpt lat="45.50988836617545" lon="10.337462457002635"><ele>148.8</ele><time>2026-04-03T08:07:16Z</time></trkpt><trkpt lat="45.50995318681856" lon="10.337595345760448"><ele>149.2</ele><time>2026-04-03T08:07:18Z</time></trkpt><trkpt lat="45.5100083134246" lon="10.337728772356305"><ele>149.6</ele><time>2026-04-03T08:07:20Z</time></trkpt><trkpt lat="45.51007452307467" lon="10.337852810942213"><ele>150.0</ele><time>2026-04-03T08:07:22Z</time></trkpt><trkpt lat="45.51014033278207" lon="10.337977240326548"><ele>150.0</ele><time>2026-04-03T08:07:24Z</time></trkpt><trkpt lat="45.51020667877364" lon="10.338098556493334"><ele>150.0</ele><time>2026-04-03T08:07:26Z</time></trkpt><trkpt lat="45.510251390254865" lon="10.33821106418905"><ele>150.0</ele><time>2026-04-03T08:07:28Z</time></trkpt><trkpt lat="45.51032779233819" lon="10.338337219198927"><ele>150.0</ele><time>2026-04-03T08:07:30Z</time></trkpt><trkpt lat="45.510396033513096" lon="10.338448200353884"><ele>150.0</ele><time>2026-04-03T08:07:32Z</time></trkpt><trkpt lat="45.510464816638574" lon="10.338563112726579"><ele>150.0</ele><time>2026-04-03T08:07:34Z</time></trkpt><trkpt lat="45.51051665065761" lon="10.338663865496178"><ele>150.0</ele><time>2026-04-03T08:07:36Z</time></trkpt><trkpt lat="45.51055563424948" lon="10.338759526892302"><ele>150.0</ele><time>2026-04-03T08:07:38Z</time></trkpt><trkpt lat="45.51060960188347" lon="10.33885918261236"><ele>150.0</ele><time>2026-04-03T08:07:40Z</time></trkpt><trkpt lat="45.510663659521406" lon="10.338996957302369"><ele>150.0</ele><time>2026-04-03T08:07:42Z</time></trkpt><trkpt lat="45.5107421848034" lon="10.339133285524742"><ele>150.0</ele><time>2026-04-03T08:07:44Z</time></trkpt><trkpt lat="45.51078641085575" lon="10.339268310611992"><ele>150.0</ele><time>2026-04-03T08:07:46Z</time></trkpt><trkpt lat="45.51085231554213" lon="10.339408973473772"><ele>150.0</ele><time>2026-04-03T08:07:48Z</time></trkpt><trkpt lat="45.51091574162667" lon="10.339547843486923"><ele>150.0</ele><time>2026-04-03T08:07:50Z</time></trkpt><trkpt lat="45.510970674048835" lon="10.339668571507065"><ele>150.0</ele><time>2026-04-03T08:07:52Z</time></trkpt><trkpt lat="45.510986922225555" lon="10.339783186714817"><ele>150.0</ele><time>2026-04-03T08:07:54Z</time></trkpt><trkpt lat="45.511041884397095" lon="10.339905014833652"><ele>150.0</ele><time>2026-04-03T08:07:56Z</time></trkpt><trkpt lat="45.51109291982638" lon="10.33998456763389"><ele>150.0</ele><time>2026-04-03T08:07:57Z</time></trkpt><trkpt lat="45.51113209885493" lon="10.340057586087102"><ele>150.0</ele><time>2026-04-03T08:07:58Z</time></trkpt><trkpt lat="45.511196484452306" lon="10.340200358752597"><ele>150.0</ele><time>2026-04-03T08:08:00Z</time></trkpt><trkpt lat="45.511256895002674" lon="10.34034116626017"><ele>149.8</ele><time>2026-04-03T08:08:02Z</time></trkpt><trkpt lat="45.51131055938848" lon="10.340461160524834"><ele>149.6</ele><time>2026-04-03T08:08:04Z</time></trkpt><trkpt lat="45.51137586619387" lon="10.340601983566172"><ele>149.4</ele><time>2026-04-03T08:08:06Z</time></trkpt><trkpt lat="45.51145662533528" lon="10.340714972900821"><ele>149.2</ele><time>2026-04-03T08:08:08Z</time></trkpt><trkpt lat="45.51151568508016" lon="10.34084685684326"><ele>149.0</ele><time>2026-04-03T08:08:10Z</time></trkpt><trkpt lat="45.51155616879323" lon="10.340916695275865"><ele>149.0</ele><time>2026-04-03T08:08:11Z</time></trkpt><trkpt lat="45.51159041853326" lon="10.341041646839805"><ele>149.0</ele><time>2026-04-03T08:08:13Z</time></trkpt><trkpt lat="45.511643301579674" lon="10.341179867359573"><ele>149.0</ele><time>2026-04-03T08:08:15Z</time></trkpt><trkpt lat="45.51173077287487" lon="10.341321005627018"><ele>149.0</ele><time>2026-04-03T08:08:17Z</time></trkpt><trkpt lat="45.511805049953615" lon="10.341455497647917"><ele>149.0</ele><time>2026-04-03T08:08:19Z</time></trkpt><trkpt lat="45.511862391426526" lon="10.341588018056175"><ele>149.0</ele><time>2026-04-03T08:08:21Z</time></trkpt><trkpt lat="45.51190569216588" lon="10.34170126840497"><ele>149.0</ele><time>2026-04-03T08:08:23Z</time></trkpt><trkpt lat="45.51196623090268" lon="10.341799752546345"><ele>149.0</ele><time>2026-04-03T08:08:25Z</time></trkpt><trkpt lat="45.51201182561529" lon="10.341908892088236"><ele>149.0</ele><time>2026-04-03T08:08:27Z</time></trkpt><trkpt lat="45.51205322531246" lon="10.342037097470534"><ele>149.4</ele><time>2026-04-03T08:08:29Z</time></trkpt><trkpt lat="45.51210165997542" lon="10.342186028892678"><ele>149.8</ele><time>2026-04-03T08:08:31Z</time></trkpt><trkpt lat="45.5121599219389" lon="10.34231071601234"><ele>150.2</ele><time>2026-04-03T08:08:33Z</time></trkpt><trkpt lat="45.512229744681704" lon="10.342433001489688"><ele>150.6</ele><time>2026-04-03T08:08:35Z</time></trkpt><trkpt lat="45.51228544429181" lon="10.342531036878801"><ele>151.0</ele><time>2026-04-03T08:08:37Z</time></trkpt><trkpt lat="45.51232071459854" lon="10.342622355318765"><ele>151.4</ele><time>2026-04-03T08:08:39Z</time></trkpt><trkpt lat="45.51238716469577" lon="10.34272279328709"><ele>151.8</ele><time>2026-04-03T08:08:41Z</time></trkpt><trkpt lat="45.512421382733734" lon="10.342825481068378"><ele>152.20000000000002</ele><time>2026-04-03T08:08:43Z</time></trkpt><trkpt lat="45.512500133694395" lon="10.342966655179989"><ele>152.6</ele><time>2026-04-03T08:08:45Z</time></trkpt><trkpt lat="45.51254907436074" lon="10.343038425696436"><ele>153.0</ele><time>2026-04-03T08:08:46Z</time></trkpt><trkpt lat="45.51260029305976" lon="10.34318574799251"><ele>153.0</ele><time>2026-04-03T08:08:48Z</time></trkpt><trkpt lat="45.51266489391255" lon="10.34333085125685"><ele>153.0</ele><time>2026-04-03T08:08:50Z</time></trkpt><trkpt lat="45.51272275202028" lon="10.343469009379216"><ele>153.0</ele><time>2026-04-03T08:08:52Z</time></trkpt><trkpt lat="45.512762197500116" lon="10.343558825561331"><ele>153.0</ele><time>2026-04-03T08:08:54Z</time></trkpt><trkpt lat="45.51281050173486" lon="10.343649286878618"><ele>153.0</ele><time>2026-04-03T08:08:56Z</time></trkpt><trkpt lat="45.512855875324234" lon="10.34374515408893"><ele>153.6</ele><time>2026-04-03T08:08:59Z</time></trkpt><trkpt lat="45.51290692445681" lon="10.343890716800624"><ele>154.20000000000002</ele><time>2026-04-03T08:09:01Z</time></trkpt><trkpt lat="45.51296419233232" lon="10.343991664123521"><ele>154.8</ele><time>2026-04-03T08:09:02Z</time></trkpt><trkpt lat="45.51301777461672" lon="10.34411671641009"><ele>155.4</ele><time>2026-04-03T08:09:04Z</time></trkpt><trkpt lat="45.513080891030015" lon="10.344167444721013"><ele>156.0</ele><time>2026-04-03T08:09:05Z</time></trkpt><trkpt lat="45.51310786684343" lon="10.344267309796368"><ele>156.0</ele><time>2026-04-03T08:09:06Z</time></trkpt><trkpt lat="45.513155015917306" lon="10.34433963586863"><ele>156.0</ele><time>2026-04-03T08:09:07Z</time></trkpt><trkpt lat="45.513186049608116" lon="10.344426825374804"><ele>156.0</ele><time>2026-04-03T08:09:08Z</time></trkpt><trkpt lat="45.513256304605484" lon="10.344575383337055"><ele>156.0</ele><time>2026-04-03T08:09:10Z</time></trkpt><trkpt lat="45.51329656818382" lon="10.344652841388994"><ele>156.0</ele><time>2026-04-03T08:09:11Z</time></trkpt><trkpt lat="45.513352633451056" lon="10.344799546307904"><ele>156.0</ele><time>2026-04-03T08:09:13Z</time></trkpt><trkpt lat="45.5134219962483" lon="10.344949481944465"><ele>155.33333333333334</ele><time>2026-04-03T08:09:15Z</time></trkpt><trkpt lat="45.51345849811548" lon="10.345042127244449"><ele>154.66666666666666</ele><time>2026-04-03T08:09:16Z</time></trkpt><trkpt lat="45.51353353634913" lon="10.345152520414576"><ele>154.0</ele><time>2026-04-03T08:09:18Z</time></trkpt><trkpt lat="45.513587619730856" lon="10.345267287402955"><ele>153.33333333333331</ele><time>2026-04-03T08:09:20Z</time></trkpt><trkpt lat="45.513613377046916" lon="10.345365996230452"><ele>152.66666666666666</ele><time>2026-04-03T08:09:21Z</time></trkpt><trkpt lat="45.513647814503315" lon="10.345451781033061"><ele>152.0</ele><time>2026-04-03T08:09:22Z</time></trkpt><trkpt lat="45.51367713694606" lon="10.345532727897591"><ele>152.79999999999998</ele><time>2026-04-03T08:09:23Z</time></trkpt><trkpt lat="45.51374462859504" lon="10.345683729648943"><ele>153.6</ele><time>2026-04-03T08:09:25Z</time></trkpt><trkpt lat="45.51378053967219" lon="10.345759589755543"><ele>154.39999999999998</ele><time>2026-04-03T08:09:26Z</time></trkpt><trkpt lat="45.51384944700854" lon="10.345893636422772"><ele>155.2</ele><time>2026-04-03T08:09:28Z</time></trkpt><trkpt lat="45.513907842618316" lon="10.34603655807672"><ele>156.0</ele><time>2026-04-03T08:09:30Z</time></trkpt><trkpt lat="45.51394127078476" lon="10.346150333868021"><ele>156.0</ele><time>2026-04-03T08:09:32Z</time></trkpt><trkpt lat="45.51394961524227" lon="10.346243658992016"><ele>156.0</ele><time>2026-04-03T08:09:34Z</time></trkpt><trkpt lat="45.51395757739105" lon="10.346341659526665"><ele>156.0</ele><time>2026-04-03T08:09:36Z</time></trkpt><trkpt lat="45.513970492131676" lon="10.34644291007514"><ele>156.0</ele><time>2026-04-03T08:09:37Z</time></trkpt><trkpt lat="45.514017795561884" lon="10.346610295702892"><ele>156.0</ele><time>2026-04-03T08:09:39Z</time></trkpt><trkpt lat="45.51407227099432" lon="10.346781123805329"><ele>155.66666666666666</ele><time>2026-04-03T08:09:41Z</time></trkpt><trkpt lat="45.51409765935649" lon="10.346869542362407"><ele>155.33333333333334</ele><time>2026-04-03T08:09:42Z</time></trkpt><trkpt lat="45.51413268842194" lon="10.34695338484694"><ele>155.0</ele><time>2026-04-03T08:09:43Z</time></trkpt><trkpt lat="45.514179283133466" lon="10.347089733404472"><ele>154.66666666666669</ele><time>2026-04-03T08:09:45Z</time></trkpt><trkpt lat="45.514214424605" lon="10.347167836385948"><ele>154.33333333333334</ele><time>2026-04-03T08:09:46Z</time></trkpt><trkpt lat="45.514257497609876" lon="10.34729565944737"><ele>154.0</ele><time>2026-04-03T08:09:48Z</time></trkpt><trkpt lat="45.51429833631825" lon="10.3473685478611"><ele>153.5</ele><time>2026-04-03T08:09:49Z</time></trkpt><trkpt lat="45.51433705581249" lon="10.34749722623252"><ele>153.0</ele><time>2026-04-03T08:09:51Z</time></trkpt><trkpt lat="45.514384523398675" lon="10.347581308018247"><ele>152.5</ele><time>2026-04-03T08:09:53Z</time></trkpt><trkpt lat="45.514409428837574" lon="10.347711780168213"><ele>152.0</ele><time>2026-04-03T08:09:55Z</time></trkpt><trkpt lat="45.51444899267935" lon="10.347815519877242"><ele>151.5</ele><time>2026-04-03T08:09:57Z</time></trkpt><trkpt lat="45.51450258515726" lon="10.347912454868299"><ele>151.0</ele><time>2026-04-03T08:09:59Z</time></trkpt><trkpt lat="45.5145206027108" lon="10.348048521826353"><ele>151.0</ele><time>2026-04-03T08:10:01Z</time></trkpt><trkpt lat="45.51451633884874" lon="10.34818538621335"><ele>151.0</ele><time>2026-04-03T08:10:03Z</time></trkpt><trkpt lat="45.51453569680833" lon="10.348291674874234"><ele>151.0</ele><time>2026-04-03T08:10:05Z</time></trkpt><trkpt lat="45.51453080953347" lon="10.348431924065164"><ele>151.0</ele><time>2026-04-03T08:10:07Z</time></trkpt><trkpt lat="45.514537066676326" lon="10.34852787463678"><ele>151.0</ele><time>2026-04-03T08:10:08Z</time></trkpt><trkpt lat="45.51454130544552" lon="10.34866015647794"><ele>151.0</ele><time>2026-04-03T08:10:10Z</time></trkpt><trkpt lat="45.5145421378552" lon="10.348789455092092"><ele>151.2</ele><time>2026-04-03T08:10:12Z</time></trkpt><trkpt lat="45.51454699114763" lon="10.348889875996342"><ele>151.39999999999998</ele><time>2026-04-03T08:10:14Z</time></trkpt><trkpt lat="45.51455159309016" lon="10.349029062606705"><ele>151.6</ele><time>2026-04-03T08:10:16Z</time></trkpt><trkpt lat="45.51455319277057" lon="10.349153558584327"><ele>151.79999999999998</ele><time>2026-04-03T08:10:18Z</time></trkpt><trkpt lat="45.51456132490473" lon="10.349280595553973"><ele>152.0</ele><time>2026-04-03T08:10:20Z</time></trkpt><trkpt lat="45.51456062053927" lon="10.349436956068244"><ele>152.0</ele><time>2026-04-03T08:10:22Z</time></trkpt><trkpt lat="45.51456702048939" lon="10.349617420633283"><ele>152.0</ele><time>2026-04-03T08:10:24Z</time></trkpt><trkpt lat="45.514564786299914" lon="10.349707259065289"><ele>152.0</ele><time>2026-04-03T08:10:25Z</time></trkpt><trkpt lat="45.514555067537806" lon="10.349876231098325"><ele>152.0</ele><time>2026-04-03T08:10:27Z</time></trkpt><trkpt lat="45.514541644895395" lon="10.35005506644768"><ele>152.0</ele><time>2026-04-03T08:10:29Z</time></trkpt><trkpt lat="45.51454012251496" lon="10.35022276625469"><ele>152.0</ele><time>2026-04-03T08:10:31Z</time></trkpt><trkpt lat="45.51454119289437" lon="10.350394714203548"><ele>152.0</ele><time>2026-04-03T08:10:33Z</time></trkpt><trkpt lat="45.51453297686675" lon="10.35056497993887"><ele>152.0</ele><time>2026-04-03T08:10:35Z</time></trkpt><trkpt lat="45.51452842267245" lon="10.350724854498056"><ele>152.0</ele><time>2026-04-03T08:10:37Z</time></trkpt><trkpt lat="45.51453150976782" lon="10.350877620233994"><ele>152.0</ele><time>2026-04-03T08:10:39Z</time></trkpt><trkpt lat="45.51452907313282" lon="10.35102015079696"><ele>152.0</ele><time>2026-04-03T08:10:41Z</time></trkpt><trkpt lat="45.51452299765364" lon="10.351154398401494"><ele>152.0</ele><time>2026-04-03T08:10:43Z</time></trkpt><trkpt lat="45.51452072043167" lon="10.351316580588815"><ele>152.0</ele><time>2026-04-03T08:10:45Z</time></trkpt><trkpt lat="45.51451365324452" lon="10.351487671609075"><ele>152.0</ele><time>2026-04-03T08:10:47Z</time></trkpt><trkpt lat="45.51450216661689" lon="10.351656667180977"><ele>152.25</ele><time>2026-04-03T08:10:49Z</time></trkpt><trkpt lat="45.514504246563675" lon="10.351807574526838"><ele>152.5</ele><time>2026-04-03T08:10:51Z</time></trkpt><trkpt lat="45.51449896137058" lon="10.351954878792045"><ele>152.75</ele><time>2026-04-03T08:10:53Z</time></trkpt><trkpt lat="45.514501340770096" lon="10.352129143841356"><ele>153.0</ele><time>2026-04-03T08:10:55Z</time></trkpt><trkpt lat="45.51450673103581" lon="10.352300868441915"><ele>153.0</ele><time>2026-04-03T08:10:57Z</time></trkpt><trkpt lat="45.51453146114823" lon="10.35239573636293"><ele>153.0</ele><time>2026-04-03T08:10:58Z</time></trkpt><trkpt lat="45.51455446923434" lon="10.35248374462597"><ele>153.0</ele><time>2026-04-03T08:10:59Z</time></trkpt><trkpt lat="45.51457725052494" lon="10.35266448456682"><ele>153.0</ele><time>2026-04-03T08:11:01Z</time></trkpt><trkpt lat="45.51457958780459" lon="10.352757387205529"><ele>153.0</ele><time>2026-04-03T08:11:02Z</time></trkpt><trkpt lat="45.51458046353814" lon="10.352940938009052"><ele>152.85714285714286</ele><time>2026-04-03T08:11:04Z</time></trkpt><trkpt lat="45.51457297978552" lon="10.35304882674789"><ele>152.71428571428572</ele><time>2026-04-03T08:11:05Z</time></trkpt><trkpt lat="45.51456450141012" lon="10.353156212219854"><ele>152.57142857142856</ele><time>2026-04-03T08:11:06Z</time></trkpt><trkpt lat="45.51456594069495" lon="10.35325636966783"><ele>152.42857142857144</ele><time>2026-04-03T08:11:07Z</time></trkpt><trkpt lat="45.51456582064698" lon="10.353355216424609"><ele>152.2857142857143</ele><time>2026-04-03T08:11:08Z</time></trkpt><trkpt lat="45.51456487643889" lon="10.353452398997641"><ele>152.14285714285714</ele><time>2026-04-03T08:11:09Z</time></trkpt><trkpt lat="45.514562206144255" lon="10.353549455703222"><ele>152.0</ele><time>2026-04-03T08:11:10Z</time></trkpt><trkpt lat="45.51455712336039" lon="10.35364977792816"><ele>152.0</ele><time>2026-04-03T08:11:11Z</time></trkpt><trkpt lat="45.51455781553333" lon="10.35374557279854"><ele>152.0</ele><time>2026-04-03T08:11:12Z</time></trkpt><trkpt lat="45.51456040251161" lon="10.353845801340599"><ele>152.0</ele><time>2026-04-03T08:11:13Z</time></trkpt><trkpt lat="45.51456070200087" lon="10.353951088334071"><ele>152.0</ele><time>2026-04-03T08:11:14Z</time></trkpt><trkpt lat="45.51455309549569" lon="10.354046826935695"><ele>152.0</ele><time>2026-04-03T08:11:15Z</time></trkpt><trkpt lat="45.514550570637155" lon="10.354140704245655"><ele>152.0</ele><time>2026-04-03T08:11:16Z</time></trkpt><trkpt lat="45.51454825323705" lon="10.354236008593121"><ele>152.0</ele><time>2026-04-03T08:11:17Z</time></trkpt><trkpt lat="45.51454746464549" lon="10.35433180708047"><ele>152.79999999999998</ele><time>2026-04-03T08:11:18Z</time></trkpt><trkpt lat="45.51454959692322" lon="10.354504457804861"><ele>153.6</ele><time>2026-04-03T08:11:20Z</time></trkpt><trkpt lat="45.51451067303227" lon="10.354585483588279"><ele>154.39999999999998</ele><time>2026-04-03T08:11:21Z</time></trkpt><trkpt lat="45.5145060707482" lon="10.354743112075917"><ele>155.2</ele><time>2026-04-03T08:11:23Z</time></trkpt><trkpt lat="45.51450158892789" lon="10.354888453366476"><ele>156.0</ele><time>2026-04-03T08:11:25Z</time></trkpt><trkpt lat="45.51449636349694" lon="10.355037023963527"><ele>156.0</ele><time>2026-04-03T08:11:27Z</time></trkpt><trkpt lat="45.51449028410264" lon="10.355207912841612"><ele>156.0</ele><time>2026-04-03T08:11:29Z</time></trkpt><trkpt lat="45.51448651845992" lon="10.355300096652753"><ele>156.0</ele><time>2026-04-03T08:11:30Z</time></trkpt><trkpt lat="45.51447997577449" lon="10.35546026287051"><ele>156.0</ele><time>2026-04-03T08:11:32Z</time></trkpt><trkpt lat="45.51447407013514" lon="10.355597681931968"><ele>156.0</ele><time>2026-04-03T08:11:34Z</time></trkpt><trkpt lat="45.51446811287921" lon="10.355734044284587"><ele>156.0</ele><time>2026-04-03T08:11:36Z</time></trkpt><trkpt lat="45.51446299695293" lon="10.355851148540673"><ele>156.0</ele><time>2026-04-03T08:11:38Z</time></trkpt><trkpt lat="45.514457895639914" lon="10.355967918230109"><ele>156.0</ele><time>2026-04-03T08:11:40Z</time></trkpt><trkpt lat="45.51445294943015" lon="10.356072655145217"><ele>156.0</ele><time>2026-04-03T08:11:42Z</time></trkpt><trkpt lat="45.51444686887905" lon="10.356187631583758"><ele>156.0</ele><time>2026-04-03T08:11:44Z</time></trkpt><trkpt lat="45.51443982962021" lon="10.356320736190945"><ele>156.0</ele><time>2026-04-03T08:11:47Z</time></trkpt><trkpt lat="45.51443372847842" lon="10.356434751030958"><ele>155.83333333333334</ele><time>2026-04-03T08:11:50Z</time></trkpt><trkpt lat="45.514484658433325" lon="10.356492631089095"><ele>155.66666666666666</ele><time>2026-04-03T08:12:02Z</time></trkpt><trkpt lat="45.514517844126935" lon="10.356588758869911"><ele>155.5</ele><time>2026-04-03T08:12:05Z</time></trkpt><trkpt lat="45.514523051112775" lon="10.356689284670427"><ele>155.33333333333331</ele><time>2026-04-03T08:12:07Z</time></trkpt><trkpt lat="45.514517490705735" lon="10.356839269205024"><ele>155.16666666666666</ele><time>2026-04-03T08:12:10Z</time></trkpt><trkpt lat="45.51452165694413" lon="10.356949058647407"><ele>155.0</ele><time>2026-04-03T08:12:12Z</time></trkpt><trkpt lat="45.51451958423362" lon="10.357069565975433"><ele>155.0</ele><time>2026-04-03T08:12:14Z</time></trkpt><trkpt lat="45.51451851533073" lon="10.357195540946266"><ele>155.0</ele><time>2026-04-03T08:12:16Z</time></trkpt><trkpt lat="45.514508878223076" lon="10.357339595925694"><ele>155.0</ele><time>2026-04-03T08:12:18Z</time></trkpt><trkpt lat="45.514500810138756" lon="10.357498562289143"><ele>155.0</ele><time>2026-04-03T08:12:20Z</time></trkpt><trkpt lat="45.514500628421196" lon="10.357640272157285"><ele>155.0</ele><time>2026-04-03T08:12:22Z</time></trkpt><trkpt lat="45.514491560446395" lon="10.357776550000276"><ele>154.8</ele><time>2026-04-03T08:12:24Z</time></trkpt><trkpt lat="45.51448789188691" lon="10.357920150923464"><ele>154.6</ele><time>2026-04-03T08:12:26Z</time></trkpt><trkpt lat="45.514492856523" lon="10.358058441721393"><ele>154.4</ele><time>2026-04-03T08:12:28Z</time></trkpt><trkpt lat="45.514491430554614" lon="10.358193717046756"><ele>154.2</ele><time>2026-04-03T08:12:30Z</time></trkpt><trkpt lat="45.5144912105868" lon="10.358330030640534"><ele>154.0</ele><time>2026-04-03T08:12:32Z</time></trkpt><trkpt lat="45.51448699108285" lon="10.358475574673792"><ele>154.0</ele><time>2026-04-03T08:12:34Z</time></trkpt><trkpt lat="45.514491199681586" lon="10.358634624687783"><ele>154.0</ele><time>2026-04-03T08:12:36Z</time></trkpt><trkpt lat="45.514489666502435" lon="10.358770729760987"><ele>154.0</ele><time>2026-04-03T08:12:38Z</time></trkpt><trkpt lat="45.514486169518555" lon="10.358905682220929"><ele>154.0</ele><time>2026-04-03T08:12:40Z</time></trkpt><trkpt lat="45.514485906881355" lon="10.359066361593454"><ele>154.0</ele><time>2026-04-03T08:12:43Z</time></trkpt><trkpt lat="45.51447810213688" lon="10.359231664129156"><ele>154.0</ele><time>2026-04-03T08:12:45Z</time></trkpt><trkpt lat="45.514479294342486" lon="10.359385077495315"><ele>154.0</ele><time>2026-04-03T08:12:47Z</time></trkpt><trkpt lat="45.51447761173422" lon="10.359521605739129"><ele>154.0</ele><time>2026-04-03T08:12:49Z</time></trkpt><trkpt lat="45.51447698756108" lon="10.359672216932143"><ele>154.0</ele><time>2026-04-03T08:12:51Z</time></trkpt><trkpt lat="45.51447456959935" lon="10.359774738675217"><ele>154.0</ele><time>2026-04-03T08:12:52Z</time></trkpt><trkpt lat="45.51447083671167" lon="10.35987217714226"><ele>154.0</ele><time>2026-04-03T08:12:53Z</time></trkpt><trkpt lat="45.51447079645481" lon="10.360042419695256"><ele>154.0</ele><time>2026-04-03T08:12:55Z</time></trkpt><trkpt lat="45.514451245964366" lon="10.360217944706182"><ele>154.0</ele><time>2026-04-03T08:12:57Z</time></trkpt><trkpt lat="45.514445829936484" lon="10.360380670953223"><ele>154.0</ele><time>2026-04-03T08:12:59Z</time></trkpt><trkpt lat="45.51443275789761" lon="10.360538171343109"><ele>154.0</ele><time>2026-04-03T08:13:01Z</time></trkpt><trkpt lat="45.514424408709026" lon="10.360701611352331"><ele>154.4</ele><time>2026-04-03T08:13:03Z</time></trkpt><trkpt lat="45.51442387512176" lon="10.360858276461997"><ele>154.8</ele><time>2026-04-03T08:13:05Z</time></trkpt><trkpt lat="45.514421852601075" lon="10.361012823380651"><ele>155.2</ele><time>2026-04-03T08:13:07Z</time></trkpt><trkpt lat="45.514425873686164" lon="10.361151522603322"><ele>155.6</ele><time>2026-04-03T08:13:09Z</time></trkpt><trkpt lat="45.51442095356802" lon="10.361300106786429"><ele>156.0</ele><time>2026-04-03T08:13:11Z</time></trkpt><trkpt lat="45.51442109138658" lon="10.361439583412276"><ele>156.4</ele><time>2026-04-03T08:13:13Z</time></trkpt><trkpt lat="45.51441646751853" lon="10.36158321040241"><ele>156.8</ele><time>2026-04-03T08:13:15Z</time></trkpt><trkpt lat="45.51441403040521" lon="10.361740454074283"><ele>157.20000000000002</ele><time>2026-04-03T08:13:17Z</time></trkpt><trkpt lat="45.51440761482891" lon="10.361892589124286"><ele>157.6</ele><time>2026-04-03T08:13:19Z</time></trkpt><trkpt lat="45.51439313482966" lon="10.362041220339924"><ele>158.0</ele><time>2026-04-03T08:13:21Z</time></trkpt><trkpt lat="45.514391000914294" lon="10.362190911799422"><ele>157.8</ele><time>2026-04-03T08:13:23Z</time></trkpt><trkpt lat="45.514372248661935" lon="10.36234107496773"><ele>157.60000000000002</ele><time>2026-04-03T08:13:25Z</time></trkpt><trkpt lat="45.51435141414463" lon="10.362489395440036"><ele>157.39999999999998</ele><time>2026-04-03T08:13:27Z</time></trkpt><trkpt lat="45.51435232199277" lon="10.36263318071203"><ele>157.2</ele><time>2026-04-03T08:13:29Z</time></trkpt><trkpt lat="45.51433305331893" lon="10.362822560317618"><ele>157.0</ele><time>2026-04-03T08:13:32Z</time></trkpt><trkpt lat="45.514343208692075" lon="10.362974962146987"><ele>156.6</ele><time>2026-04-03T08:13:34Z</time></trkpt><trkpt lat="45.514353793699094" lon="10.363094604032323"><ele>156.2</ele><time>2026-04-03T08:13:35Z</time></trkpt><trkpt lat="45.514377367587514" lon="10.363240124823912"><ele>155.8</ele><time>2026-04-03T08:13:37Z</time></trkpt><trkpt lat="45.51441260202438" lon="10.363372221530481"><ele>155.4</ele><time>2026-04-03T08:13:39Z</time></trkpt><trkpt lat="45.51445384555141" lon="10.363440551811156"><ele>155.0</ele><time>2026-04-03T08:13:40Z</time></trkpt><trkpt lat="45.51452297587432" lon="10.363540975794123"><ele>155.0</ele><time>2026-04-03T08:13:42Z</time></trkpt><trkpt lat="45.51459955924866" lon="10.363627124633336"><ele>155.0</ele><time>2026-04-03T08:13:44Z</time></trkpt><trkpt lat="45.51466226394712" lon="10.363718697855065"><ele>155.0</ele><time>2026-04-03T08:13:46Z</time></trkpt><trkpt lat="45.51465533221471" lon="10.363938752818159"><ele>155.0</ele><time>2026-04-03T08:13:48Z</time></trkpt><trkpt lat="45.51473455073433" lon="10.364039495454843"><ele>155.0</ele><time>2026-04-03T08:13:50Z</time></trkpt><trkpt lat="45.51489904934563" lon="10.363964751750126"><ele>155.25</ele><time>2026-04-03T08:13:52Z</time></trkpt><trkpt lat="45.514957391460044" lon="10.364041997361143"><ele>155.5</ele><time>2026-04-03T08:13:54Z</time></trkpt><trkpt lat="45.51505659835952" lon="10.3641330962266"><ele>155.75</ele><time>2026-04-03T08:13:56Z</time></trkpt><trkpt lat="45.515112201615466" lon="10.364176730597839"><ele>156.0</ele><time>2026-04-03T08:13:57Z</time></trkpt><trkpt lat="45.51510981214179" lon="10.364449536626665"><ele>156.0</ele><time>2026-04-03T08:13:59Z</time></trkpt><trkpt lat="45.515207655534724" lon="10.364548079482333"><ele>156.0</ele><time>2026-04-03T08:14:01Z</time></trkpt><trkpt lat="45.51529990045072" lon="10.364638766981429"><ele>156.0</ele><time>2026-04-03T08:14:03Z</time></trkpt><trkpt lat="45.5153929729433" lon="10.36473026817567"><ele>156.0</ele><time>2026-04-03T08:14:05Z</time></trkpt><trkpt lat="45.51547952818247" lon="10.364816171357225"><ele>156.16666666666666</ele><time>2026-04-03T08:14:07Z</time></trkpt><trkpt lat="45.51555460310774" lon="10.364891104043318"><ele>156.33333333333334</ele><time>2026-04-03T08:14:09Z</time></trkpt><trkpt lat="45.515630124441664" lon="10.364967351869389"><ele>156.5</ele><time>2026-04-03T08:14:11Z</time></trkpt><trkpt lat="45.51569688173003" lon="10.365035109929824"><ele>156.66666666666669</ele><time>2026-04-03T08:14:13Z</time></trkpt><trkpt lat="45.51578336208669" lon="10.365122886712088"><ele>156.83333333333334</ele><time>2026-04-03T08:14:15Z</time></trkpt><trkpt lat="45.51583986001174" lon="10.365180231584679"><ele>157.0</ele><time>2026-04-03T08:14:16Z</time></trkpt><trkpt lat="45.51589245013992" lon="10.36523361010105"><ele>157.0</ele><time>2026-04-03T08:14:17Z</time></trkpt><trkpt lat="45.51598915523473" lon="10.365331945991377"><ele>157.0</ele><time>2026-04-03T08:14:19Z</time></trkpt><trkpt lat="45.51608898675007" lon="10.365434347779827"><ele>157.0</ele><time>2026-04-03T08:14:21Z</time></trkpt><trkpt lat="45.516181600339245" lon="10.365529346003179"><ele>157.0</ele><time>2026-04-03T08:14:23Z</time></trkpt><trkpt lat="45.51628028846768" lon="10.365630575075253"><ele>157.0</ele><time>2026-04-03T08:14:25Z</time></trkpt><trkpt lat="45.51637695619184" lon="10.365728005828265"><ele>157.0</ele><time>2026-04-03T08:14:27Z</time></trkpt><trkpt lat="45.51646606620486" lon="10.365817325326997"><ele>157.0</ele><time>2026-04-03T08:14:29Z</time></trkpt><trkpt lat="45.51655410663466" lon="10.365905572697143"><ele>157.0</ele><time>2026-04-03T08:14:31Z</time></trkpt><trkpt lat="45.516638559599556" lon="10.365990224232162"><ele>157.0</ele><time>2026-04-03T08:14:33Z</time></trkpt><trkpt lat="45.51672831165477" lon="10.366080187246807"><ele>157.0</ele><time>2026-04-03T08:14:35Z</time></trkpt><trkpt lat="45.51682277699015" lon="10.366174874715997"><ele>157.0</ele><time>2026-04-03T08:14:37Z</time></trkpt><trkpt lat="45.51691146592679" lon="10.366263772132665"><ele>157.0</ele><time>2026-04-03T08:14:39Z</time></trkpt><trkpt lat="45.51700486945891" lon="10.366357395237452"><ele>157.0</ele><time>2026-04-03T08:14:41Z</time></trkpt><trkpt lat="45.517096944411236" lon="10.366449686685263"><ele>157.0</ele><time>2026-04-03T08:14:43Z</time></trkpt><trkpt lat="45.517188713947235" lon="10.366541671844377"><ele>157.0</ele><time>2026-04-03T08:14:45Z</time></trkpt><trkpt lat="45.51727789343636" lon="10.366631061044489"><ele>157.0</ele><time>2026-04-03T08:14:47Z</time></trkpt><trkpt lat="45.517370171670485" lon="10.366724494316118"><ele>157.0</ele><time>2026-04-03T08:14:49Z</time></trkpt><trkpt lat="45.51746808814824" lon="10.366824031682903"><ele>157.0</ele><time>2026-04-03T08:14:51Z</time></trkpt><trkpt lat="45.51756710162099" lon="10.366924684370112"><ele>157.0</ele><time>2026-04-03T08:14:53Z</time></trkpt><trkpt lat="45.517661692859384" lon="10.367021218246334"><ele>157.0</ele><time>2026-04-03T08:14:55Z</time></trkpt><trkpt lat="45.51774382702339" lon="10.367106171539833"><ele>157.0</ele><time>2026-04-03T08:14:57Z</time></trkpt><trkpt lat="45.51782297261259" lon="10.36718803370264"><ele>157.0</ele><time>2026-04-03T08:14:59Z</time></trkpt><trkpt lat="45.5178977416242" lon="10.36726536910751"><ele>157.0</ele><time>2026-04-03T08:15:01Z</time></trkpt><trkpt lat="45.51797598427165" lon="10.367347898559396"><ele>157.0</ele><time>2026-04-03T08:15:03Z</time></trkpt><trkpt lat="45.51805718537764" lon="10.367433859670943"><ele>157.0</ele><time>2026-04-03T08:15:05Z</time></trkpt><trkpt lat="45.518148142191386" lon="10.367533522668413"><ele>157.0</ele><time>2026-04-03T08:15:07Z</time></trkpt><trkpt lat="45.51825243667717" lon="10.367652206571488"><ele>157.0</ele><time>2026-04-03T08:15:09Z</time></trkpt><trkpt lat="45.51830212534908" lon="10.367710085818572"><ele>156.99999999999997</ele><time>2026-04-03T08:15:10Z</time></trkpt><trkpt lat="45.518354876915325" lon="10.367774743145253"><ele>157.0</ele><time>2026-04-03T08:15:11Z</time></trkpt><trkpt lat="45.51840627465432" lon="10.367837995244448"><ele>157.0</ele><time>2026-04-03T08:15:12Z</time></trkpt><trkpt lat="45.518461652213176" lon="10.36790658254762"><ele>157.0</ele><time>2026-04-03T08:15:13Z</time></trkpt><trkpt lat="45.51851393581242" lon="10.36797133778638"><ele>157.0</ele><time>2026-04-03T08:15:14Z</time></trkpt><trkpt lat="45.518561403873804" lon="10.368030775968784"><ele>156.99999999999997</ele><time>2026-04-03T08:15:15Z</time></trkpt><trkpt lat="45.51861156716591" lon="10.368095708791286"><ele>157.0</ele><time>2026-04-03T08:15:16Z</time></trkpt><trkpt lat="45.518662941819485" lon="10.368162209526782"><ele>157.14285714285714</ele><time>2026-04-03T08:15:17Z</time></trkpt><trkpt lat="45.51871453263374" lon="10.368229263200261"><ele>157.28571428571428</ele><time>2026-04-03T08:15:18Z</time></trkpt><trkpt lat="45.51877132787035" lon="10.368307362781605"><ele>157.42857142857144</ele><time>2026-04-03T08:15:19Z</time></trkpt><trkpt lat="45.51882324045237" lon="10.368378748302163"><ele>157.57142857142856</ele><time>2026-04-03T08:15:20Z</time></trkpt><trkpt lat="45.518874467180076" lon="10.368451955198204"><ele>157.71428571428572</ele><time>2026-04-03T08:15:21Z</time></trkpt><trkpt lat="45.518924669712625" lon="10.36852496449885"><ele>157.85714285714286</ele><time>2026-04-03T08:15:22Z</time></trkpt><trkpt lat="45.51897869817015" lon="10.368603537156819"><ele>158.0</ele><time>2026-04-03T08:15:23Z</time></trkpt><trkpt lat="45.51902702936283" lon="10.368675801931065"><ele>158.0</ele><time>2026-04-03T08:15:24Z</time></trkpt><trkpt lat="45.51907699961315" lon="10.368750989840507"><ele>158.0</ele><time>2026-04-03T08:15:25Z</time></trkpt><trkpt lat="45.51912340769187" lon="10.368821443573106"><ele>158.0</ele><time>2026-04-03T08:15:26Z</time></trkpt><trkpt lat="45.51917144527591" lon="10.36889578781215"><ele>158.0</ele><time>2026-04-03T08:15:27Z</time></trkpt><trkpt lat="45.51921805466364" lon="10.368967922238959"><ele>158.0</ele><time>2026-04-03T08:15:28Z</time></trkpt><trkpt lat="45.519302030778796" lon="10.369097885753332"><ele>158.0</ele><time>2026-04-03T08:15:30Z</time></trkpt><trkpt lat="45.51937901828196" lon="10.369217033493994"><ele>158.16666666666666</ele><time>2026-04-03T08:15:32Z</time></trkpt><trkpt lat="45.51942297507268" lon="10.369285384411906"><ele>158.33333333333331</ele><time>2026-04-03T08:15:33Z</time></trkpt><trkpt lat="45.51946583910594" lon="10.369352741476154"><ele>158.5</ele><time>2026-04-03T08:15:34Z</time></trkpt><trkpt lat="45.519539851849096" lon="10.369469046162813"><ele>158.66666666666666</ele><time>2026-04-03T08:15:36Z</time></trkpt><trkpt lat="45.51958280768291" lon="10.36953654753904"><ele>158.83333333333334</ele><time>2026-04-03T08:15:37Z</time></trkpt><trkpt lat="45.51966259924826" lon="10.369661933123004"><ele>159.0</ele><time>2026-04-03T08:15:39Z</time></trkpt><trkpt lat="45.519747809242226" lon="10.369795833356628"><ele>159.2</ele><time>2026-04-03T08:15:41Z</time></trkpt><trkpt lat="45.519829632208555" lon="10.369923968196082"><ele>159.4</ele><time>2026-04-03T08:15:43Z</time></trkpt><trkpt lat="45.51990597247102" lon="10.370043341918308"><ele>159.6</ele><time>2026-04-03T08:15:45Z</time></trkpt><trkpt lat="45.51997455964747" lon="10.370150591814413"><ele>159.8</ele><time>2026-04-03T08:15:47Z</time></trkpt><trkpt lat="45.52004078660112" lon="10.370254151376857"><ele>160.0</ele><time>2026-04-03T08:15:49Z</time></trkpt><trkpt lat="45.52010037171887" lon="10.370347324878493"><ele>160.0</ele><time>2026-04-03T08:15:51Z</time></trkpt><trkpt lat="45.52014478242497" lon="10.370416770246477"><ele>160.0</ele><time>2026-04-03T08:15:52Z</time></trkpt><trkpt lat="45.52022429217457" lon="10.370541101324308"><ele>160.0</ele><time>2026-04-03T08:15:54Z</time></trkpt><trkpt lat="45.520303969330534" lon="10.370665692864888"><ele>160.0</ele><time>2026-04-03T08:15:56Z</time></trkpt><trkpt lat="45.52038037083448" lon="10.370785162291437"><ele>160.0</ele><time>2026-04-03T08:15:58Z</time></trkpt><trkpt lat="45.52045829893047" lon="10.370907018878901"><ele>160.0</ele><time>2026-04-03T08:16:00Z</time></trkpt><trkpt lat="45.52053001075856" lon="10.371019155027739"><ele>160.0</ele><time>2026-04-03T08:16:02Z</time></trkpt><trkpt lat="45.520599785161984" lon="10.371128324871455"><ele>160.0</ele><time>2026-04-03T08:16:04Z</time></trkpt><trkpt lat="45.52064449252885" lon="10.371198471746254"><ele>160.0</ele><time>2026-04-03T08:16:05Z</time></trkpt><trkpt lat="45.52070547029721" lon="10.371294147501956"><ele>160.0</ele><time>2026-04-03T08:16:07Z</time></trkpt><trkpt lat="45.52077678059161" lon="10.371407403502607"><ele>160.0</ele><time>2026-04-03T08:16:09Z</time></trkpt><trkpt lat="45.52084175246892" lon="10.37150934902938"><ele>160.0</ele><time>2026-04-03T08:16:11Z</time></trkpt><trkpt lat="45.52090479989301" lon="10.371608274814493"><ele>160.0</ele><time>2026-04-03T08:16:13Z</time></trkpt><trkpt lat="45.52097401475163" lon="10.371716877793878"><ele>160.0</ele><time>2026-04-03T08:16:15Z</time></trkpt><trkpt lat="45.521047152398346" lon="10.371831635978609"><ele>160.0</ele><time>2026-04-03T08:16:17Z</time></trkpt><trkpt lat="45.521116195555905" lon="10.371939969527338"><ele>160.0</ele><time>2026-04-03T08:16:19Z</time></trkpt><trkpt lat="45.52118567142936" lon="10.372048982145975"><ele>160.0</ele><time>2026-04-03T08:16:21Z</time></trkpt><trkpt lat="45.52126176599083" lon="10.37216837990274"><ele>160.0</ele><time>2026-04-03T08:16:23Z</time></trkpt><trkpt lat="45.521338055936916" lon="10.372288084213471"><ele>160.0</ele><time>2026-04-03T08:16:25Z</time></trkpt><trkpt lat="45.52141462380331" lon="10.372408224604621"><ele>160.0</ele><time>2026-04-03T08:16:27Z</time></trkpt><trkpt lat="45.521493200779574" lon="10.372531517442411"><ele>159.8</ele><time>2026-04-03T08:16:29Z</time></trkpt><trkpt lat="45.52156638488184" lon="10.372646775546908"><ele>159.6</ele><time>2026-04-03T08:16:31Z</time></trkpt><trkpt lat="45.521631312241816" lon="10.372749043243681"><ele>159.4</ele><time>2026-04-03T08:16:33Z</time></trkpt><trkpt lat="45.52169307548549" lon="10.372846327170034"><ele>159.2</ele><time>2026-04-03T08:16:35Z</time></trkpt><trkpt lat="45.521754048555465" lon="10.372942251379598"><ele>159.0</ele><time>2026-04-03T08:16:37Z</time></trkpt><trkpt lat="45.521808245893276" lon="10.373027340978629"><ele>159.33333333333334</ele><time>2026-04-03T08:16:40Z</time></trkpt><trkpt lat="45.52186979528452" lon="10.373053699182217"><ele>159.66666666666669</ele><time>2026-04-03T08:16:43Z</time></trkpt><trkpt lat="45.52212342194689" lon="10.372749440754339"><ele>160.0</ele><time>2026-04-03T08:16:44Z</time></trkpt><trkpt lat="45.52222393877832" lon="10.372699649528101"><ele>160.0</ele><time>2026-04-03T08:16:47Z</time></trkpt><trkpt lat="45.52230221220496" lon="10.372679552349009"><ele>160.0</ele><time>2026-04-03T08:16:49Z</time></trkpt><trkpt lat="45.52240399486012" lon="10.37266133687299"><ele>160.0</ele><time>2026-04-03T08:16:51Z</time></trkpt><trkpt lat="45.52249181984985" lon="10.372646401272315"><ele>160.0</ele><time>2026-04-03T08:16:53Z</time></trkpt><trkpt lat="45.52258323214983" lon="10.372639519208867"><ele>160.0</ele><time>2026-04-03T08:16:55Z</time></trkpt><trkpt lat="45.522681657476106" lon="10.372627557909237"><ele>160.0</ele><time>2026-04-03T08:16:57Z</time></trkpt><trkpt lat="45.522736599537104" lon="10.372685985820464"><ele>160.0</ele><time>2026-04-03T08:17:00Z</time></trkpt><trkpt lat="45.52273943877984" lon="10.372810853127055"><ele>160.0</ele><time>2026-04-03T08:17:03Z</time></trkpt><trkpt lat="45.522711217428196" lon="10.372894029013342"><ele>160.0</ele><time>2026-04-03T08:17:04Z</time></trkpt><trkpt lat="45.522739435388885" lon="10.37303978787871"><ele>160.0</ele><time>2026-04-03T08:17:07Z</time></trkpt><trkpt lat="45.52274690883586" lon="10.373141225830299"><ele>160.0</ele><time>2026-04-03T08:17:08Z</time></trkpt><trkpt lat="45.5227617160379" lon="10.373276406242324"><ele>160.2</ele><time>2026-04-03T08:17:09Z</time></trkpt><trkpt lat="45.52278239094806" lon="10.373430326572462"><ele>160.4</ele><time>2026-04-03T08:17:11Z</time></trkpt><trkpt lat="45.52278342083869" lon="10.373609824265984"><ele>160.60000000000002</ele><time>2026-04-03T08:17:13Z</time></trkpt><trkpt lat="45.52277711593419" lon="10.373736421474492"><ele>160.8</ele><time>2026-04-03T08:17:15Z</time></trkpt><trkpt lat="45.52278759369895" lon="10.373857345411091"><ele>161.0</ele><time>2026-04-03T08:17:17Z</time></trkpt><trkpt lat="45.52281610482661" lon="10.373963084656936"><ele>161.0</ele><time>2026-04-03T08:17:19Z</time></trkpt><trkpt lat="45.522846981823484" lon="10.374054212921752"><ele>161.0</ele><time>2026-04-03T08:17:21Z</time></trkpt><trkpt lat="45.52285489556736" lon="10.37437059536454"><ele>161.0</ele><time>2026-04-03T08:23:07Z</time></trkpt><trkpt lat="45.52289395517087" lon="10.374470761687629"><ele>161.0</ele><time>2026-04-03T08:23:09Z</time></trkpt><trkpt lat="45.52291659809406" lon="10.374577302711918"><ele>161.20000000000002</ele><time>2026-04-03T08:23:11Z</time></trkpt><trkpt lat="45.52294217640165" lon="10.37469251609696"><ele>161.4</ele><time>2026-04-03T08:23:13Z</time></trkpt><trkpt lat="45.522995857876" lon="10.37476053030126"><ele>161.6</ele><time>2026-04-03T08:23:15Z</time></trkpt><trkpt lat="45.52305345578572" lon="10.374877415302562"><ele>161.8</ele><time>2026-04-03T08:23:17Z</time></trkpt><trkpt lat="45.52310828877136" lon="10.375003474401975"><ele>162.0</ele><time>2026-04-03T08:23:19Z</time></trkpt><trkpt lat="45.52302083354779" lon="10.375272333404912"><ele>162.0</ele><time>2026-04-03T08:23:21Z</time></trkpt><trkpt lat="45.52318856358178" lon="10.375214114508811"><ele>162.0</ele><time>2026-04-03T08:23:22Z</time></trkpt><trkpt lat="45.523220409876835" lon="10.37529738399392"><ele>162.0</ele><time>2026-04-03T08:23:23Z</time></trkpt><trkpt lat="45.52327680423886" lon="10.375441635551544"><ele>162.0</ele><time>2026-04-03T08:23:25Z</time></trkpt><trkpt lat="45.52317352219799" lon="10.375625292076549"><ele>162.16666666666666</ele><time>2026-04-03T08:23:26Z</time></trkpt><trkpt lat="45.523209084295864" lon="10.375707240488545"><ele>162.33333333333334</ele><time>2026-04-03T08:23:27Z</time></trkpt><trkpt lat="45.52324342955325" lon="10.375786384687185"><ele>162.5</ele><time>2026-04-03T08:23:28Z</time></trkpt><trkpt lat="45.52327851057898" lon="10.375867224359569"><ele>162.66666666666669</ele><time>2026-04-03T08:23:29Z</time></trkpt><trkpt lat="45.52334274236302" lon="10.376012872319226"><ele>162.83333333333334</ele><time>2026-04-03T08:23:31Z</time></trkpt><trkpt lat="45.52337710308761" lon="10.376090188080202"><ele>163.0</ele><time>2026-04-03T08:23:32Z</time></trkpt><trkpt lat="45.523443376694416" lon="10.376239311620829"><ele>163.5</ele><time>2026-04-03T08:23:34Z</time></trkpt><trkpt lat="45.52350677480003" lon="10.376381964967157"><ele>164.0</ele><time>2026-04-03T08:23:36Z</time></trkpt><trkpt lat="45.52357158170586" lon="10.37652778823442"><ele>164.5</ele><time>2026-04-03T08:23:38Z</time></trkpt><trkpt lat="45.523630529892" lon="10.376660428703328"><ele>165.0</ele><time>2026-04-03T08:23:40Z</time></trkpt><trkpt lat="45.52369331038449" lon="10.376801692362664"><ele>164.2</ele><time>2026-04-03T08:23:42Z</time></trkpt><trkpt lat="45.523750945603375" lon="10.37693256872031"><ele>163.4</ele><time>2026-04-03T08:23:44Z</time></trkpt><trkpt lat="45.52380745083747" lon="10.377060995464735"><ele>162.60000000000002</ele><time>2026-04-03T08:23:46Z</time></trkpt><trkpt lat="45.52386747184378" lon="10.377197413082905"><ele>161.8</ele><time>2026-04-03T08:23:48Z</time></trkpt><trkpt lat="45.52392750559768" lon="10.377333859582835"><ele>161.0</ele><time>2026-04-03T08:23:50Z</time></trkpt><trkpt lat="45.52398831994256" lon="10.377472080176332"><ele>161.0</ele><time>2026-04-03T08:23:52Z</time></trkpt><trkpt lat="45.52404346717979" lon="10.37759742062623"><ele>161.0</ele><time>2026-04-03T08:23:54Z</time></trkpt><trkpt lat="45.52409593103654" lon="10.377716662151311"><ele>161.0</ele><time>2026-04-03T08:23:56Z</time></trkpt><trkpt lat="45.52414969923321" lon="10.377838867959662"><ele>161.0</ele><time>2026-04-03T08:23:58Z</time></trkpt><trkpt lat="45.52420006101187" lon="10.377952206767157"><ele>161.0</ele><time>2026-04-03T08:24:00Z</time></trkpt><trkpt lat="45.52424860776408" lon="10.378060917055555"><ele>161.0</ele><time>2026-04-03T08:24:02Z</time></trkpt><trkpt lat="45.524298833514884" lon="10.378173387089358"><ele>161.0</ele><time>2026-04-03T08:24:04Z</time></trkpt><trkpt lat="45.52436102107579" lon="10.378311797563374"><ele>161.0</ele><time>2026-04-03T08:24:06Z</time></trkpt><trkpt lat="45.5244263000004" lon="10.378456505089195"><ele>161.0</ele><time>2026-04-03T08:24:08Z</time></trkpt><trkpt lat="45.52449826728919" lon="10.378615918960774"><ele>161.0</ele><time>2026-04-03T08:24:10Z</time></trkpt><trkpt lat="45.52453266516078" lon="10.378691540943715"><ele>161.0</ele><time>2026-04-03T08:24:11Z</time></trkpt><trkpt lat="45.52456958194006" lon="10.3787727001665"><ele>161.0</ele><time>2026-04-03T08:24:12Z</time></trkpt><trkpt lat="45.5246304498587" lon="10.378906514750275"><ele>161.0</ele><time>2026-04-03T08:24:14Z</time></trkpt><trkpt lat="45.524684259633105" lon="10.379024811917448"><ele>161.0</ele><time>2026-04-03T08:24:16Z</time></trkpt><trkpt lat="45.52473581696166" lon="10.379138158015323"><ele>161.0</ele><time>2026-04-03T08:24:18Z</time></trkpt><trkpt lat="45.524781277191614" lon="10.379238099288917"><ele>161.20000000000002</ele><time>2026-04-03T08:24:20Z</time></trkpt><trkpt lat="45.52482711643168" lon="10.379338874214097"><ele>161.4</ele><time>2026-04-03T08:24:22Z</time></trkpt><trkpt lat="45.52488821381592" lon="10.379473193236263"><ele>161.6</ele><time>2026-04-03T08:24:24Z</time></trkpt><trkpt lat="45.52495261225881" lon="10.379615286200785"><ele>161.8</ele><time>2026-04-03T08:24:26Z</time></trkpt><trkpt lat="45.525012370601566" lon="10.379747253854067"><ele>162.0</ele><time>2026-04-03T08:24:28Z</time></trkpt><trkpt lat="45.52506612938093" lon="10.379865972744028"><ele>162.0</ele><time>2026-04-03T08:24:30Z</time></trkpt><trkpt lat="45.52511506575891" lon="10.379974042136856"><ele>162.0</ele><time>2026-04-03T08:24:32Z</time></trkpt><trkpt lat="45.52515929674551" lon="10.380071719925567"><ele>162.0</ele><time>2026-04-03T08:24:34Z</time></trkpt><trkpt lat="45.52520215459323" lon="10.380166365527522"><ele>162.0</ele><time>2026-04-03T08:24:36Z</time></trkpt><trkpt lat="45.52525641322282" lon="10.380286221950966"><ele>162.0</ele><time>2026-04-03T08:24:38Z</time></trkpt><trkpt lat="45.52531376991321" lon="10.380413144004823"><ele>162.0</ele><time>2026-04-03T08:24:40Z</time></trkpt><trkpt lat="45.525375786331864" lon="10.380550377310096"><ele>162.0</ele><time>2026-04-03T08:24:42Z</time></trkpt><trkpt lat="45.52543457155955" lon="10.380680460463546"><ele>162.0</ele><time>2026-04-03T08:24:44Z</time></trkpt><trkpt lat="45.525490134011335" lon="10.38080341211018"><ele>162.0</ele><time>2026-04-03T08:24:46Z</time></trkpt><trkpt lat="45.52553546213892" lon="10.380903716615954"><ele>162.0</ele><time>2026-04-03T08:24:48Z</time></trkpt><trkpt lat="45.525594126082545" lon="10.381033531368518"><ele>162.39999999999998</ele><time>2026-04-03T08:24:50Z</time></trkpt><trkpt lat="45.525648828240875" lon="10.381154579321544"><ele>162.79999999999998</ele><time>2026-04-03T08:24:52Z</time></trkpt><trkpt lat="45.525707242915345" lon="10.381283831400626"><ele>163.2</ele><time>2026-04-03T08:24:54Z</time></trkpt><trkpt lat="45.525762633754525" lon="10.381405103984111"><ele>163.6</ele><time>2026-04-03T08:24:56Z</time></trkpt><trkpt lat="45.525835322418764" lon="10.381564248263041"><ele>164.0</ele><time>2026-04-03T08:24:58Z</time></trkpt><trkpt lat="45.525872515404174" lon="10.381645678424047"><ele>164.16666666666666</ele><time>2026-04-03T08:24:59Z</time></trkpt><trkpt lat="45.52590925778136" lon="10.381726121987905"><ele>164.33333333333331</ele><time>2026-04-03T08:25:00Z</time></trkpt><trkpt lat="45.525977625062964" lon="10.381879114679307"><ele>164.5</ele><time>2026-04-03T08:25:02Z</time></trkpt><trkpt lat="45.52601464812178" lon="10.381963668231016"><ele>164.66666666666666</ele><time>2026-04-03T08:25:03Z</time></trkpt><trkpt lat="45.52604825439766" lon="10.382042642346319"><ele>164.83333333333334</ele><time>2026-04-03T08:25:04Z</time></trkpt><trkpt lat="45.52608089208186" lon="10.3821206014467"><ele>165.0</ele><time>2026-04-03T08:25:05Z</time></trkpt><trkpt lat="45.52613899532584" lon="10.382261373540121"><ele>165.2</ele><time>2026-04-03T08:25:07Z</time></trkpt><trkpt lat="45.52618683069547" lon="10.382380991527649"><ele>165.4</ele><time>2026-04-03T08:25:09Z</time></trkpt><trkpt lat="45.52623366424035" lon="10.382500347190877"><ele>165.60000000000002</ele><time>2026-04-03T08:25:11Z</time></trkpt><trkpt lat="45.52635998774471" lon="10.382540740620753"><ele>165.8</ele><time>2026-04-03T08:25:13Z</time></trkpt><trkpt lat="45.52641827394172" lon="10.382617352618752"><ele>166.0</ele><time>2026-04-03T08:25:15Z</time></trkpt><trkpt lat="45.5264584476902" lon="10.382724542964104"><ele>166.0</ele><time>2026-04-03T08:25:17Z</time></trkpt><trkpt lat="45.526476126487495" lon="10.382853408917185"><ele>166.0</ele><time>2026-04-03T08:25:19Z</time></trkpt><trkpt lat="45.526500257139155" lon="10.382962673156964"><ele>166.0</ele><time>2026-04-03T08:25:21Z</time></trkpt><trkpt lat="45.526539617853906" lon="10.383067964515961"><ele>166.0</ele><time>2026-04-03T08:25:23Z</time></trkpt><trkpt lat="45.52657287014768" lon="10.383186751995055"><ele>166.0</ele><time>2026-04-03T08:25:25Z</time></trkpt><trkpt lat="45.526615012738716" lon="10.383297147553158"><ele>166.0</ele><time>2026-04-03T08:25:27Z</time></trkpt><trkpt lat="45.52666312365666" lon="10.383438120149705"><ele>165.75</ele><time>2026-04-03T08:25:29Z</time></trkpt><trkpt lat="45.526611384234094" lon="10.38363044806429"><ele>165.5</ele><time>2026-04-03T08:25:31Z</time></trkpt><trkpt lat="45.52665601868041" lon="10.383776831632597"><ele>165.25</ele><time>2026-04-03T08:25:33Z</time></trkpt><trkpt lat="45.52669879981658" lon="10.383915050395958"><ele>165.0</ele><time>2026-04-03T08:25:35Z</time></trkpt><trkpt lat="45.526741727329956" lon="10.384053742079864"><ele>165.0</ele><time>2026-04-03T08:25:37Z</time></trkpt><trkpt lat="45.52678417982956" lon="10.38419089899905"><ele>165.0</ele><time>2026-04-03T08:25:39Z</time></trkpt><trkpt lat="45.52682646189254" lon="10.384327505340776"><ele>165.0</ele><time>2026-04-03T08:25:41Z</time></trkpt><trkpt lat="45.52686960176853" lon="10.384466883093351"><ele>165.0</ele><time>2026-04-03T08:25:43Z</time></trkpt><trkpt lat="45.526922600383195" lon="10.384638112772317"><ele>165.0</ele><time>2026-04-03T08:25:45Z</time></trkpt><trkpt lat="45.52695019497937" lon="10.384727266479693"><ele>165.0</ele><time>2026-04-03T08:25:46Z</time></trkpt><trkpt lat="45.526976597690194" lon="10.384812569085527"><ele>165.0</ele><time>2026-04-03T08:25:47Z</time></trkpt><trkpt lat="45.52702807971855" lon="10.384978827090807"><ele>165.0</ele><time>2026-04-03T08:25:49Z</time></trkpt><trkpt lat="45.52705663009595" lon="10.385070975974907"><ele>165.0</ele><time>2026-04-03T08:25:50Z</time></trkpt><trkpt lat="45.527084703290036" lon="10.385161584420954"><ele>165.0</ele><time>2026-04-03T08:25:51Z</time></trkpt><trkpt lat="45.52711212138447" lon="10.385250078492447"><ele>165.0</ele><time>2026-04-03T08:25:52Z</time></trkpt><trkpt lat="45.52714015316343" lon="10.385340553220185"><ele>165.00000000000003</ele><time>2026-04-03T08:25:53Z</time></trkpt><trkpt lat="45.52716829885221" lon="10.38543139564283"><ele>165.0</ele><time>2026-04-03T08:25:54Z</time></trkpt><trkpt lat="45.52719460826965" lon="10.38551631133039"><ele>165.0</ele><time>2026-04-03T08:25:55Z</time></trkpt><trkpt lat="45.52722387935396" lon="10.385610786129746"><ele>165.0</ele><time>2026-04-03T08:25:56Z</time></trkpt><trkpt lat="45.52725038906049" lon="10.385696348293902"><ele>165.0</ele><time>2026-04-03T08:25:57Z</time></trkpt><trkpt lat="45.52727817715543" lon="10.385786036566614"><ele>165.00000000000003</ele><time>2026-04-03T08:25:58Z</time></trkpt><trkpt lat="45.52730587092017" lon="10.385875420427164"><ele>165.0</ele><time>2026-04-03T08:25:59Z</time></trkpt><trkpt lat="45.527335623154244" lon="10.385971448069819"><ele>165.0</ele><time>2026-04-03T08:26:00Z</time></trkpt><trkpt lat="45.527386607457665" lon="10.386136004059955"><ele>165.0</ele><time>2026-04-03T08:26:02Z</time></trkpt><trkpt lat="45.52741419219113" lon="10.386225035946543"><ele>165.0</ele><time>2026-04-03T08:26:03Z</time></trkpt><trkpt lat="45.52744077985259" lon="10.386310849808554"><ele>165.0</ele><time>2026-04-03T08:26:04Z</time></trkpt><trkpt lat="45.52747019133329" lon="10.3864061351887"><ele>165.0</ele><time>2026-04-03T08:26:05Z</time></trkpt><trkpt lat="45.527497741703755" lon="10.386495512142643"><ele>165.0</ele><time>2026-04-03T08:26:06Z</time></trkpt><trkpt lat="45.52754677398042" lon="10.386654579302963"><ele>165.0</ele><time>2026-04-03T08:26:08Z</time></trkpt><trkpt lat="45.527590569229865" lon="10.386796656807315"><ele>165.0</ele><time>2026-04-03T08:26:10Z</time></trkpt><trkpt lat="45.52764261974608" lon="10.386965515588626"><ele>165.0</ele><time>2026-04-03T08:26:12Z</time></trkpt><trkpt lat="45.52766865153768" lon="10.387049966103893"><ele>165.0</ele><time>2026-04-03T08:26:13Z</time></trkpt><trkpt lat="45.52771469552702" lon="10.387199515440651"><ele>165.0</ele><time>2026-04-03T08:26:15Z</time></trkpt><trkpt lat="45.52775908450648" lon="10.387343953388134"><ele>165.0</ele><time>2026-04-03T08:26:17Z</time></trkpt><trkpt lat="45.52779891880626" lon="10.387473570998507"><ele>165.0</ele><time>2026-04-03T08:26:19Z</time></trkpt><trkpt lat="45.527837898671365" lon="10.387600408197189"><ele>165.0</ele><time>2026-04-03T08:26:21Z</time></trkpt><trkpt lat="45.52788241640818" lon="10.387745266100147"><ele>165.0</ele><time>2026-04-03T08:26:23Z</time></trkpt><trkpt lat="45.5279072622361" lon="10.387828285196681"><ele>165.0</ele><time>2026-04-03T08:26:24Z</time></trkpt><trkpt lat="45.527946965823624" lon="10.387959195183221"><ele>165.5</ele><time>2026-04-03T08:26:26Z</time></trkpt><trkpt lat="45.5279910996919" lon="10.388103969316411"><ele>166.0</ele><time>2026-04-03T08:26:28Z</time></trkpt><trkpt lat="45.52802973495582" lon="10.388230146788802"><ele>166.5</ele><time>2026-04-03T08:26:30Z</time></trkpt><trkpt lat="45.5281912779825" lon="10.388187670960747"><ele>167.0</ele><time>2026-04-03T08:26:31Z</time></trkpt><trkpt lat="45.528221173970806" lon="10.388324822100067"><ele>167.0</ele><time>2026-04-03T08:26:33Z</time></trkpt><trkpt lat="45.52826239187909" lon="10.38845610897813"><ele>167.0</ele><time>2026-04-03T08:26:35Z</time></trkpt><trkpt lat="45.528299845208466" lon="10.38861082825195"><ele>167.0</ele><time>2026-04-03T08:26:37Z</time></trkpt><trkpt lat="45.52819687401338" lon="10.388760207530352"><ele>167.0</ele><time>2026-04-03T08:26:38Z</time></trkpt><trkpt lat="45.528235280245475" lon="10.38888200814618"><ele>167.2</ele><time>2026-04-03T08:26:40Z</time></trkpt><trkpt lat="45.52827876163677" lon="10.389015298959066"><ele>167.39999999999998</ele><time>2026-04-03T08:26:42Z</time></trkpt><trkpt lat="45.528317657957835" lon="10.389133934051221"><ele>167.60000000000002</ele><time>2026-04-03T08:26:44Z</time></trkpt><trkpt lat="45.52835330758127" lon="10.389242666738793"><ele>167.8</ele><time>2026-04-03T08:26:46Z</time></trkpt><trkpt lat="45.52839413925294" lon="10.38936720462342"><ele>168.0</ele><time>2026-04-03T08:26:48Z</time></trkpt><trkpt lat="45.528435754091234" lon="10.389494131322586"><ele>168.0</ele><time>2026-04-03T08:26:50Z</time></trkpt><trkpt lat="45.52847837780145" lon="10.389624135089088"><ele>168.0</ele><time>2026-04-03T08:26:52Z</time></trkpt><trkpt lat="45.5285221799752" lon="10.38975502977801"><ele>168.0</ele><time>2026-04-03T08:26:54Z</time></trkpt><trkpt lat="45.528564840739" lon="10.38988231602833"><ele>168.0</ele><time>2026-04-03T08:26:56Z</time></trkpt><trkpt lat="45.52860762648394" lon="10.390009939267927"><ele>168.0</ele><time>2026-04-03T08:26:58Z</time></trkpt><trkpt lat="45.52865409376728" lon="10.390147163451235"><ele>168.0</ele><time>2026-04-03T08:27:00Z</time></trkpt><trkpt lat="45.52869581809337" lon="10.39027038113407"><ele>168.0</ele><time>2026-04-03T08:27:02Z</time></trkpt><trkpt lat="45.528740520023064" lon="10.390402391855199"><ele>168.0</ele><time>2026-04-03T08:27:04Z</time></trkpt><trkpt lat="45.52878943436024" lon="10.39054684259568"><ele>168.0</ele><time>2026-04-03T08:27:06Z</time></trkpt><trkpt lat="45.52883599544067" lon="10.390684343896432"><ele>168.0</ele><time>2026-04-03T08:27:08Z</time></trkpt><trkpt lat="45.528880443446056" lon="10.390814552376366"><ele>167.8</ele><time>2026-04-03T08:27:10Z</time></trkpt><trkpt lat="45.528927000702865" lon="10.39095087178646"><ele>167.60000000000002</ele><time>2026-04-03T08:27:12Z</time></trkpt><trkpt lat="45.52897639182036" lon="10.391095489434749"><ele>167.39999999999998</ele><time>2026-04-03T08:27:14Z</time></trkpt><trkpt lat="45.5290187999283" lon="10.391219660313844"><ele>167.2</ele><time>2026-04-03T08:27:16Z</time></trkpt><trkpt lat="45.52906422583422" lon="10.391352667442279"><ele>167.0</ele><time>2026-04-03T08:27:18Z</time></trkpt><trkpt lat="45.5291086440052" lon="10.391482724080609"><ele>167.6</ele><time>2026-04-03T08:27:20Z</time></trkpt><trkpt lat="45.52915389151911" lon="10.391615208548862"><ele>168.2</ele><time>2026-04-03T08:27:22Z</time></trkpt><trkpt lat="45.52919284914233" lon="10.391729276680987"><ele>168.8</ele><time>2026-04-03T08:27:24Z</time></trkpt><trkpt lat="45.52923583324974" lon="10.391855134099279"><ele>169.4</ele><time>2026-04-03T08:27:26Z</time></trkpt><trkpt lat="45.52927632099234" lon="10.391973682673065"><ele>170.0</ele><time>2026-04-03T08:27:28Z</time></trkpt><trkpt lat="45.52931500133401" lon="10.39208693850537"><ele>169.6</ele><time>2026-04-03T08:27:30Z</time></trkpt><trkpt lat="45.52935441089425" lon="10.39220232967267"><ele>169.2</ele><time>2026-04-03T08:27:33Z</time></trkpt><trkpt lat="45.52940509296744" lon="10.39235072692798"><ele>168.8</ele><time>2026-04-03T08:27:35Z</time></trkpt><trkpt lat="45.52944203722677" lon="10.392458372754225"><ele>168.4</ele><time>2026-04-03T08:27:37Z</time></trkpt><trkpt lat="45.529481206254914" lon="10.392571783923785"><ele>168.0</ele><time>2026-04-03T08:27:39Z</time></trkpt><trkpt lat="45.52952528466647" lon="10.39269940978808"><ele>168.4</ele><time>2026-04-03T08:27:41Z</time></trkpt><trkpt lat="45.52956479619726" lon="10.3928133813788"><ele>168.8</ele><time>2026-04-03T08:27:43Z</time></trkpt><trkpt lat="45.52960640323641" lon="10.392931045897695"><ele>169.2</ele><time>2026-04-03T08:27:45Z</time></trkpt><trkpt lat="45.52964980386425" lon="10.393053782993023"><ele>169.6</ele><time>2026-04-03T08:27:47Z</time></trkpt><trkpt lat="45.52969258713952" lon="10.393174004632355"><ele>170.0</ele><time>2026-04-03T08:27:49Z</time></trkpt><trkpt lat="45.529736343341696" lon="10.393296772712626"><ele>170.25</ele><time>2026-04-03T08:27:51Z</time></trkpt><trkpt lat="45.52977954739722" lon="10.393417991267784"><ele>170.5</ele><time>2026-04-03T08:27:53Z</time></trkpt><trkpt lat="45.52998010027672" lon="10.39341304186431"><ele>170.75</ele><time>2026-04-03T08:27:55Z</time></trkpt><trkpt lat="45.53001514476891" lon="10.393543175356022"><ele>171.0</ele><time>2026-04-03T08:27:57Z</time></trkpt><trkpt lat="45.5298890586079" lon="10.393725249899266"><ele>170.60000000000002</ele><time>2026-04-03T08:27:58Z</time></trkpt><trkpt lat="45.529931992071575" lon="10.393845709344706"><ele>170.2</ele><time>2026-04-03T08:28:00Z</time></trkpt><trkpt lat="45.52997851773777" lon="10.393975695885599"><ele>169.8</ele><time>2026-04-03T08:28:02Z</time></trkpt><trkpt lat="45.530025770617975" lon="10.394107730938874"><ele>169.39999999999998</ele><time>2026-04-03T08:28:04Z</time></trkpt><trkpt lat="45.530074544307844" lon="10.394244015459579"><ele>169.0</ele><time>2026-04-03T08:28:06Z</time></trkpt><trkpt lat="45.530118339169505" lon="10.394366387645633"><ele>169.0</ele><time>2026-04-03T08:28:08Z</time></trkpt><trkpt lat="45.53016981530258" lon="10.394510223680323"><ele>169.0</ele><time>2026-04-03T08:28:10Z</time></trkpt><trkpt lat="45.530221446829486" lon="10.394654494302475"><ele>169.0</ele><time>2026-04-03T08:28:12Z</time></trkpt><trkpt lat="45.53027420506674" lon="10.394802462374928"><ele>169.0</ele><time>2026-04-03T08:28:14Z</time></trkpt><trkpt lat="45.53032188530671" lon="10.394936450779948"><ele>169.0</ele><time>2026-04-03T08:28:16Z</time></trkpt><trkpt lat="45.530372369893854" lon="10.395078319776504"><ele>169.75</ele><time>2026-04-03T08:28:18Z</time></trkpt><trkpt lat="45.530424767970125" lon="10.395225565933112"><ele>170.5</ele><time>2026-04-03T08:28:20Z</time></trkpt><trkpt lat="45.53047639253867" lon="10.39537063865067"><ele>171.25</ele><time>2026-04-03T08:28:22Z</time></trkpt><trkpt lat="45.53053048189008" lon="10.395522637558972"><ele>172.0</ele><time>2026-04-03T08:28:24Z</time></trkpt><trkpt lat="45.53058722935719" lon="10.395682106257379"><ele>172.0</ele><time>2026-04-03T08:28:26Z</time></trkpt><trkpt lat="45.530617125046156" lon="10.395766117516935"><ele>172.0</ele><time>2026-04-03T08:28:27Z</time></trkpt><trkpt lat="45.53064677702784" lon="10.395849443861843"><ele>172.0</ele><time>2026-04-03T08:28:28Z</time></trkpt><trkpt lat="45.53070075663556" lon="10.396001134196377"><ele>172.0</ele><time>2026-04-03T08:28:30Z</time></trkpt><trkpt lat="45.53074765481366" lon="10.39613292508794"><ele>172.0</ele><time>2026-04-03T08:28:32Z</time></trkpt><trkpt lat="45.530795020682895" lon="10.396266030104933"><ele>172.2</ele><time>2026-04-03T08:28:34Z</time></trkpt><trkpt lat="45.530835066468384" lon="10.39637856458376"><ele>172.39999999999998</ele><time>2026-04-03T08:28:36Z</time></trkpt><trkpt lat="45.53088054089663" lon="10.396506354445375"><ele>172.60000000000002</ele><time>2026-04-03T08:28:38Z</time></trkpt><trkpt lat="45.53093190365323" lon="10.39665069121719"><ele>172.8</ele><time>2026-04-03T08:28:40Z</time></trkpt><trkpt lat="45.53098379656092" lon="10.396796517852172"><ele>173.0</ele><time>2026-04-03T08:28:42Z</time></trkpt><trkpt lat="45.53103607435652" lon="10.396943426117684"><ele>173.0</ele><time>2026-04-03T08:28:44Z</time></trkpt><trkpt lat="45.531084443213835" lon="10.397079349648802"><ele>173.0</ele><time>2026-04-03T08:28:46Z</time></trkpt><trkpt lat="45.53113784712006" lon="10.397229422411538"><ele>173.0</ele><time>2026-04-03T08:28:48Z</time></trkpt><trkpt lat="45.5311963397551" lon="10.3973937951914"><ele>173.0</ele><time>2026-04-03T08:28:50Z</time></trkpt><trkpt lat="45.53122810120965" lon="10.39748304951783"><ele>173.0</ele><time>2026-04-03T08:28:51Z</time></trkpt><trkpt lat="45.5312835919964" lon="10.397638986679977"><ele>172.8</ele><time>2026-04-03T08:28:53Z</time></trkpt><trkpt lat="45.53134046472528" lon="10.397798807368002"><ele>172.60000000000002</ele><time>2026-04-03T08:28:55Z</time></trkpt><trkpt lat="45.53139116331644" lon="10.39794127788451"><ele>172.39999999999998</ele><time>2026-04-03T08:28:57Z</time></trkpt><trkpt lat="45.531436416817954" lon="10.398068444394127"><ele>172.2</ele><time>2026-04-03T08:28:59Z</time></trkpt><trkpt lat="45.53146787248419" lon="10.39815673655009"><ele>172.0</ele><time>2026-04-03T08:29:01Z</time></trkpt><trkpt lat="45.531505834926186" lon="10.398263292151082"><ele>172.25</ele><time>2026-04-03T08:29:03Z</time></trkpt><trkpt lat="45.531553740062606" lon="10.398397755557474"><ele>172.5</ele><time>2026-04-03T08:29:05Z</time></trkpt><trkpt lat="45.5316098097656" lon="10.398555135913059"><ele>172.75</ele><time>2026-04-03T08:29:07Z</time></trkpt><trkpt lat="45.53166538926469" lon="10.398711140239218"><ele>173.0</ele><time>2026-04-03T08:29:09Z</time></trkpt><trkpt lat="45.531719473532135" lon="10.398862947728357"><ele>173.0</ele><time>2026-04-03T08:29:11Z</time></trkpt><trkpt lat="45.53177073797666" lon="10.399006840404635"><ele>173.0</ele><time>2026-04-03T08:29:13Z</time></trkpt><trkpt lat="45.53182130316183" lon="10.39914877019395"><ele>173.0</ele><time>2026-04-03T08:29:15Z</time></trkpt><trkpt lat="45.53187262449697" lon="10.399292822427904"><ele>173.0</ele><time>2026-04-03T08:29:17Z</time></trkpt><trkpt lat="45.53191751707886" lon="10.399418830070953"><ele>173.0</ele><time>2026-04-03T08:29:19Z</time></trkpt><trkpt lat="45.531973518983406" lon="10.39957598555794"><ele>172.7142857142857</ele><time>2026-04-03T08:29:21Z</time></trkpt><trkpt lat="45.532006179025515" lon="10.399667529824766"><ele>172.42857142857144</ele><time>2026-04-03T08:29:22Z</time></trkpt><trkpt lat="45.53203908691586" lon="10.399759768710572"><ele>172.14285714285714</ele><time>2026-04-03T08:29:23Z</time></trkpt><trkpt lat="45.53207044118246" lon="10.399847652936907"><ele>171.85714285714283</ele><time>2026-04-03T08:29:24Z</time></trkpt><trkpt lat="45.53210247522368" lon="10.399937442515084"><ele>171.57142857142856</ele><time>2026-04-03T08:29:25Z</time></trkpt><trkpt lat="45.532131910208875" lon="10.400019947009394"><ele>171.28571428571428</ele><time>2026-04-03T08:29:26Z</time></trkpt><trkpt lat="45.53216127700967" lon="10.400102260591519"><ele>171.0</ele><time>2026-04-03T08:29:27Z</time></trkpt><trkpt lat="45.53219325183168" lon="10.400191884100154"><ele>170.85714285714283</ele><time>2026-04-03T08:29:28Z</time></trkpt><trkpt lat="45.53222483243151" lon="10.400280402613676"><ele>170.71428571428572</ele><time>2026-04-03T08:29:29Z</time></trkpt><trkpt lat="45.53225582101338" lon="10.40036726199771"><ele>170.57142857142856</ele><time>2026-04-03T08:29:30Z</time></trkpt><trkpt lat="45.53228456685096" lon="10.400447834853205"><ele>170.42857142857142</ele><time>2026-04-03T08:29:31Z</time></trkpt><trkpt lat="45.5323157371725" lon="10.400534515237807"><ele>170.28571428571428</ele><time>2026-04-03T08:29:32Z</time></trkpt><trkpt lat="45.532347318751256" lon="10.400621716987178"><ele>170.14285714285714</ele><time>2026-04-03T08:29:33Z</time></trkpt><trkpt lat="45.53237979751578" lon="10.400711396003885"><ele>170.0</ele><time>2026-04-03T08:29:34Z</time></trkpt><trkpt lat="45.53241054576766" lon="10.400796296996434"><ele>170.2857142857143</ele><time>2026-04-03T08:29:35Z</time></trkpt><trkpt lat="45.5324433357146" lon="10.400886835304686"><ele>170.57142857142856</ele><time>2026-04-03T08:29:36Z</time></trkpt><trkpt lat="45.53247720980696" lon="10.400978098153878"><ele>170.85714285714286</ele><time>2026-04-03T08:29:37Z</time></trkpt><trkpt lat="45.53251108212949" lon="10.401069433569264"><ele>171.14285714285717</ele><time>2026-04-03T08:29:38Z</time></trkpt><trkpt lat="45.53254584711253" lon="10.401163176084205"><ele>171.42857142857144</ele><time>2026-04-03T08:29:39Z</time></trkpt><trkpt lat="45.53257817447225" lon="10.401250345512567"><ele>171.71428571428572</ele><time>2026-04-03T08:29:40Z</time></trkpt><trkpt lat="45.53261105063361" lon="10.40133914361342"><ele>172.0</ele><time>2026-04-03T08:29:41Z</time></trkpt><trkpt lat="45.53264142053837" lon="10.401421584655113"><ele>172.5</ele><time>2026-04-03T08:29:42Z</time></trkpt><trkpt lat="45.53267199497825" lon="10.401504580963092"><ele>173.0</ele><time>2026-04-03T08:29:43Z</time></trkpt><trkpt lat="45.53270187546584" lon="10.40158569354265"><ele>173.5</ele><time>2026-04-03T08:29:44Z</time></trkpt><trkpt lat="45.53273247311084" lon="10.401668752916185"><ele>174.0</ele><time>2026-04-03T08:29:45Z</time></trkpt><trkpt lat="45.532789580007844" lon="10.401823773049744"><ele>174.5</ele><time>2026-04-03T08:29:47Z</time></trkpt><trkpt lat="45.53284713510487" lon="10.401980010146948"><ele>175.0</ele><time>2026-04-03T08:29:49Z</time></trkpt><trkpt lat="45.53287716807777" lon="10.402061536663068"><ele>174.83333333333334</ele><time>2026-04-03T08:29:50Z</time></trkpt><trkpt lat="45.532906992404435" lon="10.402142496690848"><ele>174.66666666666669</ele><time>2026-04-03T08:29:51Z</time></trkpt><trkpt lat="45.532938321983245" lon="10.402227542921874"><ele>174.5</ele><time>2026-04-03T08:29:52Z</time></trkpt><trkpt lat="45.532968924064384" lon="10.402310534634283"><ele>174.33333333333334</ele><time>2026-04-03T08:29:53Z</time></trkpt><trkpt lat="45.5330004858819" lon="10.402395476150266"><ele>174.16666666666666</ele><time>2026-04-03T08:29:54Z</time></trkpt><trkpt lat="45.53306019621884" lon="10.402556173076718"><ele>174.0</ele><time>2026-04-03T08:29:56Z</time></trkpt><trkpt lat="45.53311777591399" lon="10.402711135881617"><ele>174.0</ele><time>2026-04-03T08:29:58Z</time></trkpt><trkpt lat="45.533174507820604" lon="10.402863816991834"><ele>174.0</ele><time>2026-04-03T08:30:00Z</time></trkpt><trkpt lat="45.53323393230582" lon="10.40302374458358"><ele>174.0</ele><time>2026-04-03T08:30:02Z</time></trkpt><trkpt lat="45.53326542686665" lon="10.403108505131112"><ele>174.0</ele><time>2026-04-03T08:30:03Z</time></trkpt><trkpt lat="45.53329751656642" lon="10.403194867108944"><ele>174.0</ele><time>2026-04-03T08:30:04Z</time></trkpt><trkpt lat="45.533329403418925" lon="10.403280683421576"><ele>174.14285714285714</ele><time>2026-04-03T08:30:05Z</time></trkpt><trkpt lat="45.533361251612796" lon="10.403366395756974"><ele>174.28571428571428</ele><time>2026-04-03T08:30:06Z</time></trkpt><trkpt lat="45.533392726261106" lon="10.403451102556712"><ele>174.42857142857144</ele><time>2026-04-03T08:30:07Z</time></trkpt><trkpt lat="45.533422445687215" lon="10.4035310858575"><ele>174.57142857142856</ele><time>2026-04-03T08:30:08Z</time></trkpt><trkpt lat="45.53345514136944" lon="10.403619079027747"><ele>174.71428571428572</ele><time>2026-04-03T08:30:09Z</time></trkpt><trkpt lat="45.53348592070612" lon="10.403701914612085"><ele>174.85714285714286</ele><time>2026-04-03T08:30:10Z</time></trkpt><trkpt lat="45.53351633451563" lon="10.403783766549653"><ele>175.0</ele><time>2026-04-03T08:30:11Z</time></trkpt><trkpt lat="45.53357379264507" lon="10.40393840206933"><ele>175.0</ele><time>2026-04-03T08:30:13Z</time></trkpt><trkpt lat="45.533633093145326" lon="10.40409787142229"><ele>175.0</ele><time>2026-04-03T08:30:15Z</time></trkpt><trkpt lat="45.53368929734812" lon="10.404248581331737"><ele>175.0</ele><time>2026-04-03T08:30:17Z</time></trkpt><trkpt lat="45.53374271993001" lon="10.404391832263137"><ele>175.0</ele><time>2026-04-03T08:30:19Z</time></trkpt><trkpt lat="45.533790188881085" lon="10.404519119029908"><ele>175.0</ele><time>2026-04-03T08:30:21Z</time></trkpt><trkpt lat="45.53383427280717" lon="10.404637328775685"><ele>175.0</ele><time>2026-04-03T08:30:23Z</time></trkpt><trkpt lat="45.53387690057285" lon="10.404751634006402"><ele>175.0</ele><time>2026-04-03T08:30:25Z</time></trkpt><trkpt lat="45.53390930336971" lon="10.404838521061505"><ele>175.0</ele><time>2026-04-03T08:30:27Z</time></trkpt><trkpt lat="45.53395066593401" lon="10.404950002210162"><ele>175.0</ele><time>2026-04-03T08:30:29Z</time></trkpt><trkpt lat="45.534189185680624" lon="10.40493242201814"><ele>175.2</ele><time>2026-04-03T08:30:31Z</time></trkpt><trkpt lat="45.534217915287186" lon="10.405073839706748"><ele>175.4</ele><time>2026-04-03T08:30:33Z</time></trkpt><trkpt lat="45.534248804234345" lon="10.405205206845721"><ele>175.60000000000002</ele><time>2026-04-03T08:30:35Z</time></trkpt><trkpt lat="45.53427466661017" lon="10.405341422527478"><ele>175.8</ele><time>2026-04-03T08:30:37Z</time></trkpt><trkpt lat="45.53431037276034" lon="10.405473160941657"><ele>176.0</ele><time>2026-04-03T08:30:39Z</time></trkpt><trkpt lat="45.53434897155293" lon="10.405597735445594"><ele>176.0</ele><time>2026-04-03T08:30:41Z</time></trkpt><trkpt lat="45.5343921110359" lon="10.405723718743403"><ele>176.0</ele><time>2026-04-03T08:30:43Z</time></trkpt><trkpt lat="45.53443172008411" lon="10.405845722007436"><ele>176.0</ele><time>2026-04-03T08:30:45Z</time></trkpt><trkpt lat="45.53447356378277" lon="10.405972990905022"><ele>176.0</ele><time>2026-04-03T08:30:47Z</time></trkpt><trkpt lat="45.53452210593307" lon="10.406102539179297"><ele>176.0</ele><time>2026-04-03T08:30:49Z</time></trkpt><trkpt lat="45.53445910179807" lon="10.406323176061942"><ele>176.20000000000002</ele><time>2026-04-03T08:30:51Z</time></trkpt><trkpt lat="45.53450768349544" lon="10.406454950307863"><ele>176.4</ele><time>2026-04-03T08:30:53Z</time></trkpt><trkpt lat="45.53455587489989" lon="10.406585666066947"><ele>176.6</ele><time>2026-04-03T08:30:55Z</time></trkpt><trkpt lat="45.534603482028935" lon="10.406712996218328"><ele>176.8</ele><time>2026-04-03T08:30:57Z</time></trkpt><trkpt lat="45.53464906488751" lon="10.406833935987358"><ele>177.0</ele><time>2026-04-03T08:30:59Z</time></trkpt><trkpt lat="45.53469720537904" lon="10.406959833697082"><ele>177.0</ele><time>2026-04-03T08:31:01Z</time></trkpt><trkpt lat="45.534744739326854" lon="10.407082396029814"><ele>177.0</ele><time>2026-04-03T08:31:03Z</time></trkpt><trkpt lat="45.5347910495474" lon="10.407200479567173"><ele>177.0</ele><time>2026-04-03T08:31:05Z</time></trkpt><trkpt lat="45.534837002731905" lon="10.407316638823696"><ele>177.0</ele><time>2026-04-03T08:31:07Z</time></trkpt><trkpt lat="45.53488716355801" lon="10.407440593895316"><ele>177.0</ele><time>2026-04-03T08:31:09Z</time></trkpt><trkpt lat="45.53493828199115" lon="10.407562439342204"><ele>177.0</ele><time>2026-04-03T08:31:11Z</time></trkpt><trkpt lat="45.53498900971021" lon="10.407681843428554"><ele>177.0</ele><time>2026-04-03T08:31:13Z</time></trkpt><trkpt lat="45.535040436102165" lon="10.407799609894296"><ele>177.0</ele><time>2026-04-03T08:31:15Z</time></trkpt><trkpt lat="45.53508886260071" lon="10.407910506752154"><ele>177.0</ele><time>2026-04-03T08:31:17Z</time></trkpt><trkpt lat="45.53513439846353" lon="10.408014784875924"><ele>177.0</ele><time>2026-04-03T08:31:19Z</time></trkpt><trkpt lat="45.53531338738242" lon="10.40794126945755"><ele>177.0</ele><time>2026-04-03T08:31:20Z</time></trkpt><trkpt lat="45.53538061467292" lon="10.408033897084266"><ele>177.0</ele><time>2026-04-03T08:31:22Z</time></trkpt><trkpt lat="45.5354456200031" lon="10.408125517828871"><ele>177.0</ele><time>2026-04-03T08:31:24Z</time></trkpt><trkpt lat="45.5355049786375" lon="10.40823326976737"><ele>177.0</ele><time>2026-04-03T08:31:26Z</time></trkpt><trkpt lat="45.53556449494853" lon="10.40835109555964"><ele>177.0</ele><time>2026-04-03T08:31:28Z</time></trkpt><trkpt lat="45.53562863599277" lon="10.4084619121973"><ele>177.2</ele><time>2026-04-03T08:31:30Z</time></trkpt><trkpt lat="45.53567992745659" lon="10.408574871625445"><ele>177.39999999999998</ele><time>2026-04-03T08:31:32Z</time></trkpt><trkpt lat="45.53571525361257" lon="10.408696391066975"><ele>177.60000000000002</ele><time>2026-04-03T08:31:34Z</time></trkpt><trkpt lat="45.535771934266016" lon="10.408808555175685"><ele>177.8</ele><time>2026-04-03T08:31:36Z</time></trkpt><trkpt lat="45.535823347872814" lon="10.408919682215082"><ele>178.0</ele><time>2026-04-03T08:31:38Z</time></trkpt><trkpt lat="45.53587915349975" lon="10.409035275519832"><ele>178.0</ele><time>2026-04-03T08:31:40Z</time></trkpt><trkpt lat="45.53591615930509" lon="10.409181874148546"><ele>178.0</ele><time>2026-04-03T08:31:42Z</time></trkpt><trkpt lat="45.535952575903565" lon="10.409307492305722"><ele>178.0</ele><time>2026-04-03T08:31:44Z</time></trkpt><trkpt lat="45.53600256146327" lon="10.40943206536219"><ele>178.0</ele><time>2026-04-03T08:31:46Z</time></trkpt><trkpt lat="45.53602788853681" lon="10.409554695073306"><ele>178.0</ele><time>2026-04-03T08:31:48Z</time></trkpt><trkpt lat="45.53608247586517" lon="10.409652597398942"><ele>178.0</ele><time>2026-04-03T08:31:50Z</time></trkpt><trkpt lat="45.53615497542722" lon="10.409751041242925"><ele>178.0</ele><time>2026-04-03T08:31:52Z</time></trkpt><trkpt lat="45.53621382509623" lon="10.40986687497915"><ele>178.0</ele><time>2026-04-03T08:31:54Z</time></trkpt><trkpt lat="45.53626121128548" lon="10.409986924133992"><ele>178.0</ele><time>2026-04-03T08:31:56Z</time></trkpt><trkpt lat="45.53630937547173" lon="10.410102358129967"><ele>178.0</ele><time>2026-04-03T08:31:58Z</time></trkpt><trkpt lat="45.53636080673978" lon="10.410203240143233"><ele>178.0</ele><time>2026-04-03T08:32:00Z</time></trkpt><trkpt lat="45.53640221264121" lon="10.410328391802219"><ele>178.0</ele><time>2026-04-03T08:32:02Z</time></trkpt><trkpt lat="45.53643312876047" lon="10.410479889342293"><ele>178.0</ele><time>2026-04-03T08:32:04Z</time></trkpt><trkpt lat="45.53626824775648" lon="10.410653946524885"><ele>178.0</ele><time>2026-04-03T08:32:05Z</time></trkpt><trkpt lat="45.53631907649184" lon="10.41080211280904"><ele>178.0</ele><time>2026-04-03T08:32:07Z</time></trkpt><trkpt lat="45.53635516837998" lon="10.410910735376063"><ele>178.0</ele><time>2026-04-03T08:32:09Z</time></trkpt><trkpt lat="45.536394165957425" lon="10.411049922735572"><ele>178.0</ele><time>2026-04-03T08:32:11Z</time></trkpt><trkpt lat="45.5364303955039" lon="10.411179967800164"><ele>178.0</ele><time>2026-04-03T08:32:13Z</time></trkpt><trkpt lat="45.536467489871285" lon="10.411316693652156"><ele>178.0</ele><time>2026-04-03T08:32:15Z</time></trkpt><trkpt lat="45.53650365338686" lon="10.411454944134993"><ele>178.0</ele><time>2026-04-03T08:32:17Z</time></trkpt><trkpt lat="45.53653713570623" lon="10.41159454525113"><ele>178.0</ele><time>2026-04-03T08:32:19Z</time></trkpt><trkpt lat="45.536569425135795" lon="10.411732484750726"><ele>178.0</ele><time>2026-04-03T08:32:21Z</time></trkpt><trkpt lat="45.53660215132793" lon="10.411879019872433"><ele>178.0</ele><time>2026-04-03T08:32:23Z</time></trkpt><trkpt lat="45.53662995978769" lon="10.412021176160003"><ele>178.0</ele><time>2026-04-03T08:32:25Z</time></trkpt><trkpt lat="45.536657563708474" lon="10.412177265140189"><ele>178.4</ele><time>2026-04-03T08:32:27Z</time></trkpt><trkpt lat="45.53667824665854" lon="10.41231203960753"><ele>178.8</ele><time>2026-04-03T08:32:29Z</time></trkpt><trkpt lat="45.536700878977605" lon="10.41247534101189"><ele>179.2</ele><time>2026-04-03T08:32:31Z</time></trkpt><trkpt lat="45.536718989280004" lon="10.412614489453475"><ele>179.6</ele><time>2026-04-03T08:32:33Z</time></trkpt><trkpt lat="45.53673787987553" lon="10.412777501776292"><ele>180.0</ele><time>2026-04-03T08:32:35Z</time></trkpt><trkpt lat="45.53675529109182" lon="10.41292774815574"><ele>180.2</ele><time>2026-04-03T08:32:37Z</time></trkpt><trkpt lat="45.53677197767001" lon="10.413080483965512"><ele>180.4</ele><time>2026-04-03T08:32:39Z</time></trkpt><trkpt lat="45.5367872686537" lon="10.41322579957262"><ele>180.60000000000002</ele><time>2026-04-03T08:32:41Z</time></trkpt><trkpt lat="45.53680116272384" lon="10.413365695163801"><ele>180.8</ele><time>2026-04-03T08:32:43Z</time></trkpt><trkpt lat="45.53681906431688" lon="10.413545941465777"><ele>181.0</ele><time>2026-04-03T08:32:45Z</time></trkpt><trkpt lat="45.53682885488853" lon="10.41364452013552"><ele>181.0</ele><time>2026-04-03T08:32:46Z</time></trkpt><trkpt lat="45.53683810509227" lon="10.413737240475493"><ele>181.0</ele><time>2026-04-03T08:32:47Z</time></trkpt><trkpt lat="45.53684726957199" lon="10.413827162864619"><ele>181.0</ele><time>2026-04-03T08:32:48Z</time></trkpt><trkpt lat="45.536864813201305" lon="10.413999302243077"><ele>181.0</ele><time>2026-04-03T08:32:50Z</time></trkpt><trkpt lat="45.536881897392" lon="10.414166933600152"><ele>181.0</ele><time>2026-04-03T08:32:52Z</time></trkpt><trkpt lat="45.53689950367588" lon="10.414339687817982"><ele>181.0</ele><time>2026-04-03T08:32:54Z</time></trkpt><trkpt lat="45.53691628952038" lon="10.414504391700989"><ele>181.0</ele><time>2026-04-03T08:32:56Z</time></trkpt><trkpt lat="45.536932755803434" lon="10.414665960019988"><ele>181.0</ele><time>2026-04-03T08:32:58Z</time></trkpt><trkpt lat="45.53694198615006" lon="10.414756528840378"><ele>181.0</ele><time>2026-04-03T08:32:59Z</time></trkpt><trkpt lat="45.53695138863582" lon="10.414846131386422"><ele>181.0</ele><time>2026-04-03T08:33:00Z</time></trkpt><trkpt lat="45.53696303927838" lon="10.414953255358682"><ele>181.0</ele><time>2026-04-03T08:33:01Z</time></trkpt><trkpt lat="45.53697695747345" lon="10.415058297426052"><ele>181.0</ele><time>2026-04-03T08:33:02Z</time></trkpt><trkpt lat="45.536990786623036" lon="10.415149115699661"><ele>181.0</ele><time>2026-04-03T08:33:03Z</time></trkpt><trkpt lat="45.53700518865846" lon="10.415242691932793"><ele>181.0</ele><time>2026-04-03T08:33:04Z</time></trkpt><trkpt lat="45.53702017989518" lon="10.41533424774416"><ele>181.0</ele><time>2026-04-03T08:33:05Z</time></trkpt><trkpt lat="45.5370511954755" lon="10.415484238890247"><ele>181.0</ele><time>2026-04-03T08:33:06Z</time></trkpt><trkpt lat="45.53708314045596" lon="10.41560948489716"><ele>181.0</ele><time>2026-04-03T08:33:07Z</time></trkpt><trkpt lat="45.53710767034397" lon="10.41569827754451"><ele>181.25</ele><time>2026-04-03T08:33:08Z</time></trkpt><trkpt lat="45.53713376976115" lon="10.415789504695784"><ele>181.5</ele><time>2026-04-03T08:33:09Z</time></trkpt><trkpt lat="45.53718102652086" lon="10.415948611967671"><ele>181.75</ele><time>2026-04-03T08:33:11Z</time></trkpt><trkpt lat="45.53724467787361" lon="10.416142981933001"><ele>182.0</ele><time>2026-04-03T08:33:13Z</time></trkpt><trkpt lat="45.5373239348892" lon="10.416341571464434"><ele>182.2</ele><time>2026-04-03T08:33:15Z</time></trkpt><trkpt lat="45.53739640628108" lon="10.416501725990257"><ele>182.39999999999998</ele><time>2026-04-03T08:33:17Z</time></trkpt><trkpt lat="45.53744873226401" lon="10.416606746234242"><ele>182.60000000000002</ele><time>2026-04-03T08:33:18Z</time></trkpt><trkpt lat="45.5374868988267" lon="10.416680496591702"><ele>182.8</ele><time>2026-04-03T08:33:19Z</time></trkpt><trkpt lat="45.537542362585505" lon="10.416778224969573"><ele>183.0</ele><time>2026-04-03T08:33:20Z</time></trkpt><trkpt lat="45.53759212856459" lon="10.416860927801917"><ele>183.0</ele><time>2026-04-03T08:33:21Z</time></trkpt><trkpt lat="45.53767185744156" lon="10.41699209212544"><ele>183.0</ele><time>2026-04-03T08:33:23Z</time></trkpt><trkpt lat="45.53772051255864" lon="10.417069939656095"><ele>183.0</ele><time>2026-04-03T08:33:24Z</time></trkpt><trkpt lat="45.53780369863522" lon="10.4172000131349"><ele>183.0</ele><time>2026-04-03T08:33:26Z</time></trkpt><trkpt lat="45.53788168441207" lon="10.417321097349152"><ele>183.0</ele><time>2026-04-03T08:33:28Z</time></trkpt><trkpt lat="45.5379608090071" lon="10.417442564795996"><ele>182.5</ele><time>2026-04-03T08:33:30Z</time></trkpt><trkpt lat="45.538045716615734" lon="10.417572910288303"><ele>182.0</ele><time>2026-04-03T08:33:32Z</time></trkpt><trkpt lat="45.53812503639841" lon="10.417694661734947"><ele>181.5</ele><time>2026-04-03T08:33:34Z</time></trkpt><trkpt lat="45.53820469977683" lon="10.417816844625037"><ele>181.0</ele><time>2026-04-03T08:33:36Z</time></trkpt><trkpt lat="45.53828563553028" lon="10.417940979096329"><ele>180.75</ele><time>2026-04-03T08:33:38Z</time></trkpt><trkpt lat="45.53836000856864" lon="10.418055047774217"><ele>180.5</ele><time>2026-04-03T08:33:40Z</time></trkpt><trkpt lat="45.53844081702809" lon="10.41817898701289"><ele>180.25</ele><time>2026-04-03T08:33:42Z</time></trkpt><trkpt lat="45.538522578922155" lon="10.418304388404605"><ele>180.0</ele><time>2026-04-03T08:33:44Z</time></trkpt><trkpt lat="45.53860548602978" lon="10.41843154636089"><ele>180.0</ele><time>2026-04-03T08:33:46Z</time></trkpt><trkpt lat="45.538690020719656" lon="10.418561200554008"><ele>180.0</ele><time>2026-04-03T08:33:48Z</time></trkpt><trkpt lat="45.53877436242103" lon="10.418690558783554"><ele>180.0</ele><time>2026-04-03T08:33:50Z</time></trkpt><trkpt lat="45.53885612099185" lon="10.41881427406446"><ele>180.0</ele><time>2026-04-03T08:33:52Z</time></trkpt><trkpt lat="45.53893645965057" lon="10.418935215814269"><ele>181.0</ele><time>2026-04-03T08:33:54Z</time></trkpt><trkpt lat="45.539018708377064" lon="10.419058504855697"><ele>182.0</ele><time>2026-04-03T08:33:56Z</time></trkpt><trkpt lat="45.53909832263212" lon="10.419177854287609"><ele>183.0</ele><time>2026-04-03T08:33:58Z</time></trkpt><trkpt lat="45.5391733344954" lon="10.419288394587037"><ele>184.0</ele><time>2026-04-03T08:34:00Z</time></trkpt><trkpt lat="45.539252407173755" lon="10.419404750532177"><ele>184.0</ele><time>2026-04-03T08:34:02Z</time></trkpt><trkpt lat="45.53933269055076" lon="10.419520517432987"><ele>184.0</ele><time>2026-04-03T08:34:04Z</time></trkpt><trkpt lat="45.53941520200476" lon="10.419638735665966"><ele>184.0</ele><time>2026-04-03T08:34:06Z</time></trkpt><trkpt lat="45.539497535637004" lon="10.4197541028115"><ele>184.0</ele><time>2026-04-03T08:34:08Z</time></trkpt><trkpt lat="45.53957913524305" lon="10.419863405020557"><ele>183.6</ele><time>2026-04-03T08:34:10Z</time></trkpt><trkpt lat="45.539663971789366" lon="10.419976042110076"><ele>183.2</ele><time>2026-04-03T08:34:12Z</time></trkpt><trkpt lat="45.53975405030486" lon="10.420092891336655"><ele>182.79999999999998</ele><time>2026-04-03T08:34:14Z</time></trkpt><trkpt lat="45.53980168853778" lon="10.42015489674539"><ele>182.39999999999998</ele><time>2026-04-03T08:34:15Z</time></trkpt><trkpt lat="45.539893936546115" lon="10.420268692163772"><ele>182.0</ele><time>2026-04-03T08:34:17Z</time></trkpt><trkpt lat="45.539987941733806" lon="10.420384655698355"><ele>182.0</ele><time>2026-04-03T08:34:19Z</time></trkpt><trkpt lat="45.54003667763849" lon="10.420444777157142"><ele>182.0</ele><time>2026-04-03T08:34:20Z</time></trkpt><trkpt lat="45.54012761265624" lon="10.420556953419664"><ele>182.0</ele><time>2026-04-03T08:34:22Z</time></trkpt><trkpt lat="45.54021638996383" lon="10.42066646784392"><ele>182.0</ele><time>2026-04-03T08:34:24Z</time></trkpt><trkpt lat="45.54030710342817" lon="10.420777822931557"><ele>182.0</ele><time>2026-04-03T08:34:26Z</time></trkpt><trkpt lat="45.540394410563884" lon="10.42088461967254"><ele>182.5</ele><time>2026-04-03T08:34:28Z</time></trkpt><trkpt lat="45.54047786976137" lon="10.420986709473818"><ele>183.0</ele><time>2026-04-03T08:34:30Z</time></trkpt><trkpt lat="45.54056287189293" lon="10.421090686567615"><ele>183.5</ele><time>2026-04-03T08:34:32Z</time></trkpt><trkpt lat="45.54065307326243" lon="10.421199502716382"><ele>184.0</ele><time>2026-04-03T08:34:34Z</time></trkpt><trkpt lat="45.54074357870745" lon="10.421307521861369"><ele>184.39999999999998</ele><time>2026-04-03T08:34:36Z</time></trkpt><trkpt lat="45.54083152656375" lon="10.421412488562114"><ele>184.8</ele><time>2026-04-03T08:34:38Z</time></trkpt><trkpt lat="45.54091988919698" lon="10.421520870096176"><ele>185.2</ele><time>2026-04-03T08:34:40Z</time></trkpt><trkpt lat="45.541014959642915" lon="10.421637965404596"><ele>185.60000000000002</ele><time>2026-04-03T08:34:42Z</time></trkpt><trkpt lat="45.54106386766884" lon="10.421698232740468"><ele>186.0</ele><time>2026-04-03T08:34:43Z</time></trkpt><trkpt lat="45.54115564256271" lon="10.421811323126251"><ele>186.0</ele><time>2026-04-03T08:34:45Z</time></trkpt><trkpt lat="45.54120364878369" lon="10.421870408503288"><ele>186.0</ele><time>2026-04-03T08:34:46Z</time></trkpt><trkpt lat="45.541254398163815" lon="10.42193226713256"><ele>186.0</ele><time>2026-04-03T08:34:47Z</time></trkpt><trkpt lat="45.5413463150824" lon="10.42204430513535"><ele>186.0</ele><time>2026-04-03T08:34:49Z</time></trkpt><trkpt lat="45.5414405690954" lon="10.422159191846326"><ele>186.0</ele><time>2026-04-03T08:34:51Z</time></trkpt><trkpt lat="45.54153406122784" lon="10.422273149878352"><ele>185.5</ele><time>2026-04-03T08:34:53Z</time></trkpt><trkpt lat="45.54158205845448" lon="10.422331653999112"><ele>185.0</ele><time>2026-04-03T08:34:54Z</time></trkpt><trkpt lat="45.54163095950525" lon="10.422391259701397"><ele>184.5</ele><time>2026-04-03T08:34:55Z</time></trkpt><trkpt lat="45.54167937409843" lon="10.422450272356055"><ele>184.0</ele><time>2026-04-03T08:34:56Z</time></trkpt><trkpt lat="45.54177544810837" lon="10.422567377528013"><ele>183.5</ele><time>2026-04-03T08:34:58Z</time></trkpt><trkpt lat="45.54187046205436" lon="10.422683190532144"><ele>183.0</ele><time>2026-04-03T08:35:00Z</time></trkpt><trkpt lat="45.54191943895085" lon="10.42274288872347"><ele>183.0</ele><time>2026-04-03T08:35:01Z</time></trkpt><trkpt lat="45.541967597596184" lon="10.422801589497464"><ele>183.0</ele><time>2026-04-03T08:35:02Z</time></trkpt><trkpt lat="45.54201580889295" lon="10.422860354514837"><ele>183.0</ele><time>2026-04-03T08:35:03Z</time></trkpt><trkpt lat="45.54211140499155" lon="10.422976962039597"><ele>183.0</ele><time>2026-04-03T08:35:05Z</time></trkpt><trkpt lat="45.54220422608615" lon="10.423090666084983"><ele>183.0</ele><time>2026-04-03T08:35:07Z</time></trkpt><trkpt lat="45.54229910522411" lon="10.423205526659416"><ele>183.25</ele><time>2026-04-03T08:35:09Z</time></trkpt><trkpt lat="45.54239064977108" lon="10.423314226654357"><ele>183.5</ele><time>2026-04-03T08:35:11Z</time></trkpt><trkpt lat="45.542486085475204" lon="10.423426899262523"><ele>183.75</ele><time>2026-04-03T08:35:13Z</time></trkpt><trkpt lat="45.54257816331766" lon="10.423534703958468"><ele>184.0</ele><time>2026-04-03T08:35:15Z</time></trkpt><trkpt lat="45.54267232038238" lon="10.423644943045627"><ele>184.0</ele><time>2026-04-03T08:35:17Z</time></trkpt><trkpt lat="45.54275696790077" lon="10.423744048401065"><ele>184.0</ele><time>2026-04-03T08:35:19Z</time></trkpt><trkpt lat="45.54284646603028" lon="10.423848832771593"><ele>184.0</ele><time>2026-04-03T08:35:21Z</time></trkpt><trkpt lat="45.5429409101503" lon="10.423959407954793"><ele>184.0</ele><time>2026-04-03T08:35:23Z</time></trkpt><trkpt lat="45.543030096647406" lon="10.424063827540019"><ele>183.5</ele><time>2026-04-03T08:35:25Z</time></trkpt><trkpt lat="45.54312387000419" lon="10.42417361734929"><ele>183.0</ele><time>2026-04-03T08:35:27Z</time></trkpt><trkpt lat="45.543214454934706" lon="10.424279674128075"><ele>182.5</ele><time>2026-04-03T08:35:29Z</time></trkpt><trkpt lat="45.54330232285318" lon="10.424382087890688"><ele>182.0</ele><time>2026-04-03T08:35:31Z</time></trkpt><trkpt lat="45.543390873314166" lon="10.424485041344731"><ele>182.0</ele><time>2026-04-03T08:35:33Z</time></trkpt><trkpt lat="45.54347475217398" lon="10.424582563431539"><ele>182.0</ele><time>2026-04-03T08:35:35Z</time></trkpt><trkpt lat="45.543567760049434" lon="10.424690699243238"><ele>182.0</ele><time>2026-04-03T08:35:37Z</time></trkpt><trkpt lat="45.543654128110965" lon="10.424791289702263"><ele>182.0</ele><time>2026-04-03T08:35:39Z</time></trkpt><trkpt lat="45.54373956368811" lon="10.42489168676795"><ele>182.6</ele><time>2026-04-03T08:35:41Z</time></trkpt><trkpt lat="45.543827948401095" lon="10.424995781390534"><ele>183.2</ele><time>2026-04-03T08:35:43Z</time></trkpt><trkpt lat="45.543917460278095" lon="10.42510122270174"><ele>183.8</ele><time>2026-04-03T08:35:45Z</time></trkpt><trkpt lat="45.54400300582211" lon="10.425201832531473"><ele>184.4</ele><time>2026-04-03T08:35:47Z</time></trkpt><trkpt lat="45.54408264596372" lon="10.425295239834004"><ele>185.0</ele><time>2026-04-03T08:35:49Z</time></trkpt><trkpt lat="45.54416741215627" lon="10.425394260207351"><ele>185.0</ele><time>2026-04-03T08:35:51Z</time></trkpt><trkpt lat="45.544248644592855" lon="10.425488678689208"><ele>185.0</ele><time>2026-04-03T08:35:53Z</time></trkpt><trkpt lat="45.54433720867078" lon="10.425591618834876"><ele>185.0</ele><time>2026-04-03T08:35:55Z</time></trkpt><trkpt lat="45.54443893622845" lon="10.425709859457823"><ele>185.0</ele><time>2026-04-03T08:35:57Z</time></trkpt><trkpt lat="45.5444918156764" lon="10.42577132217139"><ele>185.0</ele><time>2026-04-03T08:35:58Z</time></trkpt><trkpt lat="45.54454737691137" lon="10.425835902382373"><ele>185.0</ele><time>2026-04-03T08:35:59Z</time></trkpt><trkpt lat="45.54460388011281" lon="10.425901577614146"><ele>185.0</ele><time>2026-04-03T08:36:00Z</time></trkpt><trkpt lat="45.54465909299702" lon="10.425965423495816"><ele>185.0</ele><time>2026-04-03T08:36:01Z</time></trkpt><trkpt lat="45.54471336059926" lon="10.42602798145174"><ele>185.0</ele><time>2026-04-03T08:36:02Z</time></trkpt><trkpt lat="45.54476409452873" lon="10.426087040740287"><ele>185.0</ele><time>2026-04-03T08:36:03Z</time></trkpt><trkpt lat="45.544859822502886" lon="10.42620142950615"><ele>185.0</ele><time>2026-04-03T08:36:05Z</time></trkpt><trkpt lat="45.54490893439372" lon="10.426259802904543"><ele>185.4</ele><time>2026-04-03T08:36:06Z</time></trkpt><trkpt lat="45.54495963473248" lon="10.426319344800524"><ele>185.8</ele><time>2026-04-03T08:36:07Z</time></trkpt><trkpt lat="45.5450601164615" lon="10.426435711456351"><ele>186.2</ele><time>2026-04-03T08:36:09Z</time></trkpt><trkpt lat="45.545157396869534" lon="10.426548370629412"><ele>186.6</ele><time>2026-04-03T08:36:11Z</time></trkpt><trkpt lat="45.54522645988042" lon="10.426628351660797"><ele>187.0</ele><time>2026-04-03T08:36:12Z</time></trkpt><trkpt lat="45.54528802620862" lon="10.426699650812354"><ele>187.0</ele><time>2026-04-03T08:36:13Z</time></trkpt><trkpt lat="45.545346757291135" lon="10.426767666479297"><ele>187.0</ele><time>2026-04-03T08:36:14Z</time></trkpt><trkpt lat="45.54540853322597" lon="10.426839208438182"><ele>187.0</ele><time>2026-04-03T08:36:15Z</time></trkpt><trkpt lat="45.54546434109964" lon="10.42690383885667"><ele>187.0</ele><time>2026-04-03T08:36:16Z</time></trkpt><trkpt lat="45.54552408603737" lon="10.426973028695292"><ele>187.0</ele><time>2026-04-03T08:36:17Z</time></trkpt><trkpt lat="45.545583560986906" lon="10.427041905846256"><ele>187.0</ele><time>2026-04-03T08:36:18Z</time></trkpt><trkpt lat="45.545638247955694" lon="10.427105238090741"><ele>187.5</ele><time>2026-04-03T08:36:19Z</time></trkpt><trkpt lat="45.54569581211032" lon="10.427171902450635"><ele>188.0</ele><time>2026-04-03T08:36:20Z</time></trkpt><trkpt lat="45.54577678600261" lon="10.427265782545255"><ele>188.5</ele><time>2026-04-03T08:36:22Z</time></trkpt><trkpt lat="45.54582570930634" lon="10.427322735795869"><ele>189.0</ele><time>2026-04-03T08:36:23Z</time></trkpt><trkpt lat="45.54589348978349" lon="10.427332310148811"><ele>189.5</ele><time>2026-04-03T08:36:24Z</time></trkpt><trkpt lat="45.54595846041755" lon="10.427334659866348"><ele>190.0</ele><time>2026-04-03T08:36:25Z</time></trkpt><trkpt lat="45.54641323788487" lon="10.427320706838497"><ele>190.33333333333334</ele><time>2026-04-03T08:36:32Z</time></trkpt><trkpt lat="45.54652362402776" lon="10.427296775186498"><ele>190.66666666666666</ele><time>2026-04-03T08:36:34Z</time></trkpt><trkpt lat="45.54663961042153" lon="10.42727058908274"><ele>191.0</ele><time>2026-04-03T08:36:36Z</time></trkpt><trkpt lat="45.54686807792057" lon="10.426835995561243"><ele>191.0</ele><time>2026-04-03T08:36:37Z</time></trkpt><trkpt lat="45.54689619422571" lon="10.42675438069093"><ele>191.0</ele><time>2026-04-03T08:36:38Z</time></trkpt><trkpt lat="45.54692230550749" lon="10.426612535165772"><ele>191.0</ele><time>2026-04-03T08:36:40Z</time></trkpt><trkpt lat="45.54689797423755" lon="10.426523801529695"><ele>191.0</ele><time>2026-04-03T08:36:41Z</time></trkpt><trkpt lat="45.54689779832333" lon="10.426418172139574"><ele>191.0</ele><time>2026-04-03T08:36:43Z</time></trkpt><trkpt lat="45.54693651928644" lon="10.4263433095459"><ele>191.0</ele><time>2026-04-03T08:36:44Z</time></trkpt><trkpt lat="45.54700946664257" lon="10.426218705672907"><ele>191.0</ele><time>2026-04-03T08:36:46Z</time></trkpt><trkpt lat="45.54702898036377" lon="10.426132289849143"><ele>191.0</ele><time>2026-04-03T08:36:47Z</time></trkpt><trkpt lat="45.54708219321645" lon="10.425957545496598"><ele>191.0</ele><time>2026-04-03T08:36:49Z</time></trkpt><trkpt lat="45.54711004568593" lon="10.42587635423194"><ele>191.0</ele><time>2026-04-03T08:36:50Z</time></trkpt><trkpt lat="45.54716678103628" lon="10.425718844630868"><ele>191.0</ele><time>2026-04-03T08:36:52Z</time></trkpt><trkpt lat="45.54722466960954" lon="10.42557679290911"><ele>190.8</ele><time>2026-04-03T08:36:54Z</time></trkpt><trkpt lat="45.54725788731891" lon="10.425499669514092"><ele>190.60000000000002</ele><time>2026-04-03T08:36:55Z</time></trkpt><trkpt lat="45.54729970846909" lon="10.425364913482401"><ele>190.4</ele><time>2026-04-03T08:36:57Z</time></trkpt><trkpt lat="45.547289723473014" lon="10.425224516404581"><ele>190.2</ele><time>2026-04-03T08:36:59Z</time></trkpt><trkpt lat="45.547244129586225" lon="10.425089888295604"><ele>190.0</ele><time>2026-04-03T08:37:01Z</time></trkpt><trkpt lat="45.547212346437576" lon="10.42495570199719"><ele>190.8</ele><time>2026-04-03T08:37:03Z</time></trkpt><trkpt lat="45.54722185147392" lon="10.424811143981012"><ele>191.6</ele><time>2026-04-03T08:37:05Z</time></trkpt><trkpt lat="45.54726342553384" lon="10.42474273974063"><ele>192.39999999999998</ele><time>2026-04-03T08:37:06Z</time></trkpt><trkpt lat="45.54731219259054" lon="10.424600835313216"><ele>193.2</ele><time>2026-04-03T08:37:08Z</time></trkpt><trkpt lat="45.54736301159501" lon="10.424486887857066"><ele>194.0</ele><time>2026-04-03T08:37:10Z</time></trkpt><trkpt lat="45.547415766949285" lon="10.424380481415525"><ele>194.00000000000003</ele><time>2026-04-03T08:37:12Z</time></trkpt><trkpt lat="45.54746361000362" lon="10.424263521810792"><ele>194.0</ele><time>2026-04-03T08:37:14Z</time></trkpt><trkpt lat="45.54751950708317" lon="10.42416166707995"><ele>194.0</ele><time>2026-04-03T08:37:16Z</time></trkpt><trkpt lat="45.54756901805598" lon="10.424061814241892"><ele>194.0</ele><time>2026-04-03T08:37:18Z</time></trkpt><trkpt lat="45.547619813490826" lon="10.423969801264327"><ele>194.00000000000003</ele><time>2026-04-03T08:37:20Z</time></trkpt><trkpt lat="45.54765717951776" lon="10.42386925745798"><ele>194.0</ele><time>2026-04-03T08:37:22Z</time></trkpt><trkpt lat="45.547689922932015" lon="10.423763730929068"><ele>194.0</ele><time>2026-04-03T08:37:24Z</time></trkpt><trkpt lat="45.54772844959819" lon="10.423657454911789"><ele>194.0</ele><time>2026-04-03T08:37:26Z</time></trkpt><trkpt lat="45.54777303206961" lon="10.423551717608952"><ele>194.0</ele><time>2026-04-03T08:37:28Z</time></trkpt><trkpt lat="45.54782643186223" lon="10.423447813467131"><ele>194.0</ele><time>2026-04-03T08:37:30Z</time></trkpt><trkpt lat="45.547896771988874" lon="10.423363281157386"><ele>194.0</ele><time>2026-04-03T08:37:32Z</time></trkpt><trkpt lat="45.54798184940929" lon="10.42326545547864"><ele>193.79999999999998</ele><time>2026-04-03T08:37:34Z</time></trkpt><trkpt lat="45.54806533182439" lon="10.423160018800115"><ele>193.6</ele><time>2026-04-03T08:37:36Z</time></trkpt><trkpt lat="45.54813439722572" lon="10.423018594227768"><ele>193.4</ele><time>2026-04-03T08:37:38Z</time></trkpt><trkpt lat="45.548219085960376" lon="10.422900167697495"><ele>193.2</ele><time>2026-04-03T08:37:40Z</time></trkpt><trkpt lat="45.548256966776464" lon="10.422821487673025"><ele>193.0</ele><time>2026-04-03T08:37:41Z</time></trkpt><trkpt lat="45.548312334023414" lon="10.42277156578651"><ele>192.8</ele><time>2026-04-03T08:37:42Z</time></trkpt><trkpt lat="45.54835780435566" lon="10.422709260250146"><ele>192.60000000000002</ele><time>2026-04-03T08:37:43Z</time></trkpt><trkpt lat="45.54843233270304" lon="10.42258229290141"><ele>192.39999999999998</ele><time>2026-04-03T08:37:45Z</time></trkpt><trkpt lat="45.5485189646764" lon="10.422465446427937"><ele>192.2</ele><time>2026-04-03T08:37:47Z</time></trkpt><trkpt lat="45.548609705109804" lon="10.42236781158666"><ele>192.0</ele><time>2026-04-03T08:37:49Z</time></trkpt><trkpt lat="45.548689555555626" lon="10.422234580060847"><ele>192.0</ele><time>2026-04-03T08:37:51Z</time></trkpt><trkpt lat="45.54877334387571" lon="10.422115975891092"><ele>192.0</ele><time>2026-04-03T08:37:53Z</time></trkpt><trkpt lat="45.54886056625207" lon="10.422030245228772"><ele>192.0</ele><time>2026-04-03T08:37:55Z</time></trkpt><trkpt lat="45.54891883368154" lon="10.421926188288376"><ele>192.0</ele><time>2026-04-03T08:37:57Z</time></trkpt><trkpt lat="45.54898334823212" lon="10.421837063604922"><ele>192.0</ele><time>2026-04-03T08:37:59Z</time></trkpt><trkpt lat="45.54905621608005" lon="10.421746812144194"><ele>192.0</ele><time>2026-04-03T08:38:01Z</time></trkpt><trkpt lat="45.549134854154886" lon="10.421643319336226"><ele>192.0</ele><time>2026-04-03T08:38:03Z</time></trkpt><trkpt lat="45.54921870153414" lon="10.42156553620333"><ele>192.0</ele><time>2026-04-03T08:38:05Z</time></trkpt><trkpt lat="45.549289115174346" lon="10.421450485178555"><ele>192.0</ele><time>2026-04-03T08:38:07Z</time></trkpt><trkpt lat="45.54937177304249" lon="10.421367189214607"><ele>192.0</ele><time>2026-04-03T08:38:09Z</time></trkpt><trkpt lat="45.549444787477" lon="10.421272156310042"><ele>192.0</ele><time>2026-04-03T08:38:11Z</time></trkpt><trkpt lat="45.54951617011001" lon="10.42118008819094"><ele>192.0</ele><time>2026-04-03T08:38:13Z</time></trkpt><trkpt lat="45.54959104194082" lon="10.421084936065457"><ele>192.0</ele><time>2026-04-03T08:38:15Z</time></trkpt><trkpt lat="45.54967288869395" lon="10.421002364958118"><ele>192.0</ele><time>2026-04-03T08:38:17Z</time></trkpt><trkpt lat="45.54974844526913" lon="10.42095629380745"><ele>192.0</ele><time>2026-04-03T08:38:19Z</time></trkpt><trkpt lat="45.54982312303717" lon="10.42094778683632"><ele>192.0</ele><time>2026-04-03T08:38:21Z</time></trkpt><trkpt lat="45.549828150256374" lon="10.42072788220514"><ele>192.0</ele><time>2026-04-03T08:38:23Z</time></trkpt><trkpt lat="45.549770206421066" lon="10.420625187897272"><ele>192.0</ele><time>2026-04-03T08:38:25Z</time></trkpt><trkpt lat="45.54971084473287" lon="10.420537531352458"><ele>192.0</ele><time>2026-04-03T08:38:27Z</time></trkpt><trkpt lat="45.549652154862045" lon="10.420463377643975"><ele>192.0</ele><time>2026-04-03T08:38:29Z</time></trkpt><trkpt lat="45.549715140879705" lon="10.420387647305306"><ele>191.6</ele><time>2026-04-03T08:38:31Z</time></trkpt><trkpt lat="45.54978474757758" lon="10.420288020854947"><ele>191.2</ele><time>2026-04-03T08:38:33Z</time></trkpt><trkpt lat="45.5498545316961" lon="10.420188142211998"><ele>190.8</ele><time>2026-04-03T08:38:35Z</time></trkpt><trkpt lat="45.54992907459801" lon="10.420081450921428"><ele>190.4</ele><time>2026-04-03T08:38:37Z</time></trkpt><trkpt lat="45.55000538631032" lon="10.419972228008573"><ele>190.0</ele><time>2026-04-03T08:38:39Z</time></trkpt><trkpt lat="45.55007878514915" lon="10.419866835569364"><ele>190.0</ele><time>2026-04-03T08:38:41Z</time></trkpt><trkpt lat="45.550134739099555" lon="10.419752767880393"><ele>190.0</ele><time>2026-04-03T08:38:43Z</time></trkpt><trkpt lat="45.55021114031001" lon="10.419675542683043"><ele>190.0</ele><time>2026-04-03T08:38:45Z</time></trkpt><trkpt lat="45.55027976574971" lon="10.419576358364427"><ele>190.0</ele><time>2026-04-03T08:38:47Z</time></trkpt><trkpt lat="45.550364113751534" lon="10.419467855966468"><ele>190.0</ele><time>2026-04-03T08:38:49Z</time></trkpt><trkpt lat="45.550404405666086" lon="10.419385700230201"><ele>189.85714285714286</ele><time>2026-04-03T08:38:50Z</time></trkpt><trkpt lat="45.550452248725804" lon="10.419310635201366"><ele>189.71428571428572</ele><time>2026-04-03T08:38:51Z</time></trkpt><trkpt lat="45.550499683501904" lon="10.419249701078487"><ele>189.57142857142856</ele><time>2026-04-03T08:38:52Z</time></trkpt><trkpt lat="45.55054276231854" lon="10.419180938012385"><ele>189.42857142857144</ele><time>2026-04-03T08:38:53Z</time></trkpt><trkpt lat="45.55058979615805" lon="10.419120772259612"><ele>189.28571428571428</ele><time>2026-04-03T08:38:54Z</time></trkpt><trkpt lat="45.550634420144036" lon="10.41905479055123"><ele>189.14285714285714</ele><time>2026-04-03T08:38:55Z</time></trkpt><trkpt lat="45.55068718550476" lon="10.418976770881253"><ele>189.0</ele><time>2026-04-03T08:38:56Z</time></trkpt><trkpt lat="45.55073602736071" lon="10.418904561126899"><ele>189.0</ele><time>2026-04-03T08:38:57Z</time></trkpt><trkpt lat="45.55078574059129" lon="10.418832418983007"><ele>189.0</ele><time>2026-04-03T08:38:58Z</time></trkpt><trkpt lat="45.55083137023099" lon="10.418766202823477"><ele>189.0</ele><time>2026-04-03T08:38:59Z</time></trkpt><trkpt lat="45.55091587972722" lon="10.418643565549939"><ele>189.0</ele><time>2026-04-03T08:39:01Z</time></trkpt><trkpt lat="45.55098799906633" lon="10.418538908468241"><ele>189.0</ele><time>2026-04-03T08:39:03Z</time></trkpt><trkpt lat="45.55106303737066" lon="10.418430015431618"><ele>189.0</ele><time>2026-04-03T08:39:05Z</time></trkpt><trkpt lat="45.55112855184685" lon="10.418302601621999"><ele>189.0</ele><time>2026-04-03T08:39:07Z</time></trkpt><trkpt lat="45.551209697290716" lon="10.418225704022992"><ele>189.0</ele><time>2026-04-03T08:39:09Z</time></trkpt><trkpt lat="45.55127446310106" lon="10.418122856980965"><ele>189.0</ele><time>2026-04-03T08:39:11Z</time></trkpt><trkpt lat="45.551340682554304" lon="10.418056051284916"><ele>189.0</ele><time>2026-04-03T08:39:13Z</time></trkpt><trkpt lat="45.551396256254634" lon="10.417935358185364"><ele>189.0</ele><time>2026-04-03T08:39:15Z</time></trkpt><trkpt lat="45.55144066064613" lon="10.417811774260937"><ele>189.0</ele><time>2026-04-03T08:39:17Z</time></trkpt><trkpt lat="45.551506094685635" lon="10.41769151942086"><ele>189.0</ele><time>2026-04-03T08:39:19Z</time></trkpt><trkpt lat="45.55153545960746" lon="10.417556765168918"><ele>189.0</ele><time>2026-04-03T08:39:21Z</time></trkpt><trkpt lat="45.55156979334069" lon="10.417404096889744"><ele>189.0</ele><time>2026-04-03T08:39:23Z</time></trkpt><trkpt lat="45.55160308447988" lon="10.417259068893143"><ele>188.39999999999998</ele><time>2026-04-03T08:39:25Z</time></trkpt><trkpt lat="45.551634125884675" lon="10.417106823782062"><ele>187.8</ele><time>2026-04-03T08:39:27Z</time></trkpt><trkpt lat="45.55163970408683" lon="10.41696480277969"><ele>187.2</ele><time>2026-04-03T08:39:29Z</time></trkpt><trkpt lat="45.551654772775784" lon="10.416843698879985"><ele>186.60000000000002</ele><time>2026-04-03T08:39:31Z</time></trkpt><trkpt lat="45.55166442818455" lon="10.416719201591553"><ele>186.0</ele><time>2026-04-03T08:39:33Z</time></trkpt><trkpt lat="45.55170592365392" lon="10.416629278340503"><ele>186.00000000000003</ele><time>2026-04-03T08:39:35Z</time></trkpt><trkpt lat="45.55169361205212" lon="10.416524880766975"><ele>186.0</ele><time>2026-04-03T08:39:37Z</time></trkpt><trkpt lat="45.55163854532955" lon="10.416447809896102"><ele>186.0</ele><time>2026-04-03T08:39:39Z</time></trkpt><trkpt lat="45.55157042256905" lon="10.416402779090472"><ele>186.0</ele><time>2026-04-03T08:39:41Z</time></trkpt><trkpt lat="45.55150080099667" lon="10.416377090946815"><ele>186.0</ele><time>2026-04-03T08:39:43Z</time></trkpt><trkpt lat="45.55143864447779" lon="10.416433587586466"><ele>186.00000000000003</ele><time>2026-04-03T08:39:45Z</time></trkpt><trkpt lat="45.551403627908144" lon="10.416516508962676"><ele>186.0</ele><time>2026-04-03T08:39:47Z</time></trkpt><trkpt lat="45.55136485407505" lon="10.41662797984468"><ele>186.00000000000003</ele><time>2026-04-03T08:39:50Z</time></trkpt><trkpt lat="45.55132642775841" lon="10.416708374136928"><ele>186.0</ele><time>2026-04-03T08:39:52Z</time></trkpt><trkpt lat="45.55128036143012" lon="10.416785907067425"><ele>186.0</ele><time>2026-04-03T08:39:54Z</time></trkpt><trkpt lat="45.55123803540598" lon="10.416878056926022"><ele>186.0</ele><time>2026-04-03T08:39:56Z</time></trkpt><trkpt lat="45.55119076979755" lon="10.416953579353962"><ele>186.0</ele><time>2026-04-03T08:39:58Z</time></trkpt><trkpt lat="45.551130592072" lon="10.417019771251514"><ele>186.00000000000003</ele><time>2026-04-03T08:40:00Z</time></trkpt><trkpt lat="45.551102580084326" lon="10.417121796553483"><ele>186.0</ele><time>2026-04-03T08:40:02Z</time></trkpt><trkpt lat="45.55104363656373" lon="10.417193546465317"><ele>186.8</ele><time>2026-04-03T08:40:04Z</time></trkpt><trkpt lat="45.55101988510799" lon="10.417288273657892"><ele>187.60000000000002</ele><time>2026-04-03T08:40:06Z</time></trkpt><trkpt lat="45.55097040069075" lon="10.41736667694367"><ele>188.4</ele><time>2026-04-03T08:40:08Z</time></trkpt><trkpt lat="45.55089488910289" lon="10.417467453338155"><ele>189.2</ele><time>2026-04-03T08:40:10Z</time></trkpt><trkpt lat="45.55083405417636" lon="10.417604862193555"><ele>190.0</ele><time>2026-04-03T08:40:12Z</time></trkpt><trkpt lat="45.550744691749564" lon="10.417686256863245"><ele>190.0</ele><time>2026-04-03T08:40:14Z</time></trkpt><trkpt lat="45.55069661940905" lon="10.417767597047275"><ele>190.0</ele><time>2026-04-03T08:40:16Z</time></trkpt><trkpt lat="45.550653611039415" lon="10.417840367470209"><ele>190.0</ele><time>2026-04-03T08:40:18Z</time></trkpt><trkpt lat="45.55073157028925" lon="10.418013236908767"><ele>190.0</ele><time>2026-04-03T08:40:22Z</time></trkpt><trkpt lat="45.550779187555435" lon="10.418091916251598"><ele>190.0</ele><time>2026-04-03T08:40:24Z</time></trkpt><trkpt lat="45.5508503377296" lon="10.418183612003515"><ele>190.0</ele><time>2026-04-03T08:40:27Z</time></trkpt><trkpt lat="45.55090628148451" lon="10.41824665675298"><ele>190.0</ele><time>2026-04-03T08:40:29Z</time></trkpt><trkpt lat="45.550956179294275" lon="10.418308526124308"><ele>190.0</ele><time>2026-04-03T08:40:31Z</time></trkpt><trkpt lat="45.55102209355517" lon="10.418367447602785"><ele>190.0</ele><time>2026-04-03T08:40:34Z</time></trkpt><trkpt lat="45.55096727855279" lon="10.418509595660767"><ele>190.0</ele><time>2026-04-03T08:40:38Z</time></trkpt><trkpt lat="45.550913000027606" lon="10.418598741753065"><ele>190.0</ele><time>2026-04-03T08:40:40Z</time></trkpt><trkpt lat="45.5508618429024" lon="10.418670329642149"><ele>190.0</ele><time>2026-04-03T08:40:42Z</time></trkpt><trkpt lat="45.550805697347066" lon="10.41875530022994"><ele>190.0</ele><time>2026-04-03T08:40:44Z</time></trkpt><trkpt lat="45.55072282577094" lon="10.418874634295083"><ele>190.0</ele><time>2026-04-03T08:40:46Z</time></trkpt><trkpt lat="45.55065980123777" lon="10.418980127224662"><ele>190.0</ele><time>2026-04-03T08:40:48Z</time></trkpt><trkpt lat="45.550578959959644" lon="10.419092050533038"><ele>190.0</ele><time>2026-04-03T08:40:50Z</time></trkpt><trkpt lat="45.55050323226062" lon="10.419198173428054"><ele>190.0</ele><time>2026-04-03T08:40:52Z</time></trkpt><trkpt lat="45.55041745178923" lon="10.419326524191865"><ele>190.0</ele><time>2026-04-03T08:40:54Z</time></trkpt><trkpt lat="45.550373244594" lon="10.419394254732783"><ele>190.0</ele><time>2026-04-03T08:40:55Z</time></trkpt><trkpt lat="45.55027612805261" lon="10.419514089461728"><ele>190.0</ele><time>2026-04-03T08:40:57Z</time></trkpt><trkpt lat="45.55022803314327" lon="10.419583601049547"><ele>190.0</ele><time>2026-04-03T08:40:58Z</time></trkpt><trkpt lat="45.550151538460995" lon="10.419711785295402"><ele>190.0</ele><time>2026-04-03T08:41:00Z</time></trkpt><trkpt lat="45.55007983069559" lon="10.41982446653767"><ele>190.0</ele><time>2026-04-03T08:41:02Z</time></trkpt><trkpt lat="45.55000590058861" lon="10.419904297420851"><ele>190.0</ele><time>2026-04-03T08:41:04Z</time></trkpt><trkpt lat="45.54995164095728" lon="10.419968241582376"><ele>190.0</ele><time>2026-04-03T08:41:06Z</time></trkpt></trkseg></trk></gpx>